     2              OBSERVATION DATA    GPS                 RINEX VERSION / TYPE
ASRINEXO V2.9.7 UX USGS/MENLO_PARK 29-MAY-01 14:16          PGM / RUN BY / DATE
                                                            COMMENT
BIT 2 OF LLI (+4) FLAGS DATA COLLECTED UNDER "AS" CONDITION COMMENT
BIT 2 OF LLI (+4) FLAGS DATA COLLECTED UNDER "AS" CONDITION COMMENT
BIT 2 OF LLI (+4) FLAGS DATA COLLECTED UNDER "AS" CONDITION COMMENT
BIT 2 OF LLI (+4) FLAGS DATA COLLECTED UNDER "AS" CONDITION COMMENT
BIT 2 OF LLI (+4) FLAGS DATA COLLECTED UNDER "AS" CONDITION COMMENT
BIT 2 OF LLI (+4) FLAGS DATA COLLECTED UNDER "AS" CONDITION COMMENT
BIT 2 OF LLI (+4) FLAGS DATA COLLECTED UNDER "AS" CONDITION COMMENT
BIT 2 OF LLI (+4) FLAGS DATA COLLECTED UNDER "AS" CONDITION COMMENT
Original Marker Name: tess Tessajera_1932_USC&GS            COMMENT
Campaign Name: USGS-Parkfield                               COMMENT
4-Character Station Name: TESS                              COMMENT
6-Character Antenna Code: DMRCHT                            COMMENT
Vertical Measurement Point: BCR                             COMMENT
Vertical Offset to Rinex Ref. Point: 0.0348                 COMMENT
Radial Measurement Point: ECF                               COMMENT
Radial Offset to Rinex Ref. Point: 0.1897                   COMMENT
Antenna Height from Field Measurement: 0.6440 m             COMMENT
Additional Antenna Identification Info.:                    COMMENT
Turborogue and Ashtech Choke Ring                           COMMENT
Original XYZ: -2657918.8781 -4476863.9045 3673316.1267      COMMENT
New XYZ position is based on association with SCEC monument COMMENT
E1F1A1S7+0011. Position of that monument is believed to be  COMMENT
valid to within 1 m horizontally; vertical accuracy         COMMENT
should be no worse than 3-times this value.                 COMMENT
                                                            COMMENT
Revised Rinex header created by UCSD GPS archive for        COMMENT
GSAC on 18-Oct-2001 (2001:291) 14:59:21 GMT                 COMMENT
For assistance contact dagnew@ucsd.edu                      COMMENT
or anderson@python.ucsd.edu                                 COMMENT
                                                            COMMENT
TESSAJERA 1932                                              MARKER NAME
GDH US GEOLOGICAL SURVEY                                    OBSERVER / AGENCY
LP019992805 ASHTECH Z-XII3 CD00                             REC # / TYPE / VERS
CR619992801 DORNE-MARGOL. TYPE T                            ANT # / TYPE
 -2657916.0978 -4476862.3605  3673308.9942                  APPROX POSITION XYZ
        0.5806        0.0000        0.0000                  ANTENNA: DELTA H/E/N
     1     1     0                                          WAVELENGTH FACT L1/2
     5    C1    L1    L2    P1    P2                        # / TYPES OF OBSERV
    30                                                      INTERVAL
  2001     5    15    16    27   30.000000                  TIME OF FIRST OBS
  2001     5    15    23    59    0.000000                  TIME OF LAST OBS
                                                            END OF HEADER
 01  5 15 16 27 30.0000000  0  4 04 05 24 09
  22275168.148      302581.434 8    214840.48246  22275168.282    22275173.2644
  20790150.385     -188812.794 9   -130182.03347  20790150.009    20790154.8924
  20674407.363       25931.427 9     19081.71448  20674407.326    20674412.6794
  22805783.332      293169.621 8    209703.63846  22805782.955    22805789.0394
 01  5 15 16 28  0.0000000  0  5 30 04 05 24 09
  22548118.307    -1515553.194 8  -1170601.02346  22548119.032    22548124.5464
  22049220.579     -884781.065 8   -710377.09546  22049220.682    22049225.7054
  20540011.560    -1503301.498 9  -1154458.93847  20540011.076    20540016.0304
  20434877.371    -1232807.205 9   -961753.58948  20434877.299    20434882.6974
  22579468.235     -896124.277 8   -717018.95246  22579467.890    22579474.0174
 01  5 15 16 28 30.0000000  0  5 30 04 05 24 09
  22531162.399    -1604660.109 8  -1240034.94146  22531162.551    22531168.0104
  22065513.432     -799161.742 8   -643660.79446  22065513.543    22065518.5714
  20532136.312    -1544686.501 9  -1186706.98847  20532135.818    20532140.7794
  20437631.719    -1218333.534 9   -950475.40548  20437631.572    20437636.9804
  22595390.508     -812452.018 8   -651819.86746  22595390.197    22595396.3924
 01  5 15 16 29  0.0000000  0  5 30 04 05 24 09
  22514240.396    -1693584.900 8  -1309326.94046  22514240.696    22514246.1534
  22081858.693     -713266.990 8   -576729.86746  22081858.787    22081863.8494
  20524336.680    -1585673.857 9  -1218645.18347  20524336.158    20524341.1174
  20440482.131    -1203354.826 9   -938803.68948  20440481.949    20440487.3424
  22611362.040     -728521.191 8   -586419.29646  22611361.750    22611367.9764
 01  5 15 16 29 30.0000000  0  6 30 04 05 24 09 10
  22497353.921    -1782323.951 8  -1378474.20646  22497354.206    22497359.6554
  22098255.971     -627098.849 8   -509585.90346  22098256.055    22098261.1574
  20516613.346    -1626260.438 9  -1250271.08547  20516612.824    20516617.7594
  20443428.571    -1187871.369 9   -926738.66248  20443428.379    20443433.7484
  22627382.504     -644333.492 8   -520818.56246  22627382.239    22627388.4764
  23674983.543    -1579855.501 8  -1208626.20245  23674984.189    23674992.4684
 01  5 15 16 30  0.0000000  0  6 30 04 05 24 09 10
  22480503.121    -1870875.556 8  -1447475.41746  22480503.371    22480508.8344
  22114704.741     -540660.186 8   -442231.14546  22114704.858    22114709.9604
  20508966.560    -1666444.633 9  -1281583.44047  20508966.038    20508970.9234
  20446470.706    -1171885.127 9   -914281.85548  20446470.513    20446475.8504
  22643451.245     -559892.235 8   -455020.26046  22643450.985    22643457.1814
  23656184.715    -1678653.606 7  -1285611.61045  23656183.045    23656191.4604
 01  5 15 16 30 30.0000000  0  6 30 04 05 24 09 10
  22463687.432    -1959242.602 8  -1516332.79946  22463687.633    22463693.0814
  22131203.461     -453959.027 8   -374671.84546  22131203.557    22131208.7204
  20501395.670    -1706230.120 9  -1312585.10647  20501395.149    20501399.9734
  20449607.334    -1155402.363 9   -901438.14248  20449607.112    20449612.4284
  22659566.684     -475205.778 8   -389030.87846  22659566.408    22659572.5774
  23637396.867    -1777382.226 7  -1362542.87845  23637395.731    23637404.0834
 01  5 15 16 31  0.0000000  0  6 30 04 05 24 09 10
  22446907.683    -2047420.674 8  -1585042.93146  22446907.880    22446913.2934
  22147752.079     -366995.619 8   -306908.20446  22147752.180    22147757.3664
  20493901.455    -1745612.691 9  -1343272.82347  20493900.928    20493905.7024
  20452838.502    -1138422.483 9   -888207.07448  20452838.285    20452843.5684
  22675728.701     -390274.461 8   -322850.71046  22675728.420    22675734.5804
  23618623.556    -1876035.860 8  -1439415.72745  23618622.518    23618630.8514
 01  5 15 16 31 30.0000000  0  6 30 04 05 24 09 10
  22430166.263    -2135397.259 8  -1653596.07246  22430166.469    22430171.8644
  22164352.017     -279762.504 8   -238934.39746  22164352.098    22164357.3514
  20486486.196    -1784580.299 9  -1373637.18347  20486485.681    20486490.4084
  20456165.968    -1120936.673 9   -874581.76548  20456165.751    20456171.0304
  22691938.586     -305091.323 8   -256474.32146  22691938.308    22691944.5014
  23599867.095    -1974601.031 8  -1516219.62945  23599866.123    23599874.5074
 01  5 15 16 32  0.0000000  0  6 30 04 05 24 09 10
  22413462.197    -2223177.766 8  -1721996.41546  22413462.413    22413467.8074
  22181001.284     -192270.169 8   -170758.59346  22181001.392    22181006.7194
  20479148.798    -1823138.736 9  -1403682.70947  20479148.281    20479153.0214
  20459587.985    -1102953.954 9   -860569.25648  20459587.772    20459593.0884
  22708194.367     -219666.720 8   -189909.75346  22708194.074    22708200.3974
  23581126.630    -2073082.048 8  -1592957.95645  23581125.816    23581134.2194
 01  5 15 16 32 30.0000000  0  6 30 04 05 24 09 10
  22396796.020    -2310759.077 8  -1790241.54246  22396796.251    22396801.6404
  22197699.597     -104520.217 8   -102382.05246  22197699.732    22197705.0234
  20471889.726    -1861285.465 9  -1433407.42547  20471889.216    20471893.9674
  20463104.527    -1084474.616 9   -846169.77548  20463104.318    20463109.6574
  22724495.705     -134002.935 8   -123158.84246  22724495.449    22724501.8204
  23562403.007    -2171474.907 8  -1669627.63045  23562402.239    23562410.6124
 01  5 15 16 33  0.0000000  0  6 30 04 05 24 09 10
  22380168.669    -2398136.456 8  -1858327.76446  22380168.911    22380174.2264
  22214446.947      -16512.621 8    -33804.74346  22214447.069    22214452.4554
  20464709.849    -1899016.022 9  -1462807.85547  20464709.327    20464714.1344
  20466715.691    -1065497.977 9   -831382.78448  20466715.478    20466720.8734
  22740842.494      -48100.272 8    -56221.76446  22740842.262    22740848.6584
  23543697.225    -2269774.013 8  -1746224.20745  23543696.449    23543704.9104
 01  5 15 16 33 30.0000000  0  6 30 04 05 24 09 10
  22363578.579    -2485317.781 8  -1926261.22546  22363578.786    22363584.1184
  22231240.780       71739.133 8     34962.80746  22231240.882    22231246.2804
  20457607.504    -1936339.136 9  -1491890.80047  20457606.993    20457611.8214
  20470419.284    -1046035.667 9   -816217.35348  20470419.064    20470424.4704
  22757232.242       38028.048 8     10891.13246  22757232.036    22757238.3794
  23525007.958    -2367986.496 8  -1822753.30245  23525007.027    23525015.5324
 01  5 15 16 34  0.0000000  0  6 30 04 05 24 09 10
  22347028.475    -2572289.019 8  -1994030.97346  22347028.674    22347034.0234
  22248082.997      160244.929 8    103928.31446  22248083.092    22248088.3994
  20450585.234    -1973241.346 9  -1520645.76347  20450584.725    20450589.5814
  20474217.307    -1026076.963 9   -800665.11848  20474217.084    20474222.4884
  22773666.703      124391.168 8     78186.97746  22773666.499    22773672.7894
  23506338.091    -2466097.015 6  -1899202.95145  23506337.241    23506345.6664
 01  5 15 16 34 30.0000000  0  6 30 04 05 24 09 10
  22330518.065    -2659051.774 8  -2061638.26646  22330518.254    22330523.6174
  22264972.194      248997.705 8    173086.27346  22264972.261    22264977.5404
  20443642.706    -2009724.654 9  -1549074.30847  20443642.201    20443647.0884
  20478108.642    -1005627.927 9   -784730.80248  20478108.410    20478113.8324
  22790144.393      210981.731 8    145660.07846  22790144.192    22790150.4884
  23487687.429    -2564106.803 8  -1975574.08345  23487686.633    23487694.7954
 01  5 15 16 35  0.0000000  0  6 30 04 05 24 09 10
  22314047.607    -2745604.558 8  -2129081.95246  22314047.796    22314053.1664
  22281907.740      337993.934 8    242433.93246  22281907.806    22281913.0204
  20436780.073    -2045787.927 9  -1577175.55647  20436779.562    20436784.4824
  20482092.884     -984690.506 9   -768415.93448  20482092.672    20482098.0784
  22806664.682      297796.276 8    213307.69046  22806664.504    22806670.7924
  23469056.472    -2662012.547 8  -2051864.15145  23469055.651    23469063.9014
 01  5 15 16 35 30.0000000  0  6 30 04 05 24 09 10
  22297617.586    -2831944.822 8  -2196360.03246  22297617.790    22297623.1344
  22298889.142      427231.458 8    311969.62846  22298889.190    22298894.3754
  20429997.772    -2081429.187 9  -1604947.95747  20429997.277    20430002.1884
  20486169.798     -963266.275 9   -751721.72548  20486169.590    20486175.0014
  22823227.077      384831.965 8    281127.64846  22823226.899    22823233.2234
  23450445.869    -2759811.505 8  -2128071.00545  23450445.065    23450453.3474
 01  5 15 16 36  0.0000000  0  6 30 04 05 24 09 10
  22281228.464    -2918070.262 8  -2263470.72346  22281228.676    22281233.9544
  22315915.945      516707.673 8    381691.30946  22315916.022    22315921.2404
  20423296.099    -2116646.803 9  -1632390.25447  20423295.607    20423300.4954
  20490339.062     -941356.604 9   -734649.26048  20490338.854    20490344.2844
  22839830.996      472085.672 8    349117.46146  22839830.804    22839837.1304
  23431856.233    -2857500.229 8  -2204191.95945  23431855.445    23431863.7204
 01  5 15 16 36 30.0000000  0  6 30 04 05 24 09 10
  22264880.769    -3003978.240 8  -2330411.97346  22264880.964    22264886.2224
  22332987.620      606420.003 8    451596.97146  22332987.725    22332992.9444
  20416675.425    -2151438.785 9  -1659500.88348  20416674.920    20416679.7824
  20494600.528     -918962.427 9   -717199.25448  20494600.314    20494605.7764
  22856475.936      559554.995 8    417275.29446  22856475.731    22856482.0384
  23413288.275    -2955075.172 8  -2280224.25745  23413287.418    23413295.8284
 01  5 15 16 37  0.0000000  0  6 30 04 05 24 09 10
  22248574.861    -3089666.354 8  -2397181.89646  22248575.052    22248580.2784
  22350103.764      696365.816 8    521684.56846  22350103.895    22350109.1304
  20410136.159    -2185803.067 9  -1686278.24148  20410135.667    20410140.5094
  20498953.866     -896085.710 9   -699373.24448  20498953.670    20498959.1124
  22873161.373      647237.289 8    485599.07846  22873161.180    22873167.5614
  23394742.576    -3052533.010 8  -2356165.29145  23394741.708    23394750.1664
 01  5 15 16 37 30.0000000  0  6 30 04 05 24 09 10
  22232311.159    -3175132.607 8  -2463778.93346  22232311.381    22232316.5674
  22367263.909      786542.792 8    591952.28546  22367264.055    22367269.2874
  20403678.531    -2219738.345 9  -1712721.30648  20403678.028    20403682.8454
  20503398.751     -872727.785 9   -681172.26948  20503398.552    20503403.9794
  22889886.732      735129.117 8    554086.14246  22889886.511    22889892.9394
  23376219.674    -3149870.834 8  -2432012.80845  23376218.821    23376227.3274
 01  5 15 16 38  0.0000000  0  6 30 04 05 24 09 10
  22216090.117    -3260374.587 8  -2530201.22446  22216090.370    22216095.5104
  22384467.478      876947.998 8    662397.85346  22384467.655    22384472.8764
  20397302.882    -2253242.754 9  -1738828.62948  20397302.381    20397307.1774
  20507934.849     -848890.483 9   -662597.74748  20507934.652    20507940.1004
  22906651.394      823227.652 8    622734.25746  22906651.155    22906657.6004
  23357720.328    -3247085.129 8  -2507764.07345  23357719.458    23357728.0314
 01  5 15 16 38 30.0000000  0  6 30 04 05 24 09 10
  22199912.324    -3345389.717 8  -2596446.73346  22199912.570    22199917.6604
  22401714.050      967578.949 8    733019.32446  22401714.195    22401719.4384
  20391009.561    -2286314.547 9  -1764598.84748  20391009.038    20391013.8444
  20512561.899     -824575.393 9   -643650.92648  20512561.689    20512567.1534
  22923454.805      911529.878 8    691541.10846  22923454.573    22923461.0584
  23339245.101    -3344172.653 8  -2583416.54745  23339244.278    23339252.7794
 01  5 15 16 39  0.0000000  0  6 30 04 05 24 09 10
  22183778.027    -3430176.018 8  -2662513.94446  22183778.250    22183783.3634
  22419003.080     1058432.893 8    803814.55946  22419003.197    22419008.4234
  20384798.798    -2318952.292 9  -1790030.85048  20384798.308    20384803.0934
  20517279.511     -799784.310 9   -624333.20348  20517279.313    20517284.7584
  22940296.318     1000032.585 8    760504.17546  22940296.113    22940302.6734
  23320794.611    -3441130.121 8  -2658967.68845  23320793.771    23320802.2994
 01  5 15 16 39 30.0000000  0  7 30 06 04 05 24 09 10
  22167687.735    -3514731.129 8  -2728400.99846  22167687.949    22167693.0244
  24008006.114    -1343028.962 7  -1031705.89845  24008005.404    24008013.5984
  22436334.020     1149507.348 8    874781.62146  22436334.149    22436339.3664
  20378670.999    -2351154.129 9  -1815123.18048  20378670.510    20378675.2884
  20522087.430     -774518.747 9   -604645.75548  20522087.215    20522092.6474
  22957175.472     1088732.889 8    829621.20246  22957175.238    22957181.9024
  23302369.439    -3537954.414 8  -2734415.04945  23302368.656    23302377.1974
 01  5 15 16 40  0.0000000  0  7 30 06 04 05 24 09 10
  22151641.766    -3599053.281 8  -2794106.53446  22151641.997    22151647.0054
  23994759.746    -1412635.492 7  -1085944.68745  23994759.544    23994767.6614
  22453706.239     1240798.658 8    945917.65046  22453706.343    22453711.5444
  20372626.301    -2382919.137 9  -1839875.12848  20372625.795    20372630.5834
  20526985.207     -748780.877 9   -584590.27448  20526984.994    20526990.4164
  22974091.571     1177627.292 8    898889.48546  22974091.347    22974098.0444
  23283970.078    -3634642.920 8  -2809756.60445  23283969.323    23283977.8664
 01  5 15 16 40 30.0000000  0  7 30 06 04 05 24 09 10
  22135640.254    -3683141.902 8  -2859630.10446  22135640.495    22135645.4644
  23981523.926    -1482191.049 7  -1140143.74845  23981523.706    23981531.8134
  22471118.976     1332302.845 8   1017219.56246  22471119.038    22471124.2874
  20366664.721    -2414247.470 9  -1864286.80948  20366664.232    20366669.0274
  20531972.157     -722574.236 9   -564169.52048  20531971.952    20531977.3754
  22991043.704     1266710.957 8    968305.25046  22991043.502    22991050.2034
  23265596.906    -3731194.110 8  -2884991.16445  23265596.123    23265604.6994
 01  5 15 16 41  0.0000000  0  7 30 06 04 05 24 09 10
  22119683.856    -3766993.233 8  -2924968.76746  22119684.091    22119689.0394
  23968297.958    -1551694.280 7  -1194302.05445  23968297.713    23968305.7304
  22488571.965     1424018.927 8   1088686.57246  22488572.055    22488577.3104
  20360786.835    -2445136.017 9  -1888355.80348  20360786.321    20360791.1424
  20537048.295     -695899.085 9   -543383.69348  20537048.087    20537053.5004
  23008031.652     1355982.590 8   1037867.47546  23008031.451    23008038.1014
  23247250.831    -3827603.200 8  -2960115.00346  23247250.014    23247258.5564
 01  5 15 16 41 30.0000000  0  7 30 06 04 05 24 09 10
  22103773.338    -3850603.484 8  -2990119.57446  22103773.566    22103778.5074
  23955082.082    -1621143.938 7  -1248418.59445  23955081.922    23955089.9254
  22506064.933     1515945.052 8   1160317.26846  22506065.045    22506070.3434
  20354993.211    -2475581.822 9  -1912079.80248  20354992.712    20354997.5174
  20542213.600     -668755.272 9   -522232.67348  20542213.391    20542218.7834
  23025054.989     1445440.296 8   1107574.69646  23025054.806    23025061.4424
  23228932.661    -3923865.652 8  -3035124.58146  23228931.845    23228940.3014
 01  5 15 16 42  0.0000000  0  7 30 06 04 05 24 09 10
  22087909.469    -3933968.714 8  -3055079.45846  22087909.698    22087914.6164
  23941876.634    -1690538.619 7  -1302492.29845  23941876.534    23941884.5764
  22523597.790     1608080.841 8   1232111.34246  22523597.888    22523603.2674
  20349284.412    -2505581.788 9  -1935456.39448  20349283.904    20349288.7114
  20547467.914     -641143.911 9   -500717.32948  20547467.704    20547473.0664
  23042113.477     1535082.700 8   1177425.83946  23042113.257    23042119.9284
  23210643.224    -4019976.814 8  -3110016.26346  23210642.407    23210650.8374
 01  5 15 16 42 30.0000000  0  7 30 06 04 05 24 09 10
  22072092.536    -4017087.262 8  -3119847.12446  22072092.748    22072097.6514
  23928681.554    -1759878.897 7  -1356523.61645  23928681.409    23928689.4704
  22541169.925     1700422.735 8   1304066.00246  22541170.023    22541175.4084
  20343660.712    -2535134.769 9  -1958484.69048  20343660.207    20343664.9954
  20552810.852     -613066.627 9   -478838.93448  20552810.645    20552816.0064
  23059206.513     1624906.586 8   1247418.38846  23059206.263    23059212.9584
  23192383.064    -4115934.007 8  -3184787.98446  23192382.298    23192390.6264
 01  5 15 16 43  0.0000000  0  7 30 06 04 05 24 09 10
  22056322.870    -4099957.254 8  -3184421.10646  22056323.105    22056327.9874
  23915496.702    -1829165.704 7  -1410513.27045  23915496.666    23915504.5274
  22558780.678     1792967.633 8   1376178.85646  22558780.751    22558786.2214
  20338122.253    -2564239.601 9  -1981163.77848  20338121.751    20338126.5234
  20558241.978     -584525.853 9   -456599.37448  20558241.775    20558247.1524
  23076333.292     1714908.102 8   1317549.35646  23076333.067    23076339.7704
  23174152.792    -4211734.396 8  -3259437.51846  23174152.018    23174160.2874
 01  5 15 16 43 30.0000000  0  7 30 06 04 05 24 09 10
  22040600.923    -4182576.407 8  -3248799.62246  22040601.170    22040606.0684
  23902322.019    -1898398.975 7  -1464461.21145  23902321.897    23902329.8284
  22576429.557     1885712.849 8   1448447.80246  22576429.674    22576435.1334
  20332669.352    -2592894.825 9  -2003492.51948  20332668.836    20332673.5914
  20563760.884     -555523.752 9   -434000.34048  20563760.685    20563766.0694
  23093493.339     1805084.364 8   1387816.49446  23093493.138    23093499.8364
  23155952.994    -4307374.754 8  -3333962.34846  23155952.198    23155960.4124
 01  5 15 16 44  0.0000000  0  7 30 06 04 05 24 09 10
  22024927.100    -4264942.848 8  -3312981.23446  22024927.310    22024932.1874
  23889157.486    -1967579.106 7  -1518367.74145  23889157.380    23889165.2564
  22594116.071     1978655.739 8   1520870.77246  22594116.189    22594121.6504
  20327302.278    -2621099.147 9  -2025469.91048  20327301.762    20327306.5024
  20569367.258     -526062.106 9   -411043.22348  20569367.063    20569372.4584
  23110685.930     1895431.999 8   1458217.16146  23110685.715    23110692.5124
  23137784.235    -4402851.946 8  -3408360.05946  23137783.437    23137791.5644
 01  5 15 16 44 30.0000000  0  7 30 06 04 05 24 09 10
  22009301.806    -4347054.040 8  -3376963.94646  22009301.987    22009306.8774
  23876002.976    -2036706.404 7  -1572233.10345  23876002.837    23876010.5884
  22611839.681     2071793.454 8   1593445.55546  22611839.769    22611845.2414
  20322021.215    -2648851.186 9  -2047094.87648  20322020.708    20322025.4584
  20575060.699     -496143.041 9   -387729.67048  20575060.492    20575065.8964
  23127910.583     1985947.948 8   1528748.98146  23127910.380    23127917.2354
  23119647.089    -4498162.963 8  -3482628.26646  23119646.292    23119654.3794
 01  5 15 16 45  0.0000000  0  7 30 06 04 05 24 09 10
  21993725.538    -4428907.704 8  -3440745.99046  21993725.740    21993730.6024
  23862858.469    -2105781.035 7  -1626057.41845  23862858.287    23862865.9884
  22629599.880     2165123.671 8   1666170.35146  22629599.974    22629605.4254
  20316826.552    -2676149.434 9  -2068366.23248  20316826.044    20316830.8024
  20580840.902     -465767.991 9   -364060.80648  20580840.700    20580846.0984
  23145166.797     2076629.351 8   1599409.73446  23145166.574    23145173.4304
  23101542.093    -4593304.802 8  -3556764.65146  23101541.286    23101549.4364
 01  5 15 16 45 30.0000000  0  7 30 06 04 05 24 09 10
  21978198.719    -4510501.404 8  -3504325.45946  21978198.930    21978203.8274
  23849724.052    -2174802.717 7  -1679840.49145  23849723.869    23849731.4634
  22647396.240     2258643.808 8   1739043.12646  22647396.354    22647401.8024
  20311718.571    -2702992.143 9  -2089282.63048  20311718.070    20311722.8324
  20586707.496     -434938.868 9   -340038.12348  20586707.299    20586712.7124
  23162453.887     2167473.206 8   1670197.06946  23162453.687    23162460.5414
  23083469.965    -4688273.650 8  -3630766.24846  23083469.167    23083477.4014
 01  5 15 16 46  0.0000000  0  7 30 06 04 05 24 09 10
  21962721.832    -4591832.757 8  -3567700.50746  21962722.044    21962726.9404
  23836599.677    -2243771.811 7  -1733582.57745  23836599.546    23836607.0294
  22665228.234     2352351.143 8   1812061.78246  22665228.349    22665233.7654
  20306697.520    -2729377.888 9  -2109842.94548  20306697.016    20306701.8154
  20592660.198     -403657.345 9   -315662.92048  20592659.988    20592665.4034
  23179771.295     2258476.444 8   1741108.59346  23179771.118    23179777.9904
  23065431.425    -4783066.163 8  -3704630.44546  23065430.625    23065438.9084
 01  5 15 16 46 30.0000000  0  7 30 06 04 05 24 09 10
  21947295.302    -4672899.430 8  -3630869.30646  21947295.534    21947300.4764
  23823485.188    -2312688.499 7  -1787283.82945  23823485.064    23823492.4434
  22683095.335     2446243.049 8   1885224.24846  22683095.429    22683100.8564
  20301763.697    -2755305.259 9  -2130046.08948  20301763.192    20301768.0044
  20598698.640     -371925.306 9   -290936.66448  20598698.438    20598703.8394
  23197118.519     2349636.161 8   1812142.04546  23197118.329    23197125.2154
  23047427.054    -4877679.383 8  -3778354.93446  23047426.329    23047434.5244
 01  5 15 16 47  0.0000000  0  7 30 06 04 05 24 09 10
  21931919.675    -4753698.671 8  -3693829.71847  21931919.918    21931924.9064
  23810380.767    -2381552.448 7  -1840943.98645  23810380.527    23810387.9934
  22700997.121     2540317.379 8   1958528.85646  22700997.226    22701002.7224
  20296917.485    -2780772.325 9  -2149890.55048  20296916.977    20296921.8094
  20604822.371     -339744.905 9   -265861.03248  20604822.149    20604827.5474
  23214494.962     2440949.550 8   1883295.24346  23214494.769    23214501.6754
  23029457.516    -4972109.742 8  -3851936.93946  23029456.809    23029464.9314
 01  5 15 16 47 30.0000000  0  7 30 06 04 05 24 09 10
  21916595.249    -4834228.824 8  -3756580.45347  21916595.517    21916600.5124
  23797286.256    -2450364.308 7  -1894563.54245  23797286.012    23797293.5734
  22718933.089     2634571.453 8   2031973.54446  22718933.220    22718938.7924
  20292159.018    -2805778.195 9  -2169375.63948  20292158.501    20292163.3464
  20611031.068     -307118.063 9   -240437.52648  20611030.860    20611036.2474
  23231899.987     2532413.115 8   1954565.46146  23231899.770    23231906.7344
  23011523.317    -5066354.367 8  -3925374.22546  23011522.595    23011530.6824
 01  5 15 16 48  0.0000000  0  7 30 06 04 05 24 09 10
  21901322.529    -4914487.264 8  -3819119.47247  21901322.800    21901327.7724
  23784201.721    -2519123.840 7  -1948142.33645  23784201.490    23784208.9604
  22736902.747     2729002.529 8   2105556.13546  22736902.880    22736908.5304
  20287488.658    -2830321.025 9  -2188499.91548  20287488.144    20287492.9904
  20617324.465     -274046.181 9   -214667.23948  20617324.253    20617329.6544
  23249333.119     2624024.299 8   2025950.70546  23249332.922    23249339.9024
  22993625.168    -5160409.787 8  -3998664.08346  22993624.405    22993632.3994
 01  5 15 16 48 30.0000000  0  7 30 06 04 05 24 09 10
  21886102.098    -4994471.105 8  -3881444.51947  21886102.377    21886107.3154
  23771127.270    -2587830.680 7  -2001680.06745  23771127.041    23771134.3854
  22754905.709     2823608.728 8   2179275.19546  22754905.816    22754911.5174
  20282906.765    -2854398.973 9  -2207261.95348  20282906.256    20282911.0954
  20623702.283     -240530.620 9   -188551.23248  20623702.068    20623707.4554
  23266793.815     2715780.479 8   2097448.92746  23266793.614    23266800.6454
  22975763.694    -5254272.242 8  -4071803.55646  22975762.860    22975770.9364
 01  5 15 16 49  0.0000000  0  7 30 06 04 05 24 09 10
  21870934.348    -5074178.241 8  -3943553.94547  21870934.617    21870939.5024
  23758062.729    -2656485.387 7  -2055177.19145  23758062.565    23758069.6524
  22772941.388     2918386.591 8   2253128.02546  22772941.491    22772947.2834
  20278413.493    -2878011.203 9  -2225661.08748  20278412.987    20278417.8454
  20630164.016     -206574.204 9   -162091.69748  20630163.795    20630169.1584
  23284281.445     2807678.319 8   2169057.54646  23284281.237    23284288.3184
  22957939.436    -5347938.840 8  -4144790.43646  22957938.610    22957946.6024
 01  5 15 16 49 30.0000000  0  7 30 06 04 05 24 09 10
  21855819.720    -5153606.253 8  -4005445.87147  21855819.971    21855824.8264
  23745008.008    -2725088.132 7  -2108633.80545  23745007.814    23745014.9124
  22791009.391     3013334.323 8   2327113.21546  22791009.572    22791015.3144
  20274009.144    -2901156.247 9  -2243696.18348  20274008.636    20274013.5024
  20636709.258     -172178.810 9   -135290.10348  20636709.034    20636714.4044
  23301795.469     2899714.811 8   2240774.18946  23301795.263    23301802.4074
  22940153.064    -5441406.630 8  -4217622.39146  22940152.193    22940160.1934
 01  5 15 16 50  0.0000000  0  7 30 06 04 05 24 09 10
  21840758.664    -5232752.604 8  -4067118.32847  21840758.907    21840763.7144
  23731963.235    -2793638.671 7  -2162049.75145  23731963.104    23731970.2694
  22809109.299     3108449.487 8   2401228.86146  22809109.482    22809115.2044
  20269694.075    -2923832.237 9  -2261365.79048  20269693.573    20269698.4044
  20643337.764     -137345.813 9   -108147.52248  20643337.555    20643342.9284
  23319335.357     2991887.103 8   2312596.65746  23319335.160    23319342.2784
  22922405.249    -5534671.946 8  -4290296.58746  22922404.380    22922412.2644
 01  5 15 16 50 30.0000000  0  7 30 06 04 05 24 09 10
  21825751.683    -5311614.837 8  -4128569.39147  21825751.907    21825756.6884
  23718928.360    -2862137.115 7  -2215425.10945  23718928.268    23718935.3354
  22827240.561     3203729.344 8   2475472.84746  22827240.740    22827246.4004
  20265468.505    -2946037.794 9  -2278668.82248  20265467.998    20265472.8194
  20650049.191     -102077.000 9    -80665.34248  20650048.969    20650054.3604
  23336900.576     3084192.233 8   2384522.62946  23336900.340    23336907.4424
  22904696.551    -5627731.402 8  -4362810.36146  22904695.679    22904703.4684
 01  5 15 16 51  0.0000000  0  7 30 06 04 05 24 09 10
  21810799.150    -5390190.865 8  -4189797.43347  21810799.388    21810804.1514
  23705903.434    -2930583.703 8  -2268760.06145  23705903.305    23705910.4454
  22845402.743     3299171.674 8   2549843.42546  22845402.876    22845408.5784
  20261332.689    -2967771.623 9  -2295604.27448  20261332.192    20261337.0214
  20656843.113      -66374.840 9    -52845.49048  20656842.905    20656848.2844
  23354490.443     3176627.169 8   2456549.74346  23354490.213    23354497.3564
  22887027.660    -5720581.809 8  -4435161.26046  22887026.811    22887034.5204
 01  5 15 16 51 30.0000000  0  7 30 06 04 05 24 09 10
  21795901.633    -5468477.934 8  -4250800.31947  21795901.861    21795906.6594
  23692888.432    -2998978.316 7  -2322054.52145  23692888.255    23692895.4044
  22863595.280     3394773.853 8   2624338.57046  22863595.402    22863601.1364
  20257286.975    -2989032.143 9  -2312170.91648  20257286.462    20257291.2974
  20663719.190      -30240.757 9    -24689.07848  20663718.975    20663724.3714
  23372104.536     3269189.385 8   2528676.04646  23372104.289    23372111.5164
  22869399.261    -5813219.365 8  -4507346.27946  22869398.415    22869406.0344
 01  5 15 16 52  0.0000000  0  7 30 06 04 05 24 09 10
  21781059.550    -5546473.512 8  -4311576.06047  21781059.786    21781064.5794
  23679883.234    -3067320.845 8  -2375308.38845  23679883.068    23679890.1364
  22881817.816     3490533.581 8   2698956.47746  22881817.897    22881823.6694
  20253331.602    -3009817.942 9  -2328367.64348  20253331.091    20253335.9044
  20670677.085        6323.124 9      3802.24848  20670676.858    20670682.2424
  23389742.317     3361876.061 8   2600899.32246  23389742.058    23389749.3224
  22851812.018    -5905640.868 8  -4579362.94246  22851811.210    22851818.7324
 01  5 15 16 52 30.0000000  0  7 30 06 04 05 24 09 10
  21766273.394    -5624175.230 8  -4372122.82647  21766273.622    21766278.3974
  23666887.887    -3135611.514 8  -2428521.84345  23666887.675    23666894.7924
  22900069.845     3586448.575 8   2773695.36846  22900069.971    22900075.7684
  20249466.755    -3030127.917 9  -2344193.60248  20249466.236    20249471.0394
  20677716.393       43314.850 9     32626.95248  20677716.175    20677721.5334
  23407403.099     3454683.850 8   2673216.97046  23407402.802    23407410.1644
  22834266.469    -5997843.306 8  -4651208.91846  22834265.647    22834273.1094
 01  5 15 16 53  0.0000000  0  7 30 06 04 05 24 09 10
  21751543.582    -5701581.020 8  -4432438.99547  21751543.810    21751548.5544
  23653902.367    -3203850.559 7  -2481695.08145  23653902.154    23653909.3284
  22918351.001     3682516.397 8   2848553.33946  22918351.196    22918356.9324
  20245692.730    -3049960.646 9  -2359647.67548  20245692.219    20245697.0234
  20684836.769       80732.519 9     61783.56548  20684836.546    20684841.9174
  23425086.341     3547609.877 8   2745626.75746  23425086.011    23425093.4684
  22816763.191    -6089823.492 8  -4722881.69646  22816762.394    22816769.8004
 01  5 15 16 53 30.0000000  0  7 30 06 04 05 24 09 10
  21736870.546    -5778688.219 8  -4492522.50347  21736870.777    21736875.5414
  23640926.662    -3272037.718 7  -2534827.87845  23640926.537    23640933.6444
  22936660.705     3778733.961 8   2923527.99346  22936660.860    22936666.6224
  20242009.765    -3069314.688 9  -2374728.75448  20242009.239    20242014.0634
  20692037.823      118574.216 9     91270.58748  20692037.590    20692042.9974
  23442791.608     3640651.383 8   2818126.51146  23442791.323    23442798.7274
  22799302.808    -6181578.050 8  -4794378.67046  22799302.072    22799309.3704
 01  5 15 16 54  0.0000000  0  7 30 06 04 05 24 09 10
  21722254.765    -5855494.556 8  -4552371.57047  21722254.986    21722259.7434
  23627960.857    -3340173.256 8  -2587920.45545  23627960.783    23627967.7994
  22954998.533     3875099.514 8   2998617.95946  22954998.705    22955004.4214
  20238418.130    -3088188.697 9  -2389435.78248  20238417.605    20238422.4374
  20699319.261      156838.378 9    121086.80147  20699319.020    20699324.4574
  23460518.268     3733805.331 8   2890713.88646  23460517.991    23460525.3894
  22781886.086    -6273103.622 8  -4865697.21646  22781885.319    22781892.5704
 01  5 15 16 54 30.0000000  0  7 30 06 04 05 24 09 10
  21707696.736    -5931997.402 9  -4611984.15447  21707696.964    21707701.7064
  23615004.962    -3408257.045 7  -2640972.71145  23615004.783    23615011.8214
  22973364.022     3971610.305 8   3073821.09946  22973364.190    22973369.8964
  20234918.118    -3106581.325 9  -2403767.70648  20234917.588    20234922.4424
  20706680.578      195522.331 9    151230.12347  20706680.334    20706685.7934
  23478265.818     3827068.927 8   2963386.70646  23478265.565    23478272.8964
  22764513.549    -6364396.916 8  -4936834.76546  22764512.756    22764519.9474
 01  5 15 16 55  0.0000000  0  7 30 06 04 05 24 09 10
  21693196.928    -6008194.390 9  -4671358.40647  21693197.172    21693201.8914
  23602058.774    -3476289.468 7  -2693984.93045  23602058.546    23602065.6614
  22991756.666     4068263.793 8   3149135.43046  22991756.818    22991762.5734
  20231509.881    -3124491.671 9  -2417723.82248  20231509.348    20231514.2354
  20714121.387      234624.046 9    181698.97747  20714121.172    20714126.6134
  23496033.633     3920438.876 8   3036142.38746  23496033.404    23496040.6514
  22747185.825    -6455454.500 8  -5007788.63546  22747185.021    22747192.1904
 01  5 15 16 55 30.0000000  0  7 30 06 04 05 24 09 10
  21678755.826    -6084082.967 9  -4730492.33747  21678756.069    21678760.7554
  23589122.372    -3544270.232 7  -2746956.90045  23589122.181    23589129.3294
  23010176.070     4165057.990 8   3224559.40546  23010176.196    23010181.9934
  20228193.755    -3141917.926 9  -2431302.73548  20228193.223    20228198.1344
  20721641.415      274142.007 9    212492.17247  20721641.196    20721646.6394
  23513821.217     4013912.738 8   3108979.04146  23513820.961    23513828.2054
  22729903.522    -6546273.116 8  -5078556.31146  22729902.706    22729909.8964
 01  5 15 16 56  0.0000000  0  7 30 06 04 05 24 09 10
  21664373.827    -6159660.853 9  -4789384.17347  21664374.056    21664378.7164
  23576195.921    -3612199.084 8  -2799888.41045  23576195.680    23576202.9624
  23028621.824     4261991.001 8   3300091.55646  23028621.957    23028627.8004
  20224970.024    -3158858.694 9  -2444503.34248  20224969.515    20224974.4264
  20729240.312      314074.268 9    243608.20347  20729240.096    20729245.5374
  23531628.033     4107487.725 8   3181894.49646  23531627.773    23531635.1014
  22712667.394    -6636849.218 8  -5149134.99946  22712666.518    22712673.7964
 01  5 15 16 56 30.0000000  0  7 30 06 04 05 24 09 10
  21650051.452    -6234925.482 9  -4848031.91247  21650051.661    21650056.3244
  23563279.287    -3680076.208 8  -2852779.62945  23563279.051    23563286.2774
  23047093.372     4359059.495 8   3375729.28546  23047093.470    23047099.4104
  20221838.895    -3175312.910 9  -2457324.81748  20221838.383    20221843.2914
  20736917.607      354418.672 9    275045.38247  20736917.391    20736922.8364
  23549453.411     4201160.341 8   3254886.02746  23549453.142    23549460.5394
  22695477.983    -6727179.715 8  -5219522.32146  22695477.078    22695484.4124
 01  5 15 16 57  0.0000000  0  7 30 06 04 05 24 09 10
  21635789.178    -6309874.213 9  -4906433.49547  21635789.405    21635794.0414
  23550372.505    -3747901.547 8  -2905630.49945  23550372.307    23550379.3904
  23065590.317     4456261.822 8   3451471.27745  23065590.414    23065596.4054
  20218800.675    -3191278.973 9  -2469765.91448  20218800.176    20218805.0824
  20744672.999      395173.362 9    306802.26947  20744672.782    20744678.2374
  23567296.958     4294928.106 8   3327951.70146  23567296.650    23567304.1154
  22678335.926    -6817261.265 8  -5289715.64946  22678335.056    22678342.4014
 01  5 15 16 57 30.0000000  0  7 30 06 04 05 24 09 10
  21621587.410    -6384504.898 9  -4964587.25147  21621587.636    21621592.2634
  23537475.499    -3815675.183 7  -2958441.08745  23537475.345    23537482.3544
  23084112.240     4553595.190 8   3527315.39245  23084112.352    23084118.3584
  20215855.546    -3206755.901 9  -2481825.86448  20215855.035    20215859.9244
  20752506.048      436336.112 9    338877.12247  20752505.829    20752511.2864
  23585157.964     4388787.939 8   3401089.10646  23585157.695    23585165.1774
  22661241.878    -6907090.503 8  -5359712.37246  22661241.019    22661248.3994
 01  5 15 16 58  0.0000000  0  7 30 06 04 05 24 09 10
  21607446.749    -6458814.560 9  -5022490.86747  21607446.976    21607451.5924
  23524588.417    -3883396.549 7  -3011210.94545  23524588.297    23524595.3864
  23102658.828     4651058.160 8   3603260.48245  23102658.982    23102665.0124
  20213003.846    -3221742.019 9  -2493503.37048  20213003.319    20213008.1944
  20760416.512      477905.814 9    371269.08247  20760416.293    20760421.7414
  23603036.082     4482737.581 8   3474296.49546  23603035.848    23603043.3784
  22644196.571    -6996663.864 8  -5429509.71346  22644195.700    22644203.0844
 01  5 15 16 58 30.0000000  0  7 30 06 04 05 24 09 10
  21593367.501    -6532801.476 9  -5080142.98747  21593367.742    21593372.3424
  23511711.059    -3951066.708 7  -3063940.88345  23511710.921    23511718.2064
  23121229.363     4748646.777 8   3679303.48245  23121229.516    23121235.5604
  20210245.521    -3236237.138 9  -2504798.27448  20210244.999    20210249.8854
  20768403.807      519879.172 9    403975.57647  20768403.573    20768409.0224
  23620930.574     4576772.951 8   3547570.68946  23620930.330    23620937.8574
  22627200.451    -7085978.742 8  -5499105.64346  22627199.596    22627206.9804
 01  5 15 16 59  0.0000000  0  7 30 06 04 05 24 09 10
  21579350.175    -6606462.921 9  -5137541.49247  21579350.407    21579355.0074
  23498843.552    -4018685.107 7  -3116630.50045  23498843.479    23498850.8194
  23139823.578     4846359.825 8   3755443.44445  23139823.703    23139829.8054
  20207581.047    -3250239.232 9  -2515708.99948  20207580.533    20207585.4104
  20776467.623      562254.711 9    436995.45947  20776467.401    20776472.8564
  23638841.026     4670892.153 8   3620910.20146  23638840.771    23638848.2954
  22610254.241    -7175031.519 8  -5568497.33946  22610253.388    22610260.7644
 01  5 15 16 59 30.0000000  0  7 30 06 04 05 24 09 10
  21565395.190    -6679796.891 9  -5194684.82347  21565395.427    21565400.0354
  23485985.996    -4086252.081 7  -3169280.03845  23485985.891    23485993.2104
  23158441.000     4944194.682 8   3831678.33445  23158441.115    23158447.1974
  20205010.457    -3263747.826 9  -2526235.17948  20205009.943    20205014.8184
  20784607.459      605029.935 9    470326.78947  20784607.246    20784612.7024
  23656766.769     4765091.866 8   3694312.44446  23656766.461    23656773.9924
  22593358.469    -7263819.071 8  -5637682.36346  22593357.584    22593364.9754
 01  5 15 17  0  0.0000000  0  7 30 06 04 05 24 09 10
  21551503.011    -6752800.680 9  -5251570.87247  21551503.245    21551507.8724
  23473138.314    -4153767.483 7  -3221889.39145  23473138.144    23473145.4214
  23177081.095     5042148.763 8   3908006.11545  23177081.161    23177087.3324
  20202534.057    -3276761.552 9  -2536375.75048  20202533.537    20202538.4374
  20792822.987      648202.746 9    503967.92347  20792822.768    20792828.2414
  23674707.258     4859369.099 8   3767775.09246  23674706.961    23674714.4704
  22576513.809    -7352338.104 8  -5706658.15146  22576512.915    22576520.2764
 01  5 15 17  0 30.0000000  0  7 30 06 04 05 24 09 10
  21537674.086    -6825471.991 9  -5308197.84247  21537674.328    21537678.9864
  23460300.426    -4221231.490 8  -3274458.69445  23460300.282    23460307.3624
  23195743.475     5140219.929 8   3984425.12945  23195743.561    23195749.7144
  20200151.995    -3289279.247 9  -2546129.80048  20200151.486    20200156.4004
  20801113.836      691771.431 9    537917.53147  20801113.599    20801119.0784
  23692661.893     4953720.917 8   3841295.87446  23692661.611    23692669.1704
  22559720.823    -7440585.368 8  -5775422.18046  22559719.951    22559727.3384
 01  5 15 17  1  0.0000000  0  7 30 06 04 05 24 09 10
  21523908.916    -6897808.373 9  -5364563.83547  21523909.148    21523913.8214
  23447472.339    -4288644.036 8  -3326987.89345  23447472.142    23447479.1304
  23214427.675     5238405.603 8   4060933.36145  23214427.816    23214433.9284
  20197864.586    -3301299.693 9  -2555496.38848  20197864.080    20197869.0094
  20809479.589      735733.636 9    572173.77547  20809479.377    20809484.8274
  23710630.266     5048144.581 8   3914872.62146  23710629.952    23710637.5484
  22542980.150    -7528557.745 8  -5843972.00546  22542979.320    22542986.7104
 01  5 15 17  1 30.0000000  0  7 30 06 04 05 24 09 10
  21510208.016    -6969807.043 9  -5420666.67547  21510208.253    21510212.9234
  23434654.074    -4356004.889 8  -3379476.82345  23434653.926    23434660.6534
  23233133.306     5336703.762 8   4137529.23545  23233133.407    23233139.5304
  20195672.041    -3312821.647 9  -2564474.53948  20195671.528    20195676.4674
  20817919.866      780087.618 9    606735.29747  20817919.654    20817925.1144
  23728611.791     5142637.461 8   3988503.31146  23728611.494    23728619.1024
  22526292.462    -7616251.532 8  -5912304.74146  22526291.643    22526299.0554
 01  5 15 17  2  0.0000000  0  7 30 06 04 05 24 09 10
  21496571.803    -7041465.724 9  -5476504.59047  21496572.033    21496576.6984
  23421845.603    -4423314.071 8  -3431925.48445  23421845.424    23421852.0354
  23251859.971     5435112.498 8   4214211.28745  23251860.032    23251866.1914
  20193574.569    -3323844.137 9  -2573063.49848  20193574.060    20193578.9904
  20826434.238      824830.803 9    641600.09847  20826434.020    20826439.4854
  23746605.862     5237196.381 8   4062185.44246  23746605.597    23746613.2164
  22509658.413    -7703663.690 8  -5980418.03546  22509657.589    22509665.0254
 01  5 15 17  2 30.0000000  0  7 30 06 04 05 24 09 10
  21483000.822    -7112781.798 9  -5532075.53847  21483001.038    21483005.6874
  23409046.937    -4490571.352 8  -3484333.70445  23409046.764    23409053.2804
  23270607.151     5533629.376 8   4290977.59445  23270607.253    23270613.3954
  20191572.369    -3334365.836 9  -2581262.23148  20191571.866    20191576.7794
  20835022.422      869961.964 9    676767.21747  20835022.204    20835027.6624
  23764611.963     5331818.686 8   4135916.97046  23764611.702    23764619.4214
  22493078.633    -7790790.685 8  -6048309.13846  22493077.806    22493085.2404
 01  5 15 17  3  0.0000000  0  7 30 06 04 05 24 09 10
  21469495.444    -7183752.982 9  -5587377.74147  21469495.647    21469500.3054
  23396258.154    -4557776.796 8  -3536701.53145  23396258.017    23396264.4834
  23289374.462     5632251.765 8   4367826.12545  23289374.551    23289380.6264
  20189665.634    -3344385.867 9  -2589070.05548  20189665.136    20189670.0524
  20843683.935      915478.375 9    712234.53247  20843683.718    20843689.1874
  23782629.642     5426501.587 8   4209695.71146  23782629.348    23782637.0954
  22476553.742    -7877629.145 8  -6115975.39546  22476552.936    22476560.3284
 01  5 15 17  3 30.0000000  0  7 30 06 04 05 24 09 10
  21456056.164    -7254377.004 9  -5642409.43147  21456056.361    21456060.9844
  23383479.138    -4624930.396 8  -3589028.95845  23383478.965    23383485.4954
  23308161.486     5730977.753 8   4444755.40045  23308161.515    23308167.6164
  20187854.559    -3353903.382 9  -2596486.31148  20187854.049    20187858.9544
  20852418.436      961378.248 9    748000.64547  20852418.211    20852423.6904
  23800658.247     5521242.055 8   4283519.30846  23800657.987    23800665.7304
  22460084.315    -7964176.164 8  -6183414.56046  22460083.478    22460090.9044
 01  5 15 17  4  0.0000000  0  7 30 06 04 05 24 09 10
  21442683.397    -7324651.299 9  -5697168.60447  21442683.589    21442688.2224
  23370710.164    -4692031.785 8  -3641315.70145  23370710.024    23370716.5764
  23326967.826     5829805.192 8   4521763.70745  23326967.916    23326973.8544
  20186139.348    -3362917.039 9  -2603509.94448  20186138.837    20186143.6994
  20861225.502     1007659.567 9    784063.99047  20861225.264    20861230.7634
  23818697.299     5616037.298 8   4357385.58146  23818697.030    23818704.8394
  22443670.996    -8050428.334 8  -6250623.97446  22443670.170    22443677.5594
 01  5 15 17  4 30.0000000  0  7 30 06 04 05 24 09 10
  21429377.610    -7394573.469 9  -5751653.39547  21429377.830    21429382.4334
  23357951.074    -4759081.272 8  -3693562.00745  23357950.867    23357957.4524
  23345792.913     5928731.382 8   4598848.96345  23345793.004    23345798.9804
  20184520.173    -3371425.979 9  -2610140.29048  20184519.648    20184524.4924
  20870104.691     1054319.889 9    820422.66247  20870104.447    20870109.9444
  23836746.146     5710884.262 8   4431292.15446  23836745.894    23836753.7894
  22427314.395    -8136382.581 8  -6317601.24546  22427313.564    22427320.9244
 01  5 15 17  5  0.0000000  0  7 30 06 04 05 24 09 10
  21416139.307    -7464141.071 9  -5805861.90147  21416139.525    21416144.1244
  23345201.867    -4826078.930 8  -3745767.93145  23345201.693    23345208.2284
  23364636.457     6027754.396 8   4676009.66645  23364636.549    23364642.5334
  20182997.270    -3379429.022 9  -2616376.43048  20182996.752    20183001.5774
  20879055.579     1101357.133 9    857075.03847  20879055.351    20879060.8354
  23854804.369     5805780.500 8   4505237.11146  23854804.163    23854812.0294
  22411015.112    -8222035.396 8  -6384343.62946  22411014.308    22411021.6024
 01  5 15 17  5 30.0000000  0  7 30 06 04 05 24 09 10
  21402968.869    -7533351.998 9  -5859792.48147  21402969.073    21402973.6974
  23332462.419    -4893024.752 8  -3797933.44845  23332462.303    23332468.8814
  23383497.977     6126871.925 8   4753244.00745  23383498.111    23383503.9814
  20181570.747    -3386925.527 9  -2622217.86948  20181570.230    20181575.0524
  20888077.773     1148768.947 9    894019.28847  20888077.555    20888083.0004
  23872871.423     5900722.776 8   4579217.95745  23872871.215    23872879.0784
  22394773.810    -8307383.697 8  -6450848.74246  22394772.992    22394780.2704
 01  5 15 17  6  0.0000000  0  7 30 06 04 05 24 09 10
  21389866.867    -7602203.429 9  -5913442.93047  21389867.103    21389871.7104
  23319732.902    -4959918.563 8  -3850058.44245  23319732.715    23319739.4474
  23402377.032     6226081.992 8   4830550.46545  23402377.161    23402383.0514
  20180240.820    -3393914.291 9  -2627663.66348  20180240.300    20180245.1334
  20897170.924     1196553.631 9    931254.08647  20897170.690    20897176.1454
  23890946.767     5995708.625 8   4653232.74145  23890946.552    23890954.3684
  22378591.057    -8392424.463 8  -6517114.21246  22378590.225    22378597.5184
 01  5 15 17  6 30.0000000  0  7 30 06 04 05 24 09 10
  21376833.700    -7670693.105 9  -5966811.49747  21376833.936    21376838.5444
  23307013.318    -5026759.948 8  -3902142.59045  23307013.150    23307019.9304
  23421273.299     6325381.952 8   4907926.97845  23421273.370    23421279.3814
  20179007.742    -3400394.258 9  -2632712.99648  20179007.204    20179012.0704
  20906334.566     1244708.853 9    968777.61547  20906334.336    20906339.7854
  23909029.942     6090735.305 8   4727279.33245  23909029.693    23909037.4884
  22362467.567    -8477153.880 8  -6583137.08446  22362466.756    22362473.9834
 01  5 15 17  7  0.0000000  0  7 30 06 04 05 24 09 10
  21363869.775    -7738818.862 9  -6019896.49047  21363870.001    21363874.6394
  23294303.607    -5093549.563 8  -3954186.39345  23294303.500    23294310.1624
  23440186.260     6424769.687 8   4985371.87645  23440186.317    23440192.3714
  20177871.559    -3406364.928 9  -2637365.47148  20177871.041    20177875.8974
  20915568.307     1293232.393 9   1006588.14647  20915568.074    20915573.5394
  23927120.148     6185799.319 8   4801355.02445  23927119.899    23927127.6344
  22346403.916    -8561569.075 8  -6648915.09446  22346403.107    22346410.2764
 01  5 15 17  7 30.0000000  0  7 30 06 04 05 24 09 10
  21350975.657    -7806577.901 9  -6072695.72947  21350975.877    21350980.5224
  23281603.799    -5160287.056 8  -4006189.58545  23281603.621    23281610.3834
  23459115.530     6524243.281 7   5062883.68545  23459115.622    23459121.6574
  20176832.507    -3411825.138 9  -2641620.18748  20176831.980    20176836.8624
  20924871.763     1342122.161 9   1044684.04747  20924871.533    20924877.0194
  23945217.001     6280898.164 8   4875457.86145  23945216.771    23945224.5204
  22330400.642    -8645666.948 8  -6714445.85546  22330399.786    22330406.9274
 01  5 15 17  8  0.0000000  0  7 30 06 04 05 24 09 10
  21338151.684    -7873968.116 9  -6125207.57647  21338151.905    21338156.5664
  23268913.892    -5226972.200 8  -4058151.98945  23268913.727    23268920.5294
  23478060.728     6623800.406 7   5140460.57745  23478060.817    23478066.8694
  20175890.762    -3416774.038 9  -2645476.47848  20175890.242    20175895.1184
  20934244.523     1391376.323 9   1083063.89047  20934244.284    20934249.7894
  23963319.975     6376028.987 8   4949585.60945  23963319.729    23963327.4734
  22314458.395    -8729444.015 8  -6779726.63846  22314457.533    22314464.6294
 01  5 15 17  8 30.0000000  0  7 30 06 04 05 24 09 10
  21325398.371    -7940987.107 9  -6177430.15047  21325398.584    21325403.2774
  23256233.992    -5293605.010 8  -4110073.60945  23256233.864    23256240.6784
  23497021.401     6723438.791 7   5218100.78345  23497021.450    23497027.4514
  20175046.513    -3421210.724 9  -2648933.64348  20175045.976    20175050.8724
  20943686.216     1440992.581 9   1121725.88847  20943685.988    20943691.5224
  23981428.485     6471188.945 8   5023736.06745  23981428.232    23981435.9614
  22298577.754    -8812897.182 8  -6844755.02846  22298576.887    22298583.9524
 01  5 15 17  9  0.0000000  0  7 30 06 04 05 24 09 10
  21312716.215    -8007632.067 9  -6229361.27347  21312716.443    21312721.1704
  23243564.182    -5360185.221 8  -4161954.23445  23243563.966    23243570.8464
  23515997.188     6823156.613 7   5295802.86845  23515997.243    23516003.3094
  20174299.915    -3425134.113 9  -2651990.83648  20174299.383    20174304.2764
  20953196.399     1490968.855 9   1160668.41547  20953196.164    20953201.7124
  23999542.049     6566375.673 8   5097907.37345  23999541.813    23999549.5394
  22282759.365    -8896023.187 8  -6909528.47946  22282758.517    22282765.5534
 01  5 15 17  9 30.0000000  0  7 30 06 04 05 24 09 10
  21300105.682    -8073900.783 9  -6280999.21747  21300105.904    21300110.6354
  23230904.419    -5426712.785 8  -4213793.85545  23230904.230    23230911.0054
  23534987.493     6922951.316 7   5373564.88445  23534987.577    23534993.7484
  20173651.157    -3428543.476 9  -2654647.48848  20173650.632    20173655.5064
  20962774.645     1541302.691 9   1199889.56247  20962774.413    20962779.9704
  24017660.201     6661586.276 8   5172097.29545  24017660.019    24017667.7124
  22267003.803    -8978818.828 8  -6974044.51346  22267002.985    22267010.0284
 01  5 15 17 10  0.0000000  0  7 30 06 04 05 24 09 10
  21287567.181    -8139790.976 9  -6332342.21047  21287567.404    21287572.1244
  23218254.681    -5493187.751 8  -4265592.48145  23218254.537    23218261.2114
  23553992.129     7022821.299 7   5451385.54045  23553992.271    23553998.5064
  20173100.347    -3431438.016 9  -2656902.98248  20173099.824    20173104.6964
  20972420.468     1591991.666 9   1239387.44147  20972420.226    20972425.7684
  24035782.281     6756817.691 8   5246303.41345  24035782.034    24035789.7874
  22251311.730    -9061281.088 8  -7038300.76846  22251310.898    22251317.9454
 01  5 15 17 10 30.0000000  0  7 30 06 04 05 24 09 10
  21275101.146    -8205300.458 9  -6383388.54547  21275101.364    21275106.0514
  23205614.905    -5559610.056 8  -4317350.07045  23205614.797    23205621.4634
  23573010.694     7122764.000 7   5529262.86645  23573010.734    23573017.0164
  20172647.618    -3433817.130 9  -2658756.84648  20172647.087    20172651.9624
  20982133.497     1643034.002 9   1279160.66047  20982133.261    20982138.8044
  24053907.826     6852067.363 8   5320523.77645  24053907.616    24053915.4034
  22235683.659    -9143406.824 8  -7102294.80046  22235682.817    22235689.8394
 01  5 15 17 11  0.0000000  0  7 30 06 04 05 24 09 10
  21262708.095    -8270426.495 9  -6434136.08747  21262708.303    21262712.9224
  23192985.271    -5625979.281 8  -4369066.29745  23192985.091    23192991.7584
  23592042.633     7222777.369 7   5607195.26445  23592042.758    23592048.9584
  20172293.195    -3435679.726 9  -2660208.22948  20172292.662    20172297.5394
  20991913.381     1694427.400 9   1319207.44247  20991913.141    20991918.6674
  24072036.343     6947332.546 8   5394756.20945  24072036.096    24072043.9364
  22220120.283    -9225192.472 8  -7166023.82946  22220119.462    22220126.4374
 01  5 15 17 11 30.0000000  0  7 30 06 04 05 24 09 10
  21250388.355    -8335167.263 9  -6484583.41847  21250388.552    21250393.1394
  23180365.615    -5692295.912 8  -4420741.54845  23180365.487    23180372.0474
  23611087.646     7322859.309 7   5685181.09445  23611087.684    23611094.0774
  20172037.166    -3437025.348 9  -2661256.78048  20172036.640    20172041.5084
  21001759.679     1746170.067 9   1359526.38047  21001759.444    21001764.9844
  24090167.175     7042609.957 8   5468998.17445  24090166.904    24090174.7854
  22204622.169    -9306635.166 8  -7229485.61746  22204621.351    22204628.3324
 01  5 15 17 12  0.0000000  0  7 30 06 04 05 24 09 10
  21238142.470    -8399519.932 9  -6534728.33647  21238142.670    21238147.2124
  23167756.078    -5758559.394 8  -4472375.38345  23167755.926    23167762.5494
  23630145.355     7423007.701 7   5763218.70145  23630145.371    23630151.8134
  20171879.674    -3437852.981 9  -2661901.70148  20171879.129    20171884.0264
  21011671.988     1798259.704 9   1400115.68147  21011671.772    21011677.3434
  24108299.818     7137897.286 8   5543247.86645  24108299.611    24108307.5654
  22189190.008    -9387731.547 8  -7292677.55246  22189189.174    22189196.1934
 01  5 15 17 12 30.0000000  0  7 30 06 04 05 24 09 10
  21225970.896    -8463481.987 9  -6584568.87547  21225971.086    21225975.6314
  23155156.705    -5824769.370 8  -4523967.52545  23155156.579    23155163.1724
  23649215.289     7523220.424 7   5841306.45145  23649215.299    23649221.6604
  20171820.922    -3438161.780 9  -2662142.33348  20171820.389    20171825.2634
  21021649.885     1850693.924 9   1440973.49447  21021649.665    21021655.2674
  24126433.859     7233191.837 8   5617503.18345  24126433.647    24126441.7104
  22173824.347    -9468478.437 8  -7355597.16346  22173823.501    22173830.5564
 01  5 15 17 13  0.0000000  0  7 30 06 04 05 24 09 10
  21213874.032    -8527051.295 9  -6634103.37947  21213874.221    21213878.7934
  23142567.462    -5890926.087 8  -4575518.16445  23142567.334    23142573.8934
  23668297.116     7623495.720 7   5919442.94245  23668297.169    23668303.4894
  20171861.018    -3437951.061 9  -2661978.14548  20171860.492    20171865.3474
  21031693.074     1903471.072 9   1482098.52147  21031692.852    21031698.4564
  24144568.700     7328490.746 8   5691761.90145  24144568.483    24144576.7114
  22158525.749    -9548872.957 8  -7418242.18946  22158524.873    22158531.9554
 01  5 15 17 13 30.0000000  0  7 30 06 04 05 24 09 10
  21201852.299    -8590225.573 9  -6683330.06447  21201852.503    21201857.1224
  23129988.413    -5957029.431 8  -4627027.21145  23129988.213    23129994.7354
  23687390.417     7723831.303 7   5997626.39845  23687390.540    23687396.7614
  20172000.069    -3437220.252 9  -2661408.69248  20171999.535    20172004.4164
  21041800.998     1956588.309 9   1523488.55247  21041800.754    21041806.3604
  24162703.805     7423790.991 8   5766021.65245  24162703.648    24162712.0094
  22143294.805    -9628911.837 8  -7480610.10746  22143293.937    22143301.0434
 01  5 15 17 14  0.0000000  0  7 30 06 04 05 24 09 10
  21189906.276    -8653002.148 9  -6732246.85447  21189906.493    21189911.1344
  23117419.529    -6023078.871 8  -4678494.25945  23117419.324    23117425.8524
  23706494.827     7824225.006 7   6075855.15945  23706494.965    23706501.2534
  20172238.297    -3435968.417 9  -2660433.24948  20172237.770    20172242.6744
  21051973.181     2010043.388 9   1565141.83747  21051972.952    21051978.5404
  24180838.792     7519090.269 8   5840280.64745  24180838.593    24180847.0784
  22128132.248    -9708591.486 8  -7542698.09946  22128131.383    22128138.4964
 01  5 15 17 14 30.0000000  0  7 30 06 04 05 24 09 10
  21178036.350    -8715378.884 9  -6780852.08347  21178036.570    21178041.2114
  23104860.780    -6089074.679 8  -4729919.53645  23104860.568    23104867.1524
  23725609.908     7924675.012 7   6154127.78645  23725610.111    23725616.2944
  20172575.715    -3434195.266 9  -2659051.58648  20172575.197    20172580.1024
  21062209.330     2063834.600 9   1607057.04247  21062209.106    21062214.6844
  24198972.930     7614385.433 8   5914536.43445  24198972.760    24198981.2864
  22113038.525    -9787909.154 8  -7604504.02646  22113037.683    22113044.7924
 01  5 15 17 15  0.0000000  0  7 30 06 04 05 24 09 10
  21166242.988    -8777353.225 9  -6829143.76047  21166243.215    21166247.8544
  23092312.379    -6155016.602 8  -4781302.80045  23092312.205    23092318.8224
  23744735.363     8025179.162 7   6232442.60845  23744735.432    23744741.8774
  20173012.537    -3431899.933 9  -2657263.02748  20173012.014    20173016.9374
  21072509.010     2117959.632 9   1649232.36647  21072508.796    21072514.3694
  24217105.828     7709673.980 8   5988787.07045  24217105.607    24217114.2464
  22098014.322    -9866861.819 8  -7666025.54246  22098013.484    22098020.5964
 01  5 15 17 15 30.0000000  0  7 30 06 04 05 24 09 10
  21154526.618    -8838923.049 9  -6877120.22547  21154526.846    21154531.4854
  23079774.276    -6220904.487 8  -4832643.97445  23079774.105    23079780.6644
  23763870.636     8125735.101 7   6310797.78345  23763870.714    23763877.1714
  20173548.802    -3429081.922 9  -2655067.18848  20173548.283    20173553.1824
  21082871.714     2172415.836 9   1691665.74547  21082871.492    21082877.0524
  24235236.988     7804952.845 8   6063030.14545  24235236.714    24235245.3874
  22083060.104    -9945446.429 8  -7727260.25546  22083059.276    22083066.3974
 01  5 15 17 16  0.0000000  0  7 30 06 04 05 24 09 10
  21142887.722    -8900085.935 9  -6924779.59547  21142887.933    21142892.5514
  23067246.538    -6286738.044 8  -4883942.81045  23067246.427    23067252.9654
  23783015.467     8226341.579 7   6389192.33845  23783015.551    23783021.9154
  20174184.666    -3425740.576 9  -2652463.55848  20174184.153    20174189.0254
  21093297.203     2227201.837 9   1734356.10747  21093296.974    21093302.5294
  24253365.789     7900219.614 8   6137263.79145  24253365.574    24253374.2294
  22068176.558   -10023659.667 8  -7788205.59646  22068175.750    22068182.8304
 01  5 15 17 16 30.0000000  0  7 30 06 04 05 24 09 10
  21131326.615    -8960839.993 9  -6972120.40347  21131326.827    21131331.4224
  23054729.173    -6352517.601 8  -4935199.57145  23054729.023    23054735.5834
  23802169.400     8326995.733 7   6467624.03745  23802169.481    23802175.9584
  20174920.167    -3421875.680 9  -2649451.96848  20174919.634    20174924.5104
  21103784.893     2282314.917 9   1777301.34347  21103784.654    21103790.2044
  24271491.704     7995471.173 8   6211485.59645  24271491.435    24271500.1644
  22053364.272   -10101498.567 8  -7848859.23846  22053363.454    22053370.5284
 01  5 15 17 17  0.0000000  0  7 30 06 04 05 24 09 10
  21119843.743    -9021182.898 9  -7019140.82347  21119843.956    21119848.5294
  23042222.090    -6418242.935 8  -4986414.07046  23042221.932    23042228.4684
  23821332.140     8427696.059 7   6546091.72045  23821332.195    23821338.7104
  20175755.364    -3417486.703 9  -2646031.99648  20175754.845    20175759.6964
  21114334.333     2337752.500 9   1820499.44047  21114334.091    21114339.6294
  24289614.281     8090705.120 8   6285693.67645  24289614.030    24289622.8724
  22038623.796   -10178960.047 8  -7909218.78346  22038622.979    22038630.0684
 01  5 15 17 17 30.0000000  0  7 30 06 04 05 24 09 10
  21108439.578    -9081112.185 9  -7065838.95147  21108439.791    21108444.3574
  23029725.300    -6483913.776 8  -5037586.10746  23029725.133    23029731.7554
  23840503.159     8528439.849 7   6624593.26945  23840503.153    23840509.7634
  20176690.477    -3412572.863 9  -2642203.04448  20176689.948    20176694.7794
  21124945.222     2393513.154 9   1863949.27947  21124944.985    21124950.5344
  24307732.917     8185918.752 8   6359885.92045  24307732.677    24307741.5964
  22023955.726   -10256041.154 8  -7969281.94046  22023954.893    22023961.9994
 01  5 15 17 18  0.0000000  0  7 30 06 04 05 24 09 10
  21097114.585    -9140625.382 9  -7112212.84947  21097114.811    21097119.3434
  23017239.004    -6549529.516 8  -5088715.20346  23017238.837    23017245.4984
  23859682.245     8629226.123 7   6703127.91845  23859682.245    23859688.8674
  20177725.657    -3407133.187 9  -2637964.34648  20177725.132    20177729.9734
  21135617.154     2449594.424 9   1907648.94447  21135616.927    21135622.4964
  24325847.273     8281109.496 8   6434060.31445  24325847.126    24325855.9674
  22009360.747   -10332738.259 8  -8029045.87346  22009359.917    22009366.9894
 01  5 15 17 18 30.0000000  0  7 30 06 04 05 24 09 10
  21085869.243    -9199720.239 9  -7158260.77247  21085869.456    21085873.9824
  23004763.110    -6615090.539 8  -5139801.66846  23004763.014    23004769.6294
  23878868.875     8730052.356 7   6781693.70445  23878868.933    23878875.5814
  20178860.857    -3401167.712 9  -2633315.93348  20178860.326    20178865.1904
  21146349.615     2505993.781 9   1951596.47547  21146349.397    21146354.9874
  24343956.711     8376274.353 8   6508214.54645  24343956.519    24343965.3884
  21994839.326   -10409048.918 8  -8088508.67446  21994838.500    21994845.5364
 01  5 15 17 19  0.0000000  0  7 30 06 04 05 24 09 10
  21074703.920    -9258394.331 9  -7203980.82847  21074704.146    21074708.6964
  22992297.679    -6680596.428 8  -5190845.18846  22992297.614    22992304.2154
  23898062.752     8830916.631 7   6860289.13945  23898062.776    23898069.4764
  20180096.262    -3394675.570 9  -2628257.13848  20180095.740    20180100.5984
  21157142.243     2562709.279 9   1995790.34647  21157142.005    21157147.6314
  24362060.708     8471410.798 8   6582346.62645  24362060.556    24362069.3724
  21980392.049   -10484969.896 8  -8147667.84046  21980391.222    21980398.1794
 01  5 15 17 19 30.0000000  0  7 30 06 04 05 24 09 10
  21063619.129    -9316645.269 9  -7249371.15147  21063619.350    21063623.9224
  22979842.855    -6746046.716 8  -5241845.36646  22979842.786    22979849.4224
  23917263.486     8931817.260 7   6938912.90645  23917263.463    23917270.4994
  20181432.023    -3387656.195 9  -2622787.51248  20181431.496    20181436.3574
  21167994.705     2619739.178 9   2040229.20147  21167994.472    21168000.0984
  24380158.878     8566516.364 8   6656454.63745  24380158.717    24380167.4204
  21966019.555   -10560497.878 8  -8206520.76846  21966018.742    21966025.6374
 01  5 15 17 20  0.0000000  0  7 30 06 04 05 24 09 10
  21052615.235    -9374471.121 9  -7294430.23847  21052615.468    21052620.0334
  22967398.600    -6811441.600 8  -5292802.38046  22967398.501    22967405.1174
  23936470.857     9032752.231 7   7017563.42645  23936470.816    23936477.9724
  20182868.124    -3380109.612 9  -2616907.07348  20182867.601    20182872.4814
  21178906.450     2677080.541 9   2084910.75747  21178906.198    21178911.8534
  24398250.622     8661588.129 8   6730536.31845  24398250.482    24398259.1214
  21951722.412   -10635630.041 8  -8265065.26546  21951721.589    21951728.4104
 01  5 15 17 20 30.0000000  0  7 30 06 04 05 24 09 10
  21041692.660    -9431869.762 9  -7339156.43747  21041692.869    21041697.4324
  22954964.926    -6876780.787 8  -5343715.99146  22954964.808    22954971.4604
  23955684.409     9133719.385 7   7096239.05345  23955684.415    23955691.4264
  20184404.641    -3372035.212 9  -2610615.34648  20184404.118    20184409.0214
  21189877.055     2734731.450 9   2129833.51647  21189876.823    21189882.4684
  24416335.399     8756623.295 7   6804589.47145  24416335.253    24416343.8614
  21937501.131   -10710363.355 8  -8323298.96446  21937500.295    21937507.0914
 01  5 15 17 21  0.0000000  0  7 30 06 04 05 24 09 10
  21030851.832    -9488838.513 9  -7383547.66147  21030852.054    21030856.6214
  22942541.928    -6942064.179 8  -5394586.13646  22942541.779    22942548.4044
  23974903.713     9234716.623 7   7174938.10045  23974903.709    23974910.6854
  20186041.623    -3363432.759 9  -2603912.16048  20186041.104    20186046.0064
  21200906.143     2792689.500 9   2174995.60247  21200905.918    21200911.5604
  24434412.650     8851619.272 8   6878612.09045  24434412.558    24434421.2084
  21923356.226   -10784695.106 8  -8381219.77146  21923355.407    21923362.1994
 01  5 15 17 21 30.0000000  0  7 30 06 04 05 24 09 10
  21020093.200    -9545375.453 9  -7427602.40347  21020093.422    21020097.9734
  22930129.602    -7007291.520 8  -5445412.60146  22930129.441    22930135.9214
  23994128.370     9335742.364 7   7253659.35545  23994128.360    23994135.4904
  20187779.183    -3354301.821 9  -2596797.15748  20187778.652    20187783.6014
  21211993.327     2850952.934 9   2220395.65747  21211993.093    21211998.7514
  24452481.974     8946573.457 8   6952602.12445  24452481.888    24452490.6444
  21909288.332   -10858622.171 8  -8438825.22847  21909287.516    21909294.3364
 01  5 15 17 22  0.0000000  0  7 30 06 04 05 24 09 10
  21009417.180    -9601478.242 9  -7471318.84847  21009417.393    21009421.9344
  22917727.934    -7072462.504 8  -5496195.14746  22917727.767    22917734.2644
  24013358.063     9436794.571 7   7332401.24045  24013358.028    24013365.3074
  20189617.391    -3344642.010 9  -2589270.04148  20189616.879    20189621.8364
  21223138.129     2909519.070 9   2266031.58447  21223137.887    21223143.5394
  24470542.891     9041483.295 8   7026557.61645  24470542.795    24470551.6054
  21895298.081   -10932141.338 8  -8496112.84447  21895297.281    21895304.0304
 01  5 15 17 22 30.0000000  0  7 30 06 04 05 24 09 10
  20998824.222    -9657144.563 9  -7514695.18147  20998824.436    20998828.9534
  22905337.078    -7137576.867 8  -5546933.56446  22905336.865    22905343.3864
  24032592.420     9537871.516 7   7411162.39545  24032592.263    24032599.6034
  20191556.259    -3334453.141 9  -2581330.67848  20191555.737    20191560.7074
  21234340.156     2968385.887 9   2311901.80847  21234339.932    21234345.5694
  24488594.933     9136346.308 8   7100476.61145  24488594.848    24488603.6684
  21881386.027   -11005249.578 8  -8553080.25747  21881385.222    21881391.9494
 01  5 15 17 23  0.0000000  0  7 30 06 04 05 24 09 10
  20988314.700    -9712372.513 9  -7557729.93547  20988314.912    20988319.4014
  22892956.932    -7202634.681 8  -5597627.93246  22892956.756    22892963.2204
  24051831.020     9638971.040 7   7489941.14645  24051830.863    24051838.2364
  20193595.875    -3323734.869 9  -2572978.79948  20193595.345    20193600.3254
  21245598.854     3027550.749 9   2358004.27747  21245598.638    21245604.2704
  24506637.465     9231159.361 8   7174356.68645  24506637.388    24506646.2674
  21867552.655   -11077944.394 8  -8609725.52747  21867551.819    21867558.5124
 01  5 15 17 23 30.0000000  0  7 30 06 04 05 24 09 10
  20977889.000    -9767159.795 9  -7600421.30547  20977889.200    20977893.6874
  22880587.605    -7267635.611 8  -5648277.96346  22880587.449    22880593.8694
  24071073.630     9740090.929 7   7568735.76445  24071073.452    24071080.7944
  20195736.362    -3312486.550 9  -2564213.89048  20195735.833    20195740.8424
  21256913.998     3087012.155 9   2404337.82047  21256913.755    21256919.4504
  24524670.032     9325920.013 8   7248195.91245  24524669.884    24524678.8554
  21853798.499   -11150222.531 8  -8666046.11547  21853797.641    21853804.3694
 01  5 15 17 24  0.0000000  0  7 30 06 04 05 24 09 10
  20967547.595    -9821504.090 9  -7642767.49147  20967547.799    20967552.2774
  22868229.271    -7332579.167 8  -5698883.29646  22868229.144    22868235.4594
  24090319.992     9841230.337 7   7647545.59845  24090319.639    24090327.1824
  20197977.762    -3300707.894 9  -2555035.73248  20197977.231    20197982.2504
  21268285.065     3146767.415 9   2450900.33647  21268284.823    21268290.5254
  24542692.223     9420625.894 8   7321992.46245  24542692.028    24542701.1024
  21840124.228   -11222081.053 8  -8722039.72347  21840123.367    21840130.1324
 01  5 15 17 24 30.0000000  0  7 30 06 04 05 24 09 10
  20957290.879    -9875403.388 9  -7684766.93147  20957291.089    20957295.5594
  22855881.841    -7397465.543 8  -5749444.06246  22855881.692    22855888.0064
  24109569.443     9942386.479 7   7726368.46445  24109569.282    24109576.6324
  20200320.062    -3288399.234 9  -2545444.58948  20200319.540    20200324.5524
  21279711.590     3206814.175 9   2497689.99347  21279711.342    21279717.0694
  24560703.333     9515273.544 8   7395743.62845  24560703.049    24560712.2124
  21826530.291   -11293517.348 8  -8777704.33247  21826529.438    21826536.1874
 01  5 15 17 25  0.0000000  0  7 30 06 04 05 24 09 10
  20947119.400    -9928854.827 9  -7726417.38847  20947119.611    20947124.0754
  22843545.556    -7462293.772 8  -5799959.52746  22843545.402    22843551.5914
  24128821.758    10043558.029 7   7805203.34445  24128821.694    24128828.9504
  20202763.448    -3275559.419 9  -2535439.55348  20202762.918    20202767.9154
  21291193.348     3267151.025 9   2544705.69647  21291193.114    21291198.8354
  24578702.951     9609861.114 8   7469447.97945  24578702.678    24578711.8384
  21813017.390   -11364527.870 8  -8833037.16347  21813016.543    21813023.2994
 01  5 15 17 25 30.0000000  0  7 30 06 04 05 24 09 10
  20937033.440    -9981856.817 9  -7767717.62647  20937033.653    20937038.1234
  22831220.252    -7527064.147 8  -5850429.90146  22831220.105    22831226.2254
  24148076.686    10144743.226 7   7884048.84545  24148076.784    24148083.8814
  20205307.820    -3262188.707 9  -2525020.83448  20205307.287    20205312.2774
  21302729.709     3327775.087 9   2591945.20047  21302729.487    21302735.2104
  24596690.647     9704385.887 8   7543103.39445  24596690.355    24596699.6134
  21799585.990   -11435110.099 8  -8888036.26647  21799585.181    21799591.9104
 01  5 15 17 26  0.0000000  0  7 30 06 04 05 24 09 10
  20927033.428   -10034407.185 9  -7808665.95347  20927033.656    20927038.1304
  22818905.963    -7591776.356 8  -5900854.96546  22818905.800    22818911.8444
  24167333.729    10245939.723 7   7962903.14845  24167333.873    24167340.8274
  20207953.294    -3248286.813 9  -2514188.20448  20207952.775    20207957.7414
  21314320.429     3388684.544 9   2639407.09247  21314320.193    21314325.9544
  24614665.841     9798845.235 8   7616707.82445  24614665.531    24614674.8804
  21786236.702   -11505261.120 8  -8942699.35747  21786235.883    21786242.5694
 01  5 15 17 26 30.0000000  0  7 30 06 04 05 24 09 10
  20917119.892   -10086503.140 9  -7849260.19247  20917120.119    20917124.6104
  22806602.842    -7656429.463 8  -5951233.95846  22806602.708    22806608.7914
  24186592.825    10347146.559 7   8041765.54145  24186593.030    24186599.9864
  20210699.995    -3233853.059 9  -2502941.14148  20210699.464    20210704.3864
  21325965.127     3449877.764 9   2687090.09747  21325964.892    21325970.6504
  24632628.199     9893237.252 8   7690259.79345  24632627.927    24632637.3454
  21772970.105   -11574977.624 8  -8997023.86647  21772969.287    21772975.9504
 01  5 15 17 27  0.0000000  0  7 30 06 04 05 24 09 10
  20907293.134   -10138142.943 9  -7889498.98647  20907293.382    20907297.8794
  22794310.886    -7721023.759 8  -6001567.14546  22794310.747    22794316.8664
  24205853.423    10448361.704 7   8120634.39144  24205853.477    24205860.6064
  20213547.780    -3218887.948 9  -2491280.03248  20213547.252    20213552.1744
  21337663.170     3511351.283 9   2734991.51647  21337662.933    21337668.7234
  24650577.069     9987558.541 8   7763756.64345  24650576.770    24650586.3104
  21759786.640   -11644257.075 8  -9051007.80947  21759785.814    21759792.4774
 01  5 15 17 27 30.0000000  0  7 30 06 04 05 24 09 10
  20897553.579   -10189324.591 9  -7929380.77647  20897553.815    20897558.3194
  22782030.165    -7785559.031 8  -6051854.32746  22782030.009    22782036.1374
  24225115.045    10549582.584 7   8199507.70444  24225115.182    24225122.4554
  20216496.737    -3203391.172 9  -2479204.64148  20216496.211    20216501.1274
  21349414.203     3573103.368 9   2783109.99747  21349413.958    21349419.7664
  24668512.052    10081806.826 7   7837196.60645  24668511.804    24668521.4244
  21746686.858   -11713096.852 8  -9104649.15747  21746686.023    21746692.6994
 01  5 15 17 28  0.0000000  0  7 30 06 04 05 24 09 10
  20887901.723   -10240045.659 9  -7968903.67347  20887901.956    20887906.4154
  22769760.813    -7850034.682 8  -6102095.05446  22769760.663    22769766.7604
  24244377.574    10650808.413 7   8278384.87244  24244377.707    24244385.0804
  20219546.903    -3187362.472 9  -2466714.76248  20219546.389    20219551.3284
  21361217.894     3635132.015 9   2831443.98247  21361217.647    21361223.4534
  24686432.748    10175979.587 8   7910577.70245  24686432.538    24686442.2674
  21733671.358   -11781493.675 8  -9157945.34347  21733670.523    21733677.1954
 01  5 15 17 28 30.0000000  0  7 30 06 04 05 24 09 10
  20878337.836   -10290304.310 9  -8008066.24647  20878338.067    20878342.4614
  22757502.838    -7914450.774 8  -6152289.37446  22757502.689    22757508.8004
  24263640.704    10752037.058 7   8357264.24844  24263640.911    24263648.6444
  20222698.219    -3170802.041 9  -2453810.55048  20222697.698    20222702.6514
  21373073.748     3697434.819 9   2879991.60147  21373073.509    21373079.3034
  24704338.575    10270074.078 8   7983897.82345  24704338.372    24704348.1374
  21720740.660   -11849444.998 8  -9210894.38247  21720739.805    21720746.4824
 01  5 15 17 29  0.0000000  0  7 30 06 04 05 24 09 10
  20868862.291   -10340098.907 9  -8046867.21747  20868862.507    20868866.8594
  22745256.144    -7978807.441 8  -6202437.39046  22745255.997    22745262.0884
  24282903.989    10853266.102 7   8436143.92944  24282904.017    24282911.9054
  20225950.700    -3153710.118 9  -2440492.18248  20225950.196    20225955.1634
  21384981.289     3760009.217 9   2928750.84347  21384981.046    21384986.8384
  24722229.002    10364087.549 8   8057154.80345  24722228.746    24722238.5994
  21707895.145   -11916948.377 8  -9263494.37847  21707894.288    21707900.9694
 01  5 15 17 29 30.0000000  0  7 30 06 04 05 24 09 10
  20859475.439   -10389427.107 9  -8085304.76247  20859475.646    20859480.0234
  22733020.847    -8043104.091 8  -6252538.65046  22733020.657    22733026.7414
  24302167.105    10954493.900 7   8515022.61744  24302166.988    24302175.1494
  20229304.413    -3136086.460 9  -2426759.48048  20229303.904    20229308.8744
  21396940.123     3822853.310 9   2977720.23847  21396939.877    21396945.7134
  24740103.499    10458017.262 8   8130346.51345  24740103.212    24740113.1544
  21695135.437   -11984000.878 8  -9315743.03947  21695134.571    21695141.2494
 01  5 15 17 30  0.0000000  0  7 30 06 04 05 24 09 10
  20850177.743   -10438286.627 9  -8123377.10447  20850177.952    20850182.3474
  22720797.054    -8107340.433 8  -6302592.90746  22720796.870    22720802.8944
  24321429.815    11055719.101 7   8593899.28244  24321429.844    24321437.7664
  20232759.334    -3117930.863 9  -2412612.27848  20232758.813    20232763.7844
  21408949.839     3885964.694 9   3026897.91347  21408949.602    21408955.4284
  24757961.530    10551860.596 8   8203470.91245  24757961.289    24757971.1724
  21682462.026   -12050599.894 8  -9367638.33647  21682461.185    21682467.8654
 01  5 15 17 30 30.0000000  0  7 30 06 04 05 24 09 10
  20840969.700   -10486675.032 9  -8161082.34447  20840969.917    20840974.3304
  22708584.908    -8171515.413 8  -6352599.34946  22708584.734    22708590.7754
  24340691.762    11156940.373 7   8672772.91444  24340691.570    24340699.6524
  20236315.519    -3099242.974 9  -2398050.30648  20236315.001    20236319.9604
  21421010.068     3949341.615 9   3076282.50247  21421009.843    21421015.6794
  24775802.809    10645615.932 8   8276526.74345  24775802.608    24775812.5314
  21669875.549   -12116742.059 8  -9419177.64047  21669874.708    21669881.4184
 01  5 15 17 31  0.0000000  0  7 30 06 04 05 24 09 10
  20831851.563   -10534591.134 9  -8198419.55447  20831851.779    20831856.2134
  22696384.364    -8235629.560 8  -6402558.38546  22696384.191    22696390.2574
  24359952.392    11258155.188 7   8751641.51944  24359952.335    24359959.9854
  20239972.886    -3080023.484 9  -2383074.10148  20239972.369    20239977.3574
  21433120.439     4012981.690 9   3125872.14347  21433120.230    21433126.0164
  24793626.596    10739279.919 7   8349511.38945  24793626.340    24793636.4874
  21657376.422   -12182425.147 8  -9470359.22747  21657375.571    21657382.2694
 01  5 15 17 31 30.0000000  0  7 30 06 04 05 24 09 10
  20822823.875   -10582031.930 9  -8235386.40047  20822824.099    20822828.5334
  22684195.577    -8299681.888 8  -6452469.25746  22684195.428    22684201.4494
  24379211.656    11359362.756 7   8830504.46644  24379211.612    24379219.2054
  20243731.579    -3060271.451 9  -2367682.92848  20243731.067    20243736.0674
  21445280.519     4076883.109 9   3175665.42847  21445280.291    21445286.0574
  24811432.666    10832850.677 7   8422423.37645  24811432.472    24811442.7114
  21644965.359   -12247645.744 8  -9521180.42647  21644964.503    21644971.1844
 01  5 15 17 32  0.0000000  0  7 30 06 04 05 24 09 10
  20813886.936   -10628995.785 9  -8271981.60247  20813887.156    20813891.6244
  22672018.554    -8363672.461 8  -6502332.01146  22672018.379    22672024.4534
  24398469.005    11460560.450 7   8909359.71944  24398468.671    24398476.5824
  20247591.485    -3039987.760 9  -2351877.47548  20247590.964    20247595.9684
  21457489.820     4141043.277 9   3225660.33647  21457489.609    21457495.3144
  24829220.481    10926325.295 8   8495260.46245  24829220.209    24829230.5974
  21632642.666   -12312401.690 8  -9571639.55947  21632641.814    21632648.4494
 01  5 15 17 32 30.0000000  0  7 30 06 04 05 24 09 10
  20805041.159   -10675480.570 9  -8308203.50347  20805041.380    20805045.9044
  22659853.352    -8427600.686 8  -6552146.17046  22659853.210    22659859.3104
  24417724.369    11561747.205 7   8988206.46244  24417724.151    24417731.9374
  20251552.584    -3019172.093 9  -2335657.49848  20251552.052    20251557.0914
  21469747.998     4205460.105 9   3275855.23247  21469747.783    21469753.4554
  24846989.549    11019701.491 7   8568020.84845  24846989.247    24846999.7324
  21620409.008   -12376689.886 8  -9621734.21547  21620408.163    21620414.7504
 01  5 15 17 33  0.0000000  0  8 30 06 04 05 24 17 09 10
  20796286.729   -10721485.253 9  -8344051.29847  20796286.970    20796291.5284
  22647699.817    -8491467.423 8  -6601912.41746  22647699.674    22647705.8604
  24436977.148    11662920.263 7   9067042.52044  24436976.973    24436984.5804
  20255614.708    -2997825.541 9  -2319023.84048  20255614.200    20255619.2274
  21482054.392     4270130.363 9   3326247.61547  21482054.163    21482059.7814
  25015005.485    -2011437.510 7  -1550730.34345  25015005.452    25015017.2614
  24864739.283    11112975.913 7   8640701.92945  24864738.969    24864749.6064
  21608264.630   -12440508.786 8  -9671463.18047  21608263.810    21608270.3514
 01  5 15 17 33 30.0000000  0  8 30 06 04 05 24 17 09 10
  20787624.055   -10767007.911 9  -8379523.49047  20787624.297    20787628.8394
  22635558.145    -8555271.842 8  -6651630.11646  22635558.000    22635564.2204
  24456227.081    11764078.597 7   9145867.08444  24456226.985    24456234.6324
  20259777.950    -2975947.763 9  -2301976.24448  20259777.428    20259782.4534
  21494408.804     4335053.014 9   3376836.66047  21494408.570    21494414.1624
  24996911.607    -2106521.822 7  -1624821.86045  24996910.999    24996923.1754
  24882469.199    11206146.289 7   8713301.93245  24882468.934    24882479.6704
  21596210.181   -12503855.421 8  -9720824.14947  21596209.346    21596215.8654
 01  5 15 17 34  0.0000000  0  8 30 06 04 05 24 17 09 10
  20779053.752   -10812045.296 9  -8414617.55048  20779053.990    20779058.5184
  22623428.655    -8619012.698 8  -6701298.27246  22623428.466    22623434.7184
  24475474.045    11865220.920 7   9224679.20644  24475473.952    24475481.5154
  20264042.435    -2953537.885 9  -2284514.02448  20264041.916    20264046.9464
  21506810.757     4400225.497 9   3427620.37747  21506810.535    21506816.1264
  24978840.946    -2201483.459 7  -1698817.80545  24978840.139    24978852.5414
  24900179.025    11299210.951 7   8785819.55045  24900178.654    24900189.5474
  21584246.264   -12566726.284 8  -9769814.38547  21584245.418    21584251.8914
 01  5 15 17 34 30.0000000  0  8 30 06 04 05 24 17 09 10
  20770576.161   -10856595.387 9  -8449331.89948  20770576.399    20770580.8924
  22611311.352    -8682689.564 8  -6750916.56746  22611311.165    22611317.3614
  24494717.520    11966345.591 7   9303477.55244  24494717.360    24494724.9754
  20268408.088    -2930596.235 9  -2266637.43448  20268407.563    20268412.6084
  21519259.980     4465646.305 9   3478597.60347  21519259.736    21519265.3154
  24960793.825    -2296321.181 7  -1772717.18745  24960793.202    24960805.1594
  24917868.280    11392167.466 7   8858252.91645  24917868.007    24917878.8024
  21572373.409   -12629118.542 8  -9818431.68347  21572372.567    21572379.0144
 01  5 15 17 35  0.0000000  0  8 30 06 04 05 24 17 09 10
  20762191.729   -10900655.993 9  -8483664.83048  20762191.974    20762196.4254
  22599206.359    -8746301.827 8  -6800484.52046  22599206.165    22599212.3044
  24513957.458    12067451.481 7   9382261.28644  24513957.511    24513965.0414
  20272875.007    -2907122.613 9  -2248346.31748  20272874.471    20272879.5164
  21531756.072     4531313.471 9   3529766.78847  21531755.826    21531761.4054
  24942770.583    -2391033.575 7  -1846518.90345  24942770.119    24942781.8414
  24935536.541    11485013.726 7   8930600.34145  24935536.327    24935547.2184
  21560592.162   -12691029.214 8  -9866673.71647  21560591.313    21560597.7314
 01  5 15 17 35 30.0000000  0  8 30 06 04 05 24 17 09 10
  20753900.688   -10944225.823 9  -8517615.34048  20753900.923    20753905.3454
  22587113.621    -8809849.661 8  -6850002.27746  22587113.437    22587119.4884
  24533193.399    12168536.543 7   9461028.75644  24533193.213    24533201.0184
  20277442.961    -2883117.964 9  -2229641.41648  20277442.439    20277447.4664
  21544298.520     4597224.333 9   3581125.87347  21544298.253    21544303.8514
  24924771.288    -2485619.914 7  -1920222.37945  24924770.880    24924782.5774
  24953183.334    11577746.812 7   9002859.58945  24953183.060    24953193.7804
  21548902.927   -12752456.522 8  -9914539.10847  21548902.076    21548908.4764
 01  5 15 17 36  0.0000000  0  8 30 06 04 05 24 17 09 10
  20745703.237   -10987303.897 9  -8551182.66348  20745703.468    20745707.8464
  22575032.950    -8873333.962 8  -6899470.52746  22575032.780    22575038.7994
  24552424.860    12269597.588 7   9539777.53444  24552424.909    24552432.2074
  20282111.731    -2858583.573 9  -2210523.73348  20282111.197    20282116.2044
  21556886.716     4663375.512 9   3632672.21547  21556886.458    21556892.0594
  24906796.008    -2580080.146 7  -1993827.60445  24906795.605    24906807.1474
  24970807.763    11670362.555 7   9075027.41145  24970807.459    24970818.2384
  21537305.946   -12813398.886 8  -9962026.61947  21537305.104    21537311.4694
 01  5 15 17 36 30.0000000  0  8 30 06 04 05 24 17 09 10
  20737599.976   -11029886.994 9  -8584364.29048  20737600.198    20737604.5514
  22562964.754    -8936752.768 8  -6948887.73046  22562964.594    22562970.5474
  24571651.763    12370635.005 7   9618507.87944  24571651.990    24571659.2234
  20286881.553    -2833518.118 9  -2190992.23148  20286881.014    20286886.0364
  21569520.542     4729766.600 9   3684405.49847  21569520.282    21569525.8974
  24888845.314    -2674411.656 7  -2067332.51545  24888844.891    24888856.2794
  24988409.801    11762860.604 7   9147103.50545  24988409.454    24988420.2874
  21525802.035   -12873852.129 8 -10009133.00047  21525801.198    21525807.5604
 01  5 15 17 37  0.0000000  0  8 30 06 04 05 24 17 09 10
  20729591.245   -11071973.142 9  -8617158.68548  20729591.463    20729595.8204
  22550909.079    -9000105.658 8  -6998253.57946  22550908.930    22550914.8584
  24590873.735    12471646.818 7   9697218.30744  24590873.843    24590881.3204
  20291752.405    -2807921.708 9  -2171046.99648  20291751.872    20291756.8984
  21582199.617     4796395.569 9   3736324.13647  21582199.344    21582204.9884
  24870919.313    -2768612.963 7  -2140735.97445  24870919.031    24870930.1274
  25005988.936    11855238.293 7   9219085.82545  25005988.554    25005999.5094
  21514391.629   -12933813.857 8 -10055856.37947  21514390.787    21514397.1494
 01  5 15 17 37 30.0000000  0  7 30 06 05 24 17 09 10
  20721677.429   -11113560.306 9  -8649564.26548  20721677.661    20721682.0284
  22538866.062    -9063392.195 8  -7047567.72946  22538865.848    22538871.8024
  20296724.195    -2781794.785 9  -2150688.37748  20296723.671    20296728.7264
  21594923.443     4863259.651 9   3788425.97447  21594923.176    21594928.8434
  24853018.283    -2862683.226 7  -2214037.31845  24853017.844    24853029.1194
  25023544.658    11947493.305 7   9290972.51345  25023544.280    25023555.3284
  21503075.219   -12993281.717 8 -10102194.93047  21503074.372    21503080.7544
 01  5 15 17 38  0.0000000  0  6 30 06 05 24 17 10
  20713859.386   -11154644.370 9  -8681577.81248  20713859.623    20713863.9914
  22526836.099    -9126609.869 8  -7096828.21146  22526835.896    22526841.8344
  20301797.295    -2755135.452 9  -2129914.89048  20301796.759    20301801.8684
  21607692.033     4930358.953 9   3840711.10247  21607691.796    21607697.4854
  24835142.882    -2956618.934 7  -2287233.84245  24835142.279    24835153.5274
  21491853.762   -13052250.733 8 -10148144.76447  21491852.910    21491859.3024
 01  5 15 17 38 30.0000000  0  6 30 06 05 24 17 10
  20706137.044   -11195225.463 9  -8713199.43848  20706137.259    20706141.6694
  22514819.013    -9189760.030 8  -7146036.09546  22514818.815    22514824.7684
  20306971.333    -2727945.742 9  -2108728.12448  20306970.807    20306975.9504
  21620504.677     4997689.684 9   3893176.57747  21620504.446    21620510.1444
  24817292.959    -3050420.657 7  -2360325.95045  24817292.336    24817303.5444
  21480727.406   -13110719.977 8 -10193705.17047  21480726.542    21480732.9474
 01  5 15 17 39  0.0000000  0  6 30 06 05 24 17 10
  20698510.404   -11235303.770 9  -8744429.28148  20698510.629    20698515.0334
  22502814.422    -9252844.150 8  -7195192.51346  22502814.226    22502820.2084
  20312245.836    -2700228.103 9  -2087129.98748  20312245.315    20312250.4904
  21633360.647     5065248.079 9   3945819.45047  21633360.426    21633366.1394
  24799468.350    -3144089.283 7  -2433314.36045  24799467.776    24799478.9214
  21469696.153   -13168689.333 8 -10238876.06347  21469695.269    21469701.6774
 01  5 15 17 39 30.0000000  0  6 30 06 05 24 17 10
  20690979.982   -11274876.423 9  -8775265.11248  20690980.192    20690984.5894
  22490822.680    -9315861.001 8  -7244296.52246  22490822.497    22490828.4864
  20317620.932    -2671981.942 9  -2065120.01348  20317620.394    20317625.5984
  21646259.605     5133032.504 9   3998638.44247  21646259.366    21646265.1034
  24781669.487    -3237622.732 7  -2506197.42645  24781668.858    24781680.0124
  21458760.711   -13226155.182 8 -10283654.61247  21458759.860    21458766.2554
 01  5 15 17 40  0.0000000  0  6 30 06 05 24 17 10
  20683546.127   -11313941.568 9  -8805705.47948  20683546.329    20683550.7364
  22478843.875    -9378810.204 8  -7293347.81946  22478843.700    22478849.6304
  20323096.554    -2643207.449 9  -2042698.35248  20323096.023    20323101.2024
  21659201.155     5201040.673 9   4051631.78347  21659200.927    21659206.6584
  24763896.484    -3331019.579 7  -2578974.04445  24763895.892    24763907.1494
  21447921.554   -13283115.017 8 -10328038.86047  21447920.713    21447927.1294
 01  5 15 17 40 30.0000000  0  6 30 06 05 24 17 10
  20676209.125   -11352497.573 9  -8835749.11848  20676209.338    20676213.7914
  22466878.049    -9441691.235 8  -7342345.99046  22466877.854    22466883.7644
  20328672.608    -2613905.258 9  -2019865.50548  20328672.083    20328677.2534
  21672184.942     5269270.887 8   4104798.14447  21672184.719    21672190.4914
  24746149.670    -3424279.117 7  -2651643.68645  24746148.948    24746160.3644
  21437179.144   -13339566.686 8 -10372027.14447  21437178.300    21437184.7214
 01  5 15 17 41  0.0000000  0  6 30 06 05 24 17 10
  20668969.486   -11390542.079 9  -8865394.18648  20668969.700    20668974.1824
  22454925.395    -9504502.953 8  -7391290.15146  22454925.209    22454931.0994
  20334349.089    -2584075.316 9  -1996621.41748  20334348.563    20334353.7224
  21685210.648     5337721.321 8   4158136.10547  21685210.421    21685216.2074
  24728429.379    -3517399.612 7  -2724204.97245  24728428.845    24728439.8084
  21426534.051   -13395507.091 8 -10415617.03347  21426533.190    21426539.6094
 01  5 15 17 41 30.0000000  0  6 30 06 05 24 17 10
  20661827.463   -11428073.801 9  -8894639.68148  20661827.674    20661832.1364
  22442985.862    -9567245.554 8  -7440180.45246  22442985.684    22442991.5724
  20340125.799    -2553718.590 9  -1972966.85248  20340125.284    20340130.4054
  21698277.807     5406389.337 8   4211643.61247  21698277.575    21698283.3444
  24710735.674    -3610380.346 7  -2796657.34245  24710735.184    24710745.9704
  21415986.517   -13450934.625 8 -10458807.28647  21415985.652    21415992.0664
 01  5 15 17 42  0.0000000  0  6 30 06 05 24 17 10
  20654783.339   -11465090.978 9  -8923484.23248  20654783.551    20654787.9684
  22431059.636    -9629918.321 8  -7489016.34046  22431059.461    22431065.3094
  20346002.772    -2522835.249 9  -1948901.93848  20346002.246    20346007.3264
  21711385.987     5475273.215 8   4265319.32047  21711385.760    21711391.5364
  24693068.785    -3703220.021 7  -2868999.80045  24693068.434    24693079.1404
  21405537.048   -13505846.565 8 -10501595.77947  21405536.186    21405542.6094
 01  5 15 17 42 30.0000000  0  6 30 06 05 24 17 10
  20647837.547   -11501591.432 9  -8951926.14048  20647837.749    20647842.1404
  22419146.799    -9692520.596 8  -7537797.29546  22419146.667    22419152.4764
  20351979.886    -2491425.587 9  -1924426.90748  20351979.368    20351984.4124
  21724534.866     5544370.763 8   4319161.52647  21724534.638    21724540.4494
  24675428.953    -3795917.178 7  -2941231.21145  24675428.537    24675439.2094
  21395186.184   -13560240.616 8 -10543980.72847  21395185.331    21395191.7354
 01  5 15 17 43  0.0000000  0  6 30 06 05 24 17 10
  20640990.416   -11537573.238 9  -8979963.90748  20640990.629    20640994.9884
  22407247.464    -9755051.882 8  -7586522.94046  22407247.296    22407253.1134
  20358057.053    -2459490.001 9  -1899542.06248  20358056.531    20358061.5554
  21737724.043     5613680.259 8   4373168.88547  21737723.797    21737729.6484
  24657816.466    -3888470.678 7  -3013350.67545  24657815.929    24657826.6674
  21384934.422   -13614113.940 8 -10585959.91347  21384933.549    21384939.9454
 01  5 15 17 43 30.0000000  0  6 30 06 05 24 17 10
  20634242.187   -11573035.550 9  -9007596.87648  20634242.401    20634246.7274
  22395361.608    -9817512.191 8  -7635193.27446  22395361.434    22395367.2914
  20364234.049    -2427029.732 9  -1874248.37748  20364233.524    20364238.5444
  21750952.955     5683198.642 8   4427339.00947  21750952.709    21750958.5974
  24640231.400    -3980879.973 7  -3085357.77745  24640230.893    24640241.5344
  21374782.028   -13667464.798 8 -10627531.98447  21374781.187    21374787.5714
 01  5 15 17 44  0.0000000  0  6 30 06 05 24 17 10
  20627593.277   -11607975.737 9  -9034822.99348  20627593.494    20627597.8104
  22383489.466    -9879900.379 8  -7683807.41846  22383489.293    22383495.2024
  20370510.969    -2394044.501 9  -1848545.63048  20370510.449    20370515.4474
  21764221.369     5752924.555 8   4481670.84447  21764221.123    21764227.0594
  24622674.208    -4073143.357 7  -3157251.18145  24622673.698    24622684.3184
  21364729.608   -13720290.443 9 -10668694.80047  21364728.786    21364735.1324
 01  5 15 17 44 30.0000000  0  6 30 06 05 24 17 10
  20621043.965   -11642392.633 9  -9061641.35248  20621044.178    20621048.5114
  22371631.052    -9942216.334 8  -7732365.27846  22371630.892    22371636.8474
  20376887.660    -2360535.087 9  -1822434.43048  20376887.134    20376892.1234
  21777528.854     5822855.655 8   4536162.56447  21777528.601    21777534.5274
  24605144.958    -4165259.931 7  -3229030.19145  24605144.403    24605155.1014
  21354777.570   -13772588.850 9 -10709446.78247  21354776.766    21354783.0664
 01  5 15 17 45  0.0000000  0  6 30 06 05 24 17 10
  20614594.568   -11676284.236 9  -9088050.39448  20614594.783    20614599.1434
  22359786.590   -10004459.291 8  -7780866.25546  22359786.442    22359792.3624
  20383364.006    -2326501.758 9  -1795914.98148  20383363.471    20383368.4844
  21790875.125     5892990.539 8   4590813.08647  21790874.861    21790880.8044
  24587643.816    -4257228.403 7  -3300693.80245  24587643.279    24587653.9034
  21344926.351   -13824357.330 9 -10749785.83347  21344925.545    21344931.7974
 01  5 15 17 45 30.0000000  0  6 30 06 05 24 17 10
  20608245.280   -11709649.952 9  -9114049.65448  20608245.489    20608249.8804
  22347955.885   -10066629.949 8  -7829310.89546  22347955.732    22347961.6544
  20389939.720    -2291946.319 9  -1768988.69448  20389939.189    20389944.2134
  21804259.461     5963325.599 8   4645619.59447  21804259.215    21804265.1414
  24570170.887    -4349048.765 7  -3372241.99345  24570170.265    24570181.0344
  21335176.145   -13875595.012 9 -10789711.27647  21335175.325    21335181.5594
 01  5 15 17 46  0.0000000  0  6 30 06 05 24 17 10
  20601996.607   -11742486.932 9  -9139636.90948  20601996.814    20602001.2184
  22336139.284   -10128726.494 8  -7877697.78246  22336139.103    22336144.9974
  20396614.851    -2256868.283 9  -1741655.18848  20396614.318    20396619.3374
  21817681.704     6033859.837 8   4700581.30547  21817681.463    21817687.4334
  24552726.556    -4440718.748 7  -3443673.01645  24552726.012    24552736.7134
  21325527.643   -13926298.270 9 -10829220.27847  21325526.825    21325533.0234
 01  5 15 17 46 30.0000000  0  6 30 06 05 24 17 10
  20595848.795   -11774793.792 9  -9164811.08248  20595849.010    20595853.4104
  22324336.900   -10190748.421 8  -7926026.52946  22324336.734    22324342.5704
  20403389.284    -2221268.499 9  -1713915.12748  20403388.748    20403393.7854
  21831141.410     6104590.992 8   4755696.45447  21831141.175    21831147.1814
  24535311.042    -4532237.426 7  -3514986.13845  24535310.458    24535321.1794
  21315981.282   -13976464.909 9 -10868311.14347  21315980.454    21315986.6334
 01  5 15 17 47  0.0000000  0  6 30 06 05 24 17 10
  20589802.030   -11806569.668 9  -9189571.50248  20589802.247    20589806.6644
  22312548.695   -10252695.854 8  -7974297.22646  22312548.514    22312554.3264
  20410262.758    -2185148.081 9  -1685769.37548  20410262.249    20410267.3024
  21844638.178     6175516.934 8   4810963.38047  21844637.941    21844643.9864
  24517924.425    -4623604.201 7  -3586180.87645  24517923.805    24517934.4544
  21306537.267   -14026093.661 9 -10906982.86947  21306536.402    21306542.5564
 01  5 15 17 47 30.0000000  0  6 30 06 05 24 17 10
  20583856.791   -11837812.227 9  -9213916.35248  20583857.022    20583861.4114
  22300774.850   -10314567.573 8  -8022508.92846  22300774.645    22300780.5174
  20417235.298    -2148507.197 9  -1657218.06648  20417234.782    20417239.8534
  21858171.721     6246635.897 8   4866380.71747  21858171.483    21858177.5294
  24500566.960    -4714817.637 7  -3657256.13645  24500566.282    24500576.9544
  21297196.123   -14075181.760 9 -10945233.31347  21297195.249    21297201.3794
 01  5 15 17 48  0.0000000  0  6 30 06 05 24 17 10
  20578013.265   -11868520.174 9  -9237844.62448  20578013.478    20578017.8924
  22289015.482   -10376363.291 8  -8070661.41446  22289015.316    22289021.1904
  20424306.733    -2111346.573 9  -1628261.77048  20424306.207    20424311.3314
  21871741.589     6317945.980 8   4921946.98747  21871741.368    21871747.4424
  24483238.853    -4805876.633 7  -3728211.05645  24483238.287    24483248.9314
  21287958.221   -14123727.227 9 -10983060.93147  21287957.374    21287963.4514
 01  5 15 17 48 30.0000000  0  6 30 06 05 24 17 10
  20572271.861   -11898691.668 9  -9261354.87748  20572272.082    20572276.4774
  22277270.729   -10438082.227 8  -8118754.05646  22277270.557    22277276.4524
  20431476.970    -2073666.765 9  -1598900.90948  20431476.433    20431481.6014
  21885347.408     6389444.811 8   4977660.33747  21885347.159    21885353.2514
  24465940.338    -4896779.988 7  -3799044.69445  24465939.843    24465950.3384
  21278824.026   -14171727.826 9 -11020463.96747  21278823.167    21278829.2394
 01  5 15 17 49  0.0000000  0  6 30 06 05 24 17 10
  20566632.699   -11928325.737 9  -9284446.35948  20566632.916    20566637.2984
  22265540.623   -10499724.157 8  -8166786.69946  22265540.477    22265546.3314
  20438745.734    -2035469.231 9  -1569136.62948  20438745.201    20438750.3754
  21898988.630     6461129.831 8   5033518.75547  21898988.396    21898994.4904
  24448671.636    -4987527.321 7  -3869756.75745  24448671.137    24448681.4804
  21269793.851   -14219181.645 9 -11057440.94147  21269792.999    21269799.0524
 01  5 15 17 49 30.0000000  0  6 30 06 05 24 17 10
  20561096.143   -11957420.452 9  -9307117.56148  20561096.349    20561100.7594
  22253825.369   -10561288.051 8  -8214758.54246  22253825.237    22253831.0164
  20446112.995    -1996754.235 9  -1538969.13048  20446112.471    20446117.6644
  21912665.033     6532999.743 8   5089521.24847  21912664.798    21912670.9154
  24431432.944    -5078116.992 7  -3940345.95845  24431432.481    24431442.6884
  21260868.130   -14266086.490 9 -11093990.14547  21260867.298    21260873.3174
 01  5 15 17 50  0.0000000  0  6 30 06 05 24 17 10
  20555662.528   -11985974.327 9  -9329367.33948  20555662.761    20555667.1544
  22242125.029   -10622773.720 8  -8262669.43046  22242124.887    22242130.6114
  20453578.512    -1957522.662 9  -1508399.10648  20453577.973    20453583.1894
  21926376.163     6605052.344 8   5145666.08047  21926375.936    21926382.1124
  24414224.288    -5168548.199 7  -4010811.69045  24414223.825    24414234.0584
  21252047.290   -14312440.323 9 -11130109.99047  21252046.454    21252052.4274
 01  5 15 17 50 30.0000000  0  6 30 06 05 24 17 10
  20550332.044   -12013986.160 9  -9351194.74148  20550332.271    20550336.6794
  22230439.707   -10684180.522 8  -8310518.85046  22230439.517    22230445.2504
  20461142.205    -1917775.263 9  -1477427.13748  20461141.676    20461146.9134
  21940121.669     6677285.420 8   5201951.55447  21940121.450    21940127.6394
  24397046.022    -5258819.769 7  -4081153.03545  24397045.517    24397055.7914
  21243331.684   -14358241.083 9 -11165798.86147  21243330.838    21243336.7974
 01  5 15 17 51  0.0000000  0  6 30 06 05 24 17 10
  20545105.006   -12041454.399 9  -9372598.56748  20545105.240    20545109.6474
  22218769.457   -10745507.969 8  -8358306.44746  22218769.276    22218774.9904
  20468803.853    -1877513.119 9  -1446054.07048  20468803.322    20468808.5684
  21953901.153     6749697.067 8   5258376.17747  21953900.911    21953907.1914
  24379898.294    -5348930.897 7  -4151369.34645  24379897.828    24379907.9774
  21234721.644   -14403487.057 9 -11201055.43547  21234720.809    21234726.7554
 01  5 15 17 51 30.0000000  0  6 30 06 05 24 17 10
  20539981.761   -12068377.312 9  -9393577.46548  20539981.986    20539986.3844
  22207114.512   -10806754.995 8  -8406031.38646  22207114.335    22207120.0104
  20476563.387    -1836736.665 9  -1414280.24448  20476562.840    20476568.0914
  21967714.298     6822285.611 8   5314938.63347  21967714.108    21967720.3684
  24362781.303    -5438880.211 7  -4221459.58645  24362780.858    24362791.1254
  21226217.625   -14448175.908 9 -11235877.88847  21226216.786    21226222.7144
 01  5 15 17 52  0.0000000  0  6 30 06 05 24 17 10
  20534962.464   -12094753.979 9  -9414130.71548  20534962.681    20534967.0824
  22195474.936   -10867921.479 8  -8453693.55446  22195474.773    22195480.4294
  20484420.575    -1795447.109 9  -1382106.59548  20484420.031    20484425.3044
  21981560.677     6895048.485 8   5371636.93547  21981560.432    21981566.7014
  24345695.307    -5528667.144 7  -4291423.29745  24345694.866    24345705.1244
  21217819.928   -14492305.898 9 -11270264.86547  21217819.080    21217825.0224
 01  5 15 17 52 30.0000000  0  6 30 06 05 24 17 10
  20530047.337   -12120583.212 9  -9434257.39448  20530047.554    20530051.9574
  22183850.740   -10929006.972 8  -8501292.62046  22183850.590    22183856.2584
  20492375.200    -1753645.546 9  -1349533.98248  20492374.654    20492379.9264
  21995439.806     6967983.783 8   5428469.59647  21995439.564    21995445.8134
  24328640.429    -5618290.917 7  -4361259.87145  24328639.963    24328650.1404
  21209528.886   -14535875.406 9 -11304215.10347  21209528.039    21209534.0094
 01  5 15 17 53  0.0000000  0  6 30 06 05 24 17 10
  20525236.661   -12145863.351 9  -9453956.20648  20525236.884    20525241.2794
  22172242.126   -10990010.751 8  -8548828.00946  22172241.986    22172247.6524
  20500427.108    -1711332.718 9  -1316562.98048  20500426.570    20500431.8234
  22009351.412     7041089.614 8   5485435.12646  22009351.203    22009357.4214
  24311616.864    -5707750.177 7  -4430968.25845  24311616.418    24311626.5254
  21201344.872   -14578882.500 9 -11337727.09547  21201344.015    21201350.0304
 01  5 15 17 53 30.0000000  0  6 30 06 05 24 17 10
  20520530.757   -12170593.118 9  -9473226.15948  20520530.972    20520535.3304
  22160649.132   -11050932.440 8  -8596299.43246  22160648.962    22160654.6534
  20508576.119    -1668509.779 9  -1283194.48848  20508575.578    20508580.8094
  22023295.023     7114363.608 8   5542531.69646  22023294.800    22023300.9764
  24294624.749    -5797044.277 7  -4500547.96945  24294624.232    24294634.4074
  21193268.257   -14621325.186 9 -11370799.29347  21193267.406    21193273.4234
 01  5 15 17 54  0.0000000  0  6 30 06 05 24 17 10
  20515929.917   -12194770.953 9  -9492066.03448  20515930.137    20515934.4704
  22149071.948   -11111770.850 8  -8643705.96646  22149071.767    22149077.4824
  20516822.054    -1625177.318 9  -1249428.97148  20516821.510    20516826.7194
  22037270.309     7187804.094 8   5599757.99846  22037270.105    22037276.2734
  24277664.353    -5886171.668 7  -4569997.76345  24277663.773    24277673.8154
  21185299.529   -14663201.004 9 -11403429.77847  21185298.683    21185304.7244
 01  5 15 17 54 30.0000000  0  6 30 06 05 24 17 10
  20511434.290   -12218395.705 9  -9510474.93948  20511434.509    20511438.7964
  22137510.688   -11172525.522 8  -8691047.24946  22137510.530    22137516.2374
  20525164.771    -1581336.346 9  -1215267.21248  20525164.224    20525169.4204
  22051276.992     7261409.441 8   5657112.76446  22051276.789    22051282.9354
  24260735.691    -5975131.799 7  -4639317.21345  24260735.103    24260745.0774
  21177438.888   -14704508.760 9 -11435617.61447  21177438.025    21177444.0924
 01  5 15 17 55  0.0000000  0  6 30 06 05 24 17 10
  20507044.196   -12241465.993 9  -9528451.79148  20507044.418    20507048.6964
  22125965.515   -11233195.819 8  -8738322.78446  22125965.363    22125971.0964
  20533604.019    -1536987.931 9  -1180710.04448  20533603.482    20533608.6714
  22065314.632     7335177.282 8   5714594.15146  22065314.401    22065320.5704
  24243839.137    -6063923.523 7  -4708505.45445  24243838.650    24243848.4664
  21169686.744   -14745246.455 9 -11467361.24747  21169685.901    21169691.9334
 01  5 15 17 55 30.0000000  0  6 30 06 05 24 17 10
  20502759.854   -12263980.520 9  -9545995.58648  20502760.075    20502764.3714
  22114436.530   -11293781.052 8  -8785532.03347  22114436.374    22114442.0664
  20542139.568    -1492133.207 9  -1145758.35248  20542139.043    20542144.2634
  22079382.773     7409105.691 8   5772200.65846  22079382.511    22079388.7064
  24226974.757    -6152546.014 7  -4777561.81545  24226974.265    24226983.9614
  21162043.411   -14785412.320 9 -11498659.30447  21162042.593    21162048.5664
 01  5 15 17 56  0.0000000  0  6 30 06 05 24 17 10
  20498581.503   -12285938.040 9  -9563105.34848  20498581.727    20498586.0254
  22102923.867   -11354280.450 8  -8832674.39447  22102923.694    22102929.3724
  20550771.371    -1446772.950 9  -1110412.73548  20550770.847    20550776.0974
  22093481.060     7483192.702 8   5829930.75246  22093480.821    22093487.0384
  24210142.819    -6240998.185 7  -4846485.47345  24210142.297    24210152.0334
  21154509.257   -14825004.554 9 -11529510.37347  21154508.438    21154514.4284
 01  5 15 17 56 30.0000000  0  6 30 06 05 24 17 10
  20494509.340   -12307337.325 9  -9579780.12248  20494509.566    20494513.8804
  22091427.649   -11414693.390 8  -8879749.38446  22091427.473    22091433.1294
  20559499.196    -1400908.119 9  -1074673.94148  20559498.675    20559503.9604
  22107609.270     7557436.748 8   5887783.21446  22107609.031    22107615.3574
  24193343.477    -6329279.122 7  -4915275.68945  24193342.948    24193352.6274
  21147084.604   -14864021.380 9 -11559913.06947  21147083.779    21147089.7864
 01  5 15 17 57  0.0000000  0  6 30 06 05 24 17 10
  20490543.600   -12328177.522 9  -9596019.24248  20490543.822    20490548.1744
  22079947.914   -11475019.609 8  -8926756.80047  22079947.740    22079953.4104
  20568322.726    -1354540.094 9  -1038543.05448  20568322.207    20568327.5374
  22121766.881     7631835.363 8   5945756.10246  22121766.649    22121773.0204
  24176576.849    -6417388.131 7  -4983931.93945  24176576.245    24176585.9274
  21139769.714   -14902461.585 9 -11589866.45547  21139768.883    21139774.8874
 01  5 15 17 57 30.0000000  0  6 30 06 05 24 17 10
  20486684.580   -12348456.649 9  -9611821.16748  20486684.793    20486689.2154
  22068484.903   -11535257.636 8  -8973695.49847  22068484.746    22068490.4294
  20577241.942    -1307669.462 9  -1002020.51748  20577241.422    20577246.7834
  22135953.650     7706387.042 8   6003848.28646  22135953.438    22135959.8374
  24159843.135    -6505323.671 7  -5052453.03145  24159842.519    24159852.2174
  21132565.025   -14940322.592 9 -11619368.52147  21132564.190    21132570.1874
 01  5 15 17 58  0.0000000  0  6 30 06 05 24 17 10
  20482932.447   -12368174.160 9  -9627185.46748  20482932.661    20482937.1084
  22057038.785   -11595407.204 8  -9020565.26547  22057038.610    22057044.3064
  20586256.532    -1260297.701 9   -965107.49348  20586256.011    20586261.3954
  22150169.174     7781089.515 8   6062057.95146  22150168.927    22150175.3514
  24143142.536    -6593085.277 7  -5120838.58245  24143141.971    24143151.6924
  21125470.810   -14977602.996 9 -11648418.16947  21125469.961    21125475.9624
 01  5 15 17 58 30.0000000  0  6 30 06 05 24 17 10
  20479287.385   -12387328.897 9  -9642111.24748  20479287.614    20479292.0864
  22045609.671   -11655467.588 8  -9067365.54147  22045609.492    22045615.1764
  20595366.250    -1212425.876 9   -927804.81348  20595365.715    20595371.1254
  22164413.035     7855941.156 8   6120383.86546  22164412.786    22164419.2434
  24126475.243    -6680672.013 7  -5189087.86745  24126474.640    24126484.3454
  21118487.261   -15014301.651 9 -11677014.50547  21118486.416    21118492.4004
 01  5 15 17 59  0.0000000  0  6 30 06 05 24 17 10
  20475749.770   -12405919.287 9  -9656597.27348  20475749.993    20475754.4464
  22034197.675   -11715437.958 8  -9114095.68047  22034197.492    22034203.1744
  20604570.979    -1164054.941 9   -890113.21148  20604570.453    20604575.8774
  22178684.928     7930940.170 8   6178824.61146  22178684.706    22178691.1914
  24109841.360    -6768082.700 7  -5257199.98445  24109840.815    24109850.5704
  21111614.804   -15050416.730 9 -11705156.10547  21111613.954    21111619.9514
 01  5 15 17 59 30.0000000  0  6 30 06 05 24 17 10
  20472319.793   -12423944.095 9  -9670642.58448  20472320.008    20472324.4104
  22022803.010   -11775317.173 8  -9160754.77647  22022802.821    22022808.5004
  20613870.523    -1115185.584 9   -852033.23048  20613870.005    20613875.4414
  22192984.537     8006084.671 8   6237378.72446  22192984.306    22192990.8054
  24093241.204    -6855316.129 7  -5325173.97345  24093240.697    24093250.5394
  21104853.814   -15085946.014 9 -11732841.24747  21104852.944    21104858.9194
 01  5 15 18  0  0.0000000  0  6 30 06 05 24 17 10
  20468997.557   -12441402.764 9  -9684246.74948  20468997.778    20469002.1604
  22011425.701   -11835105.238 8  -9207342.85547  22011425.527    22011431.1674
  20623264.556    -1065819.745 9   -813566.38048  20623264.041    20623269.5064
  22207311.400     8081372.446 8   6296044.46946  22207311.128    22207317.6664
  24076674.877    -6942372.123 7  -5393009.69445  24076674.376    24076684.3304
  21098204.512   -15120888.443 9 -11760069.09547  21098203.638    21098209.6154
 01  5 15 18  0 30.0000000  0  6 30 06 05 24 17 10
  20465783.251   -12458294.195 9  -9697408.90948  20465783.473    20465787.8594
  22000065.930   -11894801.107 8  -9253859.09247  22000065.761    22000071.3994
  20632752.890    -1015958.520 9   -774713.51048  20632752.373    20632757.8324
  22221665.152     8156801.565 8   6354820.35946  22221664.901    22221671.4184
  24060142.510    -7029249.662 7  -5460706.36745  24060141.991    24060151.8794
  21091667.144   -15155242.443 9 -11786838.43047  21091666.263    21091672.2344
 01  5 15 18  1  0.0000000  0  6 30 06 05 24 17 10
  20462677.000   -12474617.733 9  -9710128.55948  20462677.223    20462681.6294
  21988723.741   -11954404.615 8  -9300303.35747  21988723.584    21988729.2074
  20642335.143     -965603.710 9   -735476.03347  20642334.629    20642340.0724
  22236045.279     8232369.531 8   6413704.43446  22236045.036    22236051.5634
  24043644.245    -7115948.263 7  -5528263.59845  24043643.702    24043653.6354
  21085241.898   -15189007.267 9 -11813148.67247  21085241.022    21085246.9994
 01  5 15 18  1 30.0000000  0  6 30 06 05 24 17 10
  20459679.106   -12490371.806 9  -9722404.46548  20459679.329    20459683.7364
  21977399.371   -12013914.455 8  -9346674.63847  21977399.233    21977404.8424
  20652011.199     -914755.757 9   -695854.28947  20652010.661    20652016.1254
  22250451.707     8308075.549 8   6472696.08746  22250451.453    22250457.9924
  24027180.301    -7202466.330 7  -5595680.15845  24027179.710    24027189.5914
  21078929.229   -15222180.492 9 -11838997.92547  21078928.352    21078934.3394
 01  5 15 18  2  0.0000000  0  6 30 06 05 24 17 10
  20456789.764   -12505555.361 9  -9734235.81848  20456789.979    20456794.4004
  21966093.038   -12073329.688 8  -9392972.20147  21966092.880    21966098.4904
  20661780.909     -863415.709 9   -655849.09947  20661780.387    20661785.8484
  22264883.974     8383917.558 8   6531793.70246  22264883.701    22264890.2854
  24010750.899    -7288803.020 7  -5662955.38945  24010750.353    24010760.2654
  21072729.418   -15254760.683 9 -11864385.07847  21072728.524    21072734.5584
 01  5 15 18  2 30.0000000  0  6 30 06 05 24 17 10
  20454009.106   -12520167.727 9  -9745622.08148  20454009.314    20454013.7774
  21954804.722   -12132650.112 8  -9439195.88147  21954804.575    21954810.1584
  20671643.853     -811585.716 9   -615462.12847  20671643.339    20671648.7854
  22279341.653     8459893.125 8   6590995.38946  22279341.393    22279348.0154
  23994356.130    -7374957.984 7  -5730089.02245  23994355.584    23994365.3844
  21066642.552   -15286746.942 9 -11889309.41947  21066641.687    21066647.7164
 01  5 15 18  3  0.0000000  0  6 30 06 05 24 17 10
  20451337.436   -12534207.443 9  -9756562.12648  20451337.644    20451342.1394
  21943534.734   -12191874.433 8  -9485344.68047  21943534.577    21943540.1574
  20681599.934     -759266.254 9   -574693.75747  20681599.417    20681604.8784
  22293824.512     8536000.826 8   6650300.03246  22293824.257    22293830.8904
  23977996.123    -7460929.846 7  -5797079.96945  23977995.649    23978005.3444
  21060669.173   -15318137.193 9 -11913769.33947  21060668.303    21060674.2934
 01  5 15 18  3 30.0000000  0  6 30 06 05 24 17 10
  20448774.846   -12547673.922 9  -9767055.49648  20448775.057    20448779.5654
  21932283.124   -12251001.941 8  -9531418.03947  21932282.976    21932288.5314
  20691648.877     -706458.863 9   -533545.18047  20691648.350    20691653.8544
  22308332.144     8612238.855 8   6709706.23746  22308331.893    22308338.5574
  23961671.159    -7546717.742 7  -5863927.57145  23961670.681    23961680.4104
  21054809.511   -15348929.911 9 -11937763.64847  21054808.639    21054814.6054
 01  5 15 18  4  0.0000000  0  6 30 06 05 24 17 10
  20446321.520   -12560566.366 9  -9777101.56748  20446321.746    20446326.2484
  21921050.104   -12310032.024 8  -9577415.48847  21921049.943    21921055.4874
  20701790.361     -653165.069 9   -492017.59047  20701789.849    20701795.3664
  22322864.272     8688605.419 8   6769212.59446  22322864.013    22322870.6654
  23945381.286    -7632321.240 7  -5930631.47045  23945380.848    23945390.4444
  21049063.646   -15379124.450 9 -11961291.84547  21049062.777    21049068.7174
 01  5 15 18  4 30.0000000  0  6 30 06 05 24 17 10
  20443977.560   -12572883.909 9  -9786699.66248  20443977.789    20443982.2974
  21909835.702   -12368963.994 8  -9623336.48047  21909835.556    21909841.0854
  20712024.170     -599386.287 9   -450112.08547  20712023.644    20712029.1634
  22337420.442     8765098.435 8   6828817.48846  22337420.196    22337426.8504
  23929126.629    -7717739.513 7  -5997191.04845  23929126.201    23929135.7654
  21043431.885   -15408719.373 9 -11984352.80847  21043431.016    21043436.9744
 01  5 15 18  5  0.0000000  0  6 30 06 05 24 17 10
  20441743.238   -12584625.411 9  -9795848.89448  20441743.475    20441747.9874
  21898640.205   -12427796.883 8  -9669180.26847  21898640.047    21898645.5774
  20722350.057     -545123.629 9   -407829.53347  20722349.536    20722355.0434
  22352000.432     8841716.474 8   6888519.79846  22352000.222    22352006.8614
  23912907.409    -7802971.531 7  -6063605.49645  23912906.949    23912916.4454
  21037914.547   -15437713.202 9 -12006945.38647  21037913.715    21037919.6484
 01  5 15 18  5 30.0000000  0  6 30 06 05 24 17 10
  20439618.676   -12595790.115 9  -9804548.67048  20439618.906    20439623.4254
  21887463.679   -12486529.973 8  -9714946.28347  21887463.494    21887469.0224
  20732767.751     -490378.569 9   -365171.08347  20732767.224    20732772.7524
  22366603.820     8918457.419 8   6948317.88546  22366603.602    22366610.2374
  23896723.779    -7888016.508 7  -6129874.18445  23896723.273    23896732.7524
  21032511.837   -15466104.424 9 -12029068.39847  21032511.016    21032516.9774
 01  5 15 18  6  0.0000000  0  6 30 06 05 24 17 10
  20437603.954   -12606377.478 9  -9812798.57448  20437604.201    20437608.7124
  21876306.318   -12545162.324 8  -9760633.81447  21876306.129    21876311.6674
  20743276.934     -435152.609 9   -322137.91047  20743276.419    20743281.9584
  22381230.179     8995319.183 8   7008210.10246  22381229.947    22381236.5674
  23880575.949    -7972873.669 7  -6195996.53945  23880575.432    23880584.9244
  21027223.993   -15493892.018 9 -12050721.05947  21027223.186    21027229.1534
 01  5 15 18  6 30.0000000  0  6 30 06 05 24 17 10
  20435699.366   -12616386.328 9  -9820597.68548  20435699.609    20435704.0924
  21865168.231   -12603693.233 8  -9806242.29147  21865168.039    21865173.5984
  20753877.417     -379446.868 9   -278730.87947  20753876.900    20753882.4554
  22395879.308     9072300.632 8   7068195.59446  22395879.085    22395885.7334
  23864464.012    -8057542.003 7  -6261971.73245  23864463.546    23864472.9584
  21022051.279   -15521074.807 9 -12071902.43247  21022050.467    21022056.4534
 01  5 15 18  7  0.0000000  0  6 30 06 05 24 17 10
  20433904.944   -12625816.154 9  -9827945.61448  20433905.192    20433909.6714
  21854049.627   -12662121.982 8  -9851771.16647  21854049.446    21854054.9994
  20764568.857     -323263.160 9   -234951.40847  20764568.338    20764573.9024
  22410550.729     9149399.367 8   7128272.47446  22410550.519    22410557.1824
  23848388.013    -8142021.265 7  -6327799.62145  23848387.595    23848396.9734
  21016993.757   -15547651.888 9 -12092611.83847  21016992.949    21016998.9754
 01  5 15 18  7 30.0000000  0  6 30 06 05 24 17 10
  20432220.875   -12634666.148 9  -9834841.71848  20432221.128    20432225.5974
  21842950.633   -12720447.466 8  -9897219.57047  21842950.470    21842956.0234
  20775351.037     -266602.818 9   -190800.53347  20775350.514    20775356.0774
  22425244.141     9226613.802 8   7188439.51646  22425243.937    22425250.6004
  23832348.331    -8226310.197 7  -6393479.18345  23832347.839    23832357.2704
  21012051.792   -15573621.802 9 -12112848.12047  21012051.000    21012057.0584
 01  5 15 18  8  0.0000000  0  6 30 06 05 24 17 10
  20430647.327   -12642935.231 9  -9841285.17148  20430647.567    20430652.0404
  21831871.476   -12778668.788 8  -9942586.80847  21831871.310    21831876.8804
  20786223.650     -209467.070 9   -146279.21447  20786223.127    20786228.6864
  22439959.317     9303942.417 8   7248695.52246  22439959.110    22439965.7824
  23816344.945    -8310407.997 7  -6459009.80245  23816344.438    23816353.9124
  21007225.685   -15598983.195 9 -12132610.23447  21007224.891    21007230.9354
 01  5 15 18  8 30.0000000  0  6 30 06 05 24 17 10
  20429184.363   -12650623.192 9  -9847275.80148  20429184.600    20429189.0674
  21820812.246   -12836785.408 8  -9987872.46547  21820812.086    21820817.6294
  20797186.367     -151857.699 9   -101388.83747  20797185.848    20797191.4084
  22454695.853     9381382.968 8   7309038.74046  22454695.637    22454702.2714
  23800378.030    -8394314.212 7  -6524391.13945  23800377.542    23800386.9704
  21002515.479   -15623735.312 9 -12151897.58147  21002514.682    21002520.7354
 01  5 15 18  9  0.0000000  0  6 30 06 05 24 17 10
  20427832.191   -12657728.997 9  -9852812.80248  20427832.426    20427836.8804
  21809773.174   -12894796.017 8 -10033075.51347  21809772.988    21809778.5264
  20808238.977      -93776.192 9    -56130.56047  20808238.466    20808244.0444
  22469453.426     9458934.228 8   7369468.23546  22469453.181    22469459.7794
  23784447.752    -8478027.766 7  -6589622.35345  23784447.220    23784456.7154
  20997921.497   -15647876.874 9 -12170709.17547  20997920.692    20997926.7664
 01  5 15 18  9 30.0000000  0  6 30 06 05 24 17 10
  20426590.820   -12664252.471 9  -9857896.04148  20426591.055    20426595.5234
  21798754.355   -12952700.092 8 -10078195.55547  21798754.167    21798759.7144
  20819381.101      -35224.118 9    -10505.61147  20819380.583    20819386.1994
  22484231.645     9536594.052 8   7429982.32346  22484231.410    22484237.9704
  23768554.200    -8561548.247 7  -6654703.12445  23768553.723    23768563.1584
  20993443.879   -15671407.066 9 -12189044.37647  20993443.072    20993449.1424
 01  5 15 18 10  0.0000000  0  6 30 06 05 24 17 10
  20425460.445   -12670192.519 9  -9862524.65948  20425460.688    20425465.1534
  21787755.985   -13010496.763 8 -10123231.90047  21787755.801    21787761.3664
  20830612.474       23797.003 9     35484.83147  20830611.957    20830617.5804
  22499030.223     9614360.714 8   7490579.66246  22499030.016    22499036.5054
  23752697.646    -8644874.721 7  -6719632.72545  23752697.110    23752706.5874
  20989082.782   -15694324.758 9 -12206902.30947  20989081.971    20989088.0684
 01  5 15 18 10 30.0000000  0  6 30 06 05 24 17 10
  20424441.170   -12675549.042 9  -9866698.58648  20424441.403    20424445.8434
  21776778.195   -13068185.263 8 -10168183.95747  21776777.980    21776783.5944
  20841932.762       83285.447 9     81839.41947  20841932.240    20841937.8674
  22513848.684     9692232.388 8   7551258.82746  22513848.497    22513855.0014
  23736878.069    -8728006.635 7  -6784410.71545  23736877.552    23736886.9564
  20984838.455   -15716628.866 9 -12224282.12847  20984837.629    20984843.7334
 01  5 15 18 11  0.0000000  0  6 30 06 05 24 17 10
  20423533.173   -12680320.703 9  -9870416.78348  20423533.402    20423537.8394
  21765821.275   -13125764.248 8 -10213050.68647  21765821.086    21765826.7134
  20853341.790      143240.178 9    128557.34147  20853341.262    20853346.8994
  22528686.957     9770207.680 8   7612018.73046  22528686.765    22528693.2814
  23721095.763    -8810942.679 7  -6849036.09845  23721095.267    23721104.5924
  20980711.188   -15738317.941 9 -12241182.70147  20980710.366    20980716.4524
 01  5 15 18 11 30.0000000  0  6 30 06 05 24 17 10
  20422736.491   -12684507.273 9  -9873679.05848  20422736.724    20422741.1874
  21754885.313   -13183233.094 8 -10257831.58747  21754885.146    21754890.7344
  20864839.178      203659.152 9    175637.01947  20864838.643    20864844.3074
  22543544.594     9848284.833 8   7672858.01446  22543544.389    22543550.8714
  23705350.799    -8893682.703 7  -6913508.73345  23705350.338    23705359.4764
  20976701.026   -15759391.546 9 -12257603.68247  20976700.193    20976706.2934
 01  5 15 18 12  0.0000000  0  6 30 06 05 24 17 10
  20422051.180   -12688108.651 9  -9876485.34648  20422051.408    20422055.9014
  21743970.415   -13240591.386 9 -10302526.34547  21743970.243    21743975.8324
  20876424.562      264540.640 9    223077.09247  20876424.022    20876429.6894
  22558421.276     9926461.991 8   7733775.21746  22558421.080    22558427.5264
  23689643.199    -8976226.221 7  -6977828.25945  23689642.712    23689651.7484
  20972808.076   -15779849.111 9 -12273544.64047  20972807.238    20972813.3444
 01  5 15 18 12 30.0000000  0  6 30 06 05 24 17 10
  20421477.401   -12691123.833 9  -9878834.85248  20421477.635    20421482.1484
  21733076.795   -13297837.623 8 -10347133.78947  21733076.634    21733082.1684
  20888097.741      325883.607 9    270876.76447  20888097.201    20888102.9084
  22573316.637    10004737.468 8   7794769.04446  22573316.428    22573322.9454
  23673973.263    -9058571.797 7  -7041993.54145  23673972.730    23673981.7474
  20969032.646   -15799689.274 9 -12289004.50347  20969031.821    20969037.9034
 01  5 15 18 13  0.0000000  0  6 30 06 05 24 17 10
  20421015.263   -12693552.456 9  -9880727.30648  20421015.495    20421020.0294
  21722204.747   -13354970.752 8 -10391653.10247  21722204.571    21722210.0794
  20899858.452      387686.526 9    319034.83147  20899857.929    20899863.6384
  22588230.444    10083109.785 8   7855838.31046  22588230.223    22588236.7504
  23658341.079    -9140718.917 7  -7106004.17645  23658340.572    23658349.5944
  20965374.848   -15818911.087 9 -12303982.53847  20965374.014    20965380.0824
 01  5 15 18 13 30.0000000  0  6 30 06 05 24 17 10
  20420664.837   -12695394.028 9  -9882162.31248  20420665.068    20420669.6144
  21711354.283   -13411990.102 8 -10436083.75047  21711354.093    21711359.6054
  20911706.292      449947.271 9    367549.65647  20911705.777    20911711.5034
  22603162.301    10161577.008 8   7916981.54346  22603162.076    22603168.6144
  23642746.706    -9222666.952 7  -7169859.69345  23642746.258    23642755.2924
  20961834.865   -15837513.795 9 -12318478.14747  20961834.034    20961840.0994
 01  5 15 18 14  0.0000000  0  6 30 06 05 24 17 10
  20420426.203   -12696648.066 9  -9883139.49948  20420426.443    20420430.9974
  21700525.690   -13468894.591 8 -10480424.90247  21700525.519    21700530.9994
  20923640.980      512664.235 9    416419.97147  20923640.465    20923646.2164
  22618111.957    10240137.578 8   7978197.51146  22618111.737    22618118.3064
  23627190.396    -9304415.151 8  -7233559.48745  23627189.917    23627199.0794
  20958412.873   -15855496.541 9 -12332490.67047  20958412.053    20958418.1324
 01  5 15 18 14 30.0000000  0  6 30 06 05 24 17 10
  20420299.482   -12697314.270 9  -9883658.63948  20420299.711    20420304.2764
  21689719.085   -13525683.556 8 -10524676.02947  21689718.940    21689724.3994
  20935662.076      575835.412 9    465644.21847  20935661.553    20935667.3284
  22633079.020    10318789.617 8   8039484.74546  22633078.805    22633085.3514
  23611672.270    -9385963.091 7  -7297103.25445  23611671.780    23611680.9544
  20955108.873   -15872858.975 9 -12346019.83447  20955108.051    20955114.1554
 01  5 15 18 15  0.0000000  0  6 30 06 05 24 17 10
  20420284.706   -12697392.055 9  -9883719.26948  20420284.921    20420289.4964
  21678934.751   -13582355.643 8 -10568836.08447  21678934.606    21678940.0534
  20947769.389      639459.587 9    515221.45147  20947768.851    20947774.6724
  22648063.241    10397532.000 8   8100842.38046  22648063.032    22648069.5864
  23596192.398    -9467309.763 8  -7360490.16645  23596191.916    23596201.1074
  20951923.212   -15889599.757 9 -12359064.58447  20951922.376    20951928.4694
 01  5 15 18 15 30.0000000  0  6 30 06 05 24 17 10
  20420381.888   -12696881.605 9  -9883321.53448  20420382.104    20420386.6824
  21668172.721   -13638910.461 8 -10612904.75447  21668172.536    21668178.0224
  20959962.515      703534.642 9    565150.01747  20959962.000    20959967.8174
  22663064.145    10476362.029 8   8162268.31046  22663063.898    22663070.5084
  23580750.960    -9548455.120 8  -7423720.22745  23580750.496    23580759.6184
  20948855.880   -15905718.649 9 -12371624.74847  20948855.059    20948861.1494
 01  5 15 18 16  0.0000000  0  6 30 06 05 24 17 10
  20420591.121   -12695782.104 9  -9882464.79948  20420591.339    20420595.9214
  21657433.201   -13695346.859 8 -10656881.15447  21657433.011    21657438.5244
  20972241.103      768058.908 9    615428.62047  20972240.580    20972246.4214
  22678081.613    10555278.852 8   8223761.88046  22678081.381    22678087.9534
  23565347.993    -9629398.281 8  -7486792.72445  23565347.519    23565356.5444
  20945907.040   -15921215.101 9 -12383699.89947  20945906.211    20945912.2784
 01  5 15 18 16 30.0000000  0  6 30 06 05 24 17 10
  20420912.457   -12694093.482 9  -9881149.01148  20420912.666    20420917.2684
  21646716.371   -13751663.843 8 -10700764.50747  21646716.200    21646721.7444
  20984604.839      833030.491 9    666055.77547  20984604.331    20984610.1494
  22693115.175    10634280.431 8   8285321.47646  22693114.964    22693121.5124
  23549983.598    -9710138.428 8  -7549707.02645  23549983.146    23549991.9844
  20943076.788   -15936088.252 9 -12395289.36347  20943075.950    20943082.0204
 01  5 15 18 17  0.0000000  0  6 30 06 05 24 17 10
  20421345.986   -12691815.362 9  -9879373.87848  20421346.206    20421350.8294
  21636022.555   -13807860.018 8 -10744553.72647  21636022.393    21636027.9594
  20997053.392      898447.912 9    717030.33947  20997052.873    20997058.7134
  22708164.651    10713365.761 8   8346946.33446  22708164.425    22708170.9644
  23534657.987    -9790674.757 8  -7612462.51245  23534657.496    23534666.3674
  20940365.328   -15950337.125 9 -12406392.37747  20940364.497    20940370.5464
 01  5 15 18 17 30.0000000  0  6 30 06 05 24 17 10
  20421891.676   -12688947.727 9  -9877139.37848  20421891.908    20421896.5464
  21625351.801   -13863935.061 8 -10788248.55347  21625351.660    21625357.1894
  21009586.397      964308.958 9    768350.58847  21009585.876    21009591.7144
  22723229.717    10792532.688 8   8408634.77446  22723229.485    22723236.0244
  23519371.197    -9871007.145 8  -7675059.08245  23519370.659    23519379.5544
  20937772.666   -15963961.621 9 -12417008.85747  20937771.842    20937777.8684
 01  5 15 18 18  0.0000000  0  6 30 06 05 24 17 10
  20422549.737   -12685489.664 9  -9874444.80848  20422549.973    20422554.6054
  21614704.458   -13919887.333 9 -10831847.71147  21614704.301    21614709.7974
  21022203.587     1030612.562 9    820015.67947  21022203.062    21022208.9154
  22738310.049    10871780.036 8   8470385.88946  22738309.795    22738316.4274
  23504123.473    -9951134.329 8  -7737495.74945  23504122.924    23504131.7074
  20935299.016   -15976960.655 9 -12427137.97047  20935298.195    20935304.1954
 01  5 15 18 18 30.0000000  0  6 30 06 05 24 17 10
  20423320.132   -12681441.507 9  -9871290.42348  20423320.379    20423324.9654
  21604080.544   -13975716.389 9 -10875350.86047  21604080.376    21604085.8554
  21034904.567     1097356.516 9    872023.89847  21034904.039    21034909.8834
  22753405.231    10951105.448 8   8532197.83246  22753404.985    22753411.6824
  23488914.842   -10031056.149 8  -7799772.38545  23488914.333    23488923.0014
  20932944.466   -15989334.001 9 -12436779.53247  20932943.645    20932949.6294
 01  5 15 18 19  0.0000000  0  6 30 06 05 24 17 10
  20424202.947   -12676802.620 9  -9867675.72748  20424203.178    20424207.7404
  21593480.371   -14031420.817 8 -10918756.89647  21593480.215    21593485.6484
  21047689.054     1164539.336 9    924374.09147  21047688.518    21047694.4064
  22768515.089    11030508.142 8   8594069.98946  22768514.865    22768521.6134
  23473745.432   -10110771.646 8  -7861888.26046  23473744.925    23473753.5804
  20930709.140   -16001080.846 9 -12445932.90947  20930708.292    20930714.2994
 01  5 15 18 19 30.0000000  0  6 30 06 05 24 17 10
  20425198.149   -12671572.868 9  -9863600.61748  20425198.379    20425202.9164
  21582904.086   -14086999.544 9 -10962064.98147  21582903.927    21582909.3584
  21060556.677     1232159.064 9    977064.73247  21060556.170    21060562.0434
  22783639.390    11109986.663 8   8656001.23346  22783639.164    22783645.9194
  23458615.476   -10190280.010 8  -7923842.73546  23458614.919    23458623.5354
  20928593.084   -16012200.748 9 -12454597.75447  20928592.227    20928598.2524
 01  5 15 18 20  0.0000000  0  6 30 06 05 24 17 10
  20426305.753   -12665752.525 9  -9859065.30648  20426305.973    20426310.5084
  21572351.829   -14142451.986 9 -11005274.65947  21572351.672    21572357.0694
  21073506.996     1300213.251 9   1030093.91247  21073506.485    21073512.3704
  22798777.688    11189538.674 8   8717989.74646  22798777.475    22798784.2754
  23443524.856   -10269581.334 8  -7985635.87346  23443524.346    23443532.9774
  20926596.342   -16022693.443 9 -12462773.87147  20926595.509    20926601.5334
 01  5 15 18 20 30.0000000  0  6 30 06 05 24 17 10
  20427525.876   -12659340.775 9  -9854069.15948  20427526.108    20427530.6604
  21561823.951   -14197776.438 9 -11048384.60847  21561823.810    21561829.1914
  21086539.798     1368700.937 9   1083460.88147  21086539.303    21086545.2244
  22813929.831    11269163.402 8   8780034.91746  22813929.565    22813936.4664
  23428473.850   -10348674.257 8  -8047266.62146  23428473.396    23428481.9764
  20924719.165   -16032558.040 9 -12470460.56847  20924718.309    20924724.3844
 01  5 15 18 21  0.0000000  0  6 30 06 05 24 17 10
  20428858.433   -12652338.148 9  -9848612.58648  20428858.665    20428863.2364
  21551320.581   -14252972.080 9 -11091394.18347  21551320.431    21551325.8294
  21099654.624     1437619.800 9   1137163.83647  21099654.133    21099660.0884
  22829095.406    11348858.907 8   8842135.25046  22829095.186    22829102.0664
  23413462.595   -10427558.666 8  -8108734.88746  23413462.128    23413470.7034
  20922961.487   -16041794.495 9 -12477657.79947  20922960.636    20922966.7364
 01  5 15 18 21 30.0000000  0  6 30 06 05 24 17 10
  20430303.418   -12644744.656 9  -9842695.59648  20430303.655    20430308.2594
  21540841.789   -14308038.499 9 -11134303.06147  21540841.606    21540847.0244
  21112851.153     1506967.655 9   1191201.06847  21112850.658    21112856.6264
  22844273.997    11428623.157 8   8904289.15146  22844273.769    22844280.7484
  23398491.034   -10506234.279 8  -8170040.46846  23398490.532    23398499.0374
  20921323.388   -16050402.788 9 -12484365.55247  20921322.560    20921328.6674
 01  5 15 18 22  0.0000000  0  6 30 06 05 24 17 10
  20431860.922   -12636559.886 9  -9836317.87548  20431861.157    20431865.7964
  21530387.938   -14362973.932 9 -11177109.87847  21530387.773    21530393.1744
  21126129.058     1576743.086 9   1245571.47247  21126128.545    21126134.5274
  22859465.638    11508455.484 8   8966496.07346  22859465.381    22859472.4294
  23383559.413   -10584699.946 8  -8231182.45146  23383558.929    23383567.3584
  20919805.012   -16058381.881 9 -12490583.03147  20919804.191    20919810.2774
 01  5 15 18 22 30.0000000  0  6 30 06 05 24 17 10
  20433530.930   -12627783.980 9  -9829479.53148  20433531.171    20433535.8224
  21519959.047   -14417778.061 9 -11219814.38247  21519958.863    21519964.2674
  21139487.814     1646943.456 9   1300272.99847  21139487.317    21139493.2754
  22874669.809    11588353.705 8   9028754.36046  22874669.595    22874676.7094
  23368667.743   -10662955.723 8  -8292160.88546  23368667.259    23368675.7174
  20918406.284   -16065732.257 9 -12496310.59547  20918405.459    20918411.5384
 01  5 15 18 23  0.0000000  0  6 30 06 05 24 17 10
  20435313.442   -12618416.854 9  -9822180.49148  20435313.657    20435318.3514
  21509555.475   -14472449.211 9 -11262415.26147  21509555.295    21509560.6934
  21152927.164     1717567.333 9   1355304.52847  21152926.673    21152932.6294
  22889886.230    11668316.393 8   9091062.88146  22889886.032    22889893.2454
  23353816.222   -10741000.641 8  -8352975.00946  23353815.720    23353824.1814
  20917127.363   -16072453.101 9 -12501547.61547  20917126.535    20917132.6034
 01  5 15 18 23 30.0000000  0  6 30 06 05 24 17 10
  20437208.407   -12608458.766 9  -9814420.96148  20437208.635    20437213.3714
  21499177.348   -14526986.412 9 -11304911.76347  21499177.179    21499182.5964
  21166446.649     1788612.473 9   1410664.31947  21166446.134    21166452.0954
  22905114.650    11748342.172 8   9153420.56846  22905114.459    22905121.6964
  23339004.957   -10818834.233 8  -8413624.47346  23339004.483    23339012.8394
  20915968.319   -16078544.128 9 -12506293.86847  20915967.487    20915973.5554
 01  5 15 18 24  0.0000000  0  6 30 06 05 24 17 10
  20439215.881   -12597909.387 9  -9806200.68848  20439216.115    20439220.8934
  21488824.958   -14581388.436 9 -11347302.93647  21488824.796    21488830.2604
  21180046.023     1860077.306 9   1466351.14147  21180045.529    21180051.4864
  22920354.928    11828429.995 8   9215826.59146  22920354.739    22920361.9664
  23324234.027   -10896455.845 8  -8474108.75946  23324233.539    23324241.8644
  20914929.108   -16084005.128 9 -12510549.19647  20914928.276    20914934.3184
 01  5 15 18 24 30.0000000  0  6 30 06 05 24 17 10
  20441335.803   -12586769.200 9  -9797520.04748  20441336.047    20441340.8324
  21478498.450   -14635654.411 9 -11389588.09847  21478498.295    21478503.7814
  21193724.801     1931959.462 9   1522363.14347  21193724.290    21193730.2704
  22935606.563    11908577.581 8   9278279.17946  22935606.349    22935613.6414
  23309503.533   -10973865.154 8  -8534427.61946  23309503.057    23309511.2634
  20914009.785   -16088836.235 9 -12514313.70047  20914008.953    20914014.9784
 01  5 15 18 25  0.0000000  0  6 30 06 05 24 17 10
  20443568.167   -12575038.174 9  -9788379.01148  20443568.402    20443573.2004
  21468198.129   -14689782.988 9 -11431766.19747  21468197.986    21468203.4394
  21207482.644     2004257.258 9   1578699.02647  21207482.145    21207488.1244
  22950869.363    11988783.978 8   9340777.59246  22950869.144    22950876.4454
  23294813.552   -11051061.329 8  -8594580.39746  23294813.067    23294821.2404
  20913210.406   -16093037.034 9 -12517587.05747  20913209.596    20913215.5724
 01  5 15 18 25 30.0000000  0  6 30 06 05 24 17 10
  20445913.036   -12562716.064 9  -9778777.38948  20445913.269    20445918.0614
  21457924.110   -14743773.204 9 -11473836.48247  21457923.968    21457929.4174
  21221319.235     2076968.704 9   1635357.23147  21221318.727    21221324.7054
  22966143.023    12069047.513 8   9403320.53546  22966142.820    22966150.1174
  23280164.224   -11128043.932 8  -8654566.75846  23280163.758    23280171.8824
  20912531.022   -16096607.223 9 -12520369.03547  20912530.207    20912536.1954
 01  5 15 18 26  0.0000000  0  6 30 06 05 24 17 10
  20448370.293   -12549803.186 9  -9768715.43048  20448370.528    20448375.3144
  21447676.620   -14797624.057 9 -11515798.17447  21447676.483    21447681.9214
  21235234.120     2150091.620 9   1692336.06047  21235233.633    21235239.6084
  22981427.324    12149366.702 8   9465906.84146  22981427.109    22981434.4504
  23265555.654   -11204812.538 8  -8714386.36846  23265555.141    23265563.1674
  20911971.654   -16099546.853 9 -12522659.66247  20911970.844    20911976.7954
 01  5 15 18 26 30.0000000  0  6 30 06 05 24 17 10
  20450939.911   -12536299.831 9  -9758193.36048  20450940.149    20450944.9304
  21437455.915   -14851334.182 9 -11557650.20747  21437455.778    21437461.1764
  21249226.989     2223624.163 9   1749634.08047  21249226.477    21249232.4594
  22996721.944    12229740.242 8   9528535.50546  22996721.760    22996729.0744
  23250987.874   -11281366.580 8  -8774038.79446  23250987.347    23250995.3564
  20911532.391   -16101855.412 9 -12524458.54447  20911531.578    20911537.5054
 01  5 15 18 27  0.0000000  0  6 30 06 05 24 17 10
  20453621.863   -12522206.258 9  -9747211.38248  20453622.112    20453626.8664
  21427262.144   -14904902.646 9 -11599391.85947  21427262.005    21427267.3884
  21263297.343     2297564.061 9   1807249.51347  21263296.836    21263302.8214
  23012026.665    12310166.680 8   9591205.37646  23012026.496    23012033.8064
  23236460.996   -11357705.565 8  -8833523.63946  23236460.483    23236468.4494
  20911213.150   -16103532.950 9 -12525765.72547  20911212.319    20911218.2774
 01  5 15 18 27 30.0000000  0  6 30 06 05 24 17 10
  20456416.060   -12507522.976 9  -9735769.88148  20456416.288    20456421.0134
  21417095.520   -14958328.511 9 -11641022.38747  21417095.373    21417100.7654
  21277444.774     2371909.041 9   1865180.60747  21277444.252    21277450.2804
  23027341.162    12390644.545 8   9653915.33646  23027340.994    23027348.3084
  23221975.088   -11433829.375 8  -8892840.81446  23221974.582    23221982.5114
  20911013.930   -16104579.901 9 -12526581.53047  20911013.107    20911019.0524
 01  5 15 18 28  0.0000000  0  6 30 06 05 24 17 10
  20459322.535   -12492249.493 9  -9723868.49548  20459322.765    20459327.4374
  21406956.370   -15011609.991 9 -11682540.42047  21406956.223    21406961.6174
  21291668.984     2446657.527 9   1923426.10547  21291668.485    21291674.5464
  23042665.200    12471172.271 8   9716664.13746  23042665.015    23042672.3214
  23207530.374   -11509736.870 8  -8951989.43546  23207529.881    23207537.7614
  20910934.772   -16104995.849 9 -12526905.65447  20910933.952    20910939.8564
 01  5 15 18 28 30.0000000  0  6 30 06 05 24 17 10
  20462341.231   -12476386.388 9  -9711507.65148  20462341.476    20462346.1274
  21396844.891   -15064746.157 9 -11723945.20547  21396844.763    21396850.1594
  21305969.522     2521807.184 9   1981984.21847  21305969.015    21305975.1004
  23057998.523    12551749.007 8   9779451.12546  23057998.280    23058005.5774
  23193126.783   -11585427.929 8  -9010969.40546  23193126.313    23193134.1544
  20910975.637   -16104781.070 9 -12526738.29347  20910974.823    20910980.7034
 01  5 15 18 29  0.0000000  0  6 30 06 05 24 17 10
  20465472.004   -12459934.065 9  -9698687.68748  20465472.248    20465476.9154
  21386761.235   -15117736.080 9 -11765236.04547  21386761.093    21386766.5134
  21320346.082     2597356.056 9   2040853.39547  21320345.582    21320351.6864
  23073340.767    12632372.752 8   9842274.74246  23073340.529    23073347.8454
  23178764.506   -11660901.947 8  -9069780.24846  23178764.046    23178771.8394
  20911136.538   -16103935.624 9 -12526079.51147  20911135.722    20911141.6134
 01  5 15 18 29 30.0000000  0  6 30 06 05 24 17 10
  20468714.858   -12442892.884 9  -9685408.86448  20468715.103    20468719.7944
  21376705.640   -15170578.719 9 -11806412.11247  21376705.495    21376710.9264
  21334798.123     2673301.907 9   2100031.90947  21334797.627    21334803.7654
  23088691.658    12713041.889 8   9905133.72946  23088691.441    23088698.7314
  23164443.548   -11736158.753 8  -9128421.83646  23164443.070    23164450.8914
  20911417.427   -16102459.522 9 -12524929.30547  20911416.617    20911422.5264
 01  5 15 18 30  0.0000000  0  6 30 06 05 24 17 10
  20472069.746   -12425262.920 9  -9671671.25248  20472069.991    20472074.7034
  21366678.322   -15223272.549 9 -11847472.22847  21366678.147    21366683.6264
  21349325.421     2749643.012 9   2159518.41347  21349324.930    21349331.0954
  23104051.126    12793756.088 8   9968027.82246  23104050.878    23104058.1964
  23150164.033   -11811197.524 8  -9186893.53146  23150163.575    23150171.3934
  20911818.414   -16100352.404 9 -12523287.39547  20911817.600    20911823.5324
 01  5 15 18 30 30.0000000  0  6 30 06 05 24 17 10
  20475536.604   -12407044.515 9  -9657475.11648  20475536.831    20475541.6014
  21356679.537   -15275816.404 9 -11888415.47947  21356679.379    21356684.8824
  21363927.463     2826377.040 9   2219311.08947  21363926.971    21363933.1854
  23119418.717    12874513.182 8  10030955.35246  23119418.449    23119425.8364
  23135926.085   -11886017.828 8  -9245194.98546  23135925.632    23135933.4674
  20912339.393   -16097614.655 9 -12521154.08647  20912338.589    20912344.5324
 01  5 15 18 31  0.0000000  0  6 30 06 05 24 17 10
  20479115.333   -12388238.308 9  -9642820.95048  20479115.553    20479120.3604
  21346709.511   -15328209.164 9 -11929240.99847  21346709.371    21346714.8934
  21378603.883     2903501.776 9   2279408.21947  21378603.401    21378609.6174
  23134794.299    12955312.096 8  10093915.47646  23134794.035    23134801.3864
  23121729.822   -11960619.329 8  -9303325.94846  23121729.320    23121737.2034
  20912980.304   -16094246.727 9 -12518529.72747  20912979.496    20912985.4454
 01  5 15 18 31 30.0000000  0  6 30 06 05 24 17 10
  20482805.766   -12368844.988 9  -9627709.29448  20482806.008    20482810.8324
  21336768.455   -15380449.707 9 -11969947.90047  21336768.303    21336773.8484
  21393354.196     2981014.874 9   2339807.96147  21393353.699    21393359.9224
  23150177.547    13036151.406 8  10156907.07046  23150177.286    23150184.6664
  23107575.205   -12035001.746 8  -9361286.19446  23107574.719    23107582.6494
  20913741.111   -16090248.502 9 -12515414.22947  20913740.309    20913746.2864
 01  5 15 18 32  0.0000000  0  6 30 06 05 24 17 10
  20486607.909   -12348864.721 9  -9612140.27848  20486608.156    20486612.9974
  21326856.617   -15432536.762 9 -12010535.20547  21326856.465    21326862.0224
  21408178.011     3058914.243 9   2400508.69747  21408177.527    21408183.7534
  23165568.231    13117029.594 8  10219928.96246  23165568.030    23165575.3644
  23093462.441   -12109164.541 8  -9419075.31046  23093461.939    23093469.8254
  20914621.752   -16085620.671 9 -12511808.13447  20914620.949    20914626.9534
 01  5 15 18 32 30.0000000  0  6 30 06 05 24 17 10
  20490521.593   -12328298.342 9  -9596114.55648  20490521.837    20490526.6714
  21316974.138   -15484469.448 9 -12051002.22447  21316973.986    21316979.5514
  21423074.868     3137197.477 9   2461508.54247  21423074.384    21423080.6134
  23180966.006    13197945.144 8  10282979.95546  23180965.841    23180973.1704
  23079391.436   -12183107.711 8  -9476693.29146  23079390.970    23079398.8444
  20915622.091   -16080363.605 9 -12507711.72547  20915621.307    20915627.3404
 01  5 15 18 33  0.0000000  0  6 30 06 05 24 17 10
  20494546.743   -12307146.241 9  -9579632.42248  20494546.980    20494551.7984
  21307121.349   -15536246.304 9 -12091347.81247  21307121.187    21307126.7684
  21438044.400     3215862.567 9   2522805.94747  21438043.891    21438050.1174
  23196370.687    13278896.878 8  10346059.14746  23196370.447    23196377.7994
  23065362.411   -12256830.454 8  -9534139.50246  23065361.932    23065369.8294
  20916742.238   -16074477.251 9 -12503124.95947  20916741.451    20916747.4854
 01  5 15 18 33 30.0000000  0  6 30 06 05 24 17 10
  20498683.248   -12285408.877 9  -9562694.24248  20498683.487    20498688.2884
  21297298.392   -15587866.258 9 -12131571.14847  21297298.237    21297303.7964
  21453086.183     3294907.220 9   2584399.10547  21453085.668    21453091.8934
  23211781.968    13359883.603 8  10409165.60346  23211781.758    23211789.1174
  23051375.372   -12330332.556 8  -9591413.79646  23051374.885    23051382.7824
  20917982.103   -16067961.841 9 -12498048.02447  20917981.313    20917987.3534
 01  5 15 18 34  0.0000000  0  6 30 06 05 24 17 10
  20502931.071   -12263086.602 9  -9545300.28448  20502931.316    20502936.1134
  21287505.618   -15639327.805 9 -12171671.04247  21287505.477    21287511.0154
  21468199.771     3374329.351 8   2646286.40547  21468199.255    21468205.5034
  23227199.675    13440904.036 8  10472298.32346  23227199.505    23227206.8204
  23037430.436   -12403613.335 8  -9648515.63146  23037429.939    23037437.9184
  20919341.608   -16060817.792 9 -12492481.23147  20919340.802    20919346.8454
 01  5 15 18 34 30.0000000  0  6 30 06 05 24 17 10
  20507289.982   -12240180.219 9  -9527451.17948  20507290.228    20507295.0644
  21277743.180   -15690629.834 9 -12211646.64347  21277743.045    21277748.5764
  21483384.775     3454126.838 8   2708466.19547  21483384.262    21483390.5334
  23242623.602    13521957.110 8  10535456.49245  23242623.436    23242630.7474
  23023527.658   -12476672.638 8  -9705444.88046  23023527.174    23023535.1634
  20920820.669   -16053045.405 9 -12486424.82947  20920819.878    20920825.9114
 01  5 15 18 35  0.0000000  0  6 30 06 05 24 17 10
  20511759.940   -12216690.308 9  -9509147.37848  20511760.184    20511765.0454
  21268011.261   -15741771.492 9 -12251497.27647  21268011.132    21268016.6584
  21498640.674     3534296.943 8   2770936.33147  21498640.161    21498646.5104
  23258053.354    13603040.722 8  10598638.43545  23258053.195    23258060.4094
  23009667.017   -12549510.328 8  -9762201.44646  23009666.559    23009674.5194
  20922419.094   -16044645.659 9 -12479879.57347  20922418.301    20922424.3274
 01  5 15 18 35 30.0000000  0  7 30 06 05 24 17 15 10
  20516340.935   -12192617.185 9  -9490389.12648  20516341.183    20516346.0764
  21258310.148   -15792751.168 9 -12291221.69147  21258310.028    21258315.5184
  21513967.072     3614837.613 8   2833695.22047  21513966.571    21513972.9834
  23273488.910    13684154.258 8  10661843.70446  23273488.699    23273495.9104
  22995848.722   -12622125.655 8  -9818784.74746  22995848.266    22995856.2704
  24671355.419                                    24671358.844    24671517.2834
  20924136.939   -16035618.459 9 -12472845.39547  20924136.132    20924142.1364
 01  5 15 18 36  0.0000000  0  6 30 06 05 24 17 10
  20521032.688   -12167961.976 9  -9471177.30348  20521032.934    20521037.8274
  21248640.089   -15843567.648 9 -12330818.94047  21248639.943    21248645.4534
  21529363.604     3695746.813 8   2896741.27147  21529363.122    21529369.5924
  23288929.784    13765296.145 8  10725071.06946  23288929.590    23288936.7664
  22982072.854   -12694518.325 8  -9875194.54246  22982072.382    22982080.3814
  20925974.096   -16025964.170 9 -12465322.57747  20925973.300    20925979.2704
 01  5 15 18 36 30.0000000  0  7 30 06 05 24 17 15 10
  20525835.089   -12142725.133 9  -9451512.25948  20525835.340    20525840.2504
  21239001.311   -15894219.635 9 -12370288.01247  21239001.165    21239006.6814
  21544829.794     3777022.138 8   2960072.61847  21544829.325    21544835.8224
  23304375.839    13846465.124 8  10788319.52246  23304375.656    23304382.8044
  22968339.360   -12766688.143 8  -9931430.70446  22968338.860    22968346.8584
  24636379.512                                    24636384.156    24636391.0044
  20927930.486   -16015683.363 9 -12457311.56647  20927929.706    20927935.6334
 01  5 15 18 37  0.0000000  0  7 30 06 05 24 17 15 10
  20530747.880   -12116908.427 9  -9431395.37748  20530748.139    20530753.0444
  21229393.824   -15944707.010 9 -12409628.82347  21229393.697    21229399.2194
  21560365.067     3858660.252 8   3023686.65147  21560364.580    21560371.1364
  23319826.621    13927658.810 8  10851587.23846  23319826.440    23319833.5774
  22954648.145   -12838635.758 8  -9987493.71346  22954647.619    22954655.6414
  24618936.588    -1468421.413 7  -1117860.02554  24618933.237    24618945.9234
  20930005.796   -16004777.688 9 -12448813.64547  20930005.019    20930010.9604
 01  5 15 18 37 30.0000000  0  7 30 06 05 24 17 15 10
  20535770.002   -12090517.107 9  -9410830.74548  20535770.262    20535775.1674
  21219817.074   -15995032.968 9 -12448843.84947  21219816.956    21219822.4734
  21575968.065     3940654.433 8   3087578.13847  21575967.568    21575974.1714
  23335281.022    14008871.666 8  10914869.87445  23335280.791    23335287.9954
  22940998.408   -12910365.262 8 -10043386.76946  22940997.908    22941005.8764
  24601517.546    -1559955.467 7  -1189185.12445  24601515.475    24601527.1814
  20932199.079   -15993251.860 9 -12439832.48547  20932198.291    20932204.2634
 01  5 15 18 38  0.0000000  0  7 30 06 05 24 17 15 10
  20540902.140   -12063547.640 9  -9389815.60848  20540902.399    20540907.3164
  21210272.152   -16045191.886 9 -12487928.70747  21210272.044    21210277.5444
  21591639.241     4023006.843 8   3151748.77547  21591638.740    21591645.3984
  23350739.644    14090106.866 8  10978169.94446  23350739.449    23350746.6784
  22927391.086   -12981872.054 8 -10099106.28446  22927390.618    22927398.4964
  24584126.518    -1651341.896 7  -1260395.17245  24584123.695    24584136.1684
  20934511.048   -15981102.372 9 -12430365.35747  20934510.270    20934516.2594
 01  5 15 18 38 30.0000000  0  7 30 06 05 24 17 15 10
  20546144.623   -12035998.504 9  -9368348.78248  20546144.880    20546149.8074
  21200759.607   -16095180.475 9 -12526880.84647  21200759.480    21200765.0004
  21607378.506     4105716.990 8   3216198.16347  21607378.004    21607384.7054
  23366202.652    14171365.190 8  11041488.01446  23366202.494    23366209.7514
  22913826.632   -13053153.708 8 -10154650.36846  22913826.158    22913833.9804
  24566764.572    -1742577.761 7  -1331487.88145  24566762.874    24566774.7084
  20936941.957   -15968327.874 9 -12420411.21347  20936941.177    20936947.2014
 01  5 15 18 39  0.0000000  0  7 30 06 05 24 17 15 10
  20551497.512   -12007869.084 9  -9346429.78448  20551497.764    20551502.6584
  21191280.116   -16144995.590 9 -12565697.81447  21191279.972    21191285.4774
  21623185.775     4188784.392 8   3280925.93047  21623185.270    21623191.9964
  23381670.202    14252647.082 8  11104824.46046  23381670.067    23381677.3294
  22900305.358   -13124208.239 8 -10210017.46646  22900304.879    22900312.6664
  24549431.854    -1833660.662 7  -1402461.42345  24549430.223    24549442.4734
  20939492.042   -15954927.226 9 -12409969.15847  20939491.272    20939497.2994
 01  5 15 18 39 30.0000000  0  7 30 06 05 24 17 15 10
  20556960.765   -11979159.809 9  -9324058.95548  20556961.012    20556965.8964
  21181833.891   -16194635.672 9 -12604378.39447  21181833.762    21181839.2614
  21639060.626     4272207.009 8   3345930.49247  21639060.130    21639066.8554
  23397141.985    14333951.522 8  11168178.47545  23397141.835    23397149.1784
  22886827.403   -13195034.898 8 -10265207.01046  22886826.929    22886834.6714
  24532128.395    -1924589.491 7  -1473314.89745  24532127.191    24532139.2704
  20942161.207   -15940900.730 9 -12399039.43747  20942160.434    20942166.4504
 01  5 15 18 40  0.0000000  0  7 30 06 05 24 17 15 10
  20562533.963   -11949872.810 9  -9301237.95248  20562534.214    20562539.0914
  21172421.040   -16244100.809 9 -12642922.64847  21172420.888    21172426.3704
  21655002.387     4355981.127 8   3411208.94147  21655001.894    21655008.6164
  23412617.614    14415276.059 8  11231548.15245  23412617.452    23412624.8574
  22873392.600   -13265634.845 8 -10320219.90046  22873392.140    22873399.8594
  24514854.054    -2015364.921 7  -1544048.83945  24514853.100    24514865.3944
  20944949.055   -15926250.361 9 -12387623.57947  20944948.284    20944954.3254
 01  5 15 18 40 30.0000000  0  7 30 06 05 24 17 15 10
  20568216.744   -11920009.769 9  -9277968.08948  20568216.990    20568221.8894
  21163041.543   -16293390.417 9 -12681330.12947  21163041.401    21163046.8984
  21671010.419     4440103.628 8   3476758.86047  21671009.932    21671016.6404
  23428096.758    14496618.955 8  11294932.12545  23428096.566    23428104.0374
  22860000.874   -13336008.500 8 -10375056.46146  22860000.402    22860008.1744
  24497609.148    -2105986.922 7  -1614663.21745  24497608.170    24497620.5514
  20947855.407   -15910977.493 9 -12375722.66247  20947854.632    20947860.6614
 01  5 15 18 41  0.0000000  0  7 30 06 05 24 17 15 10
  20574008.840   -11889572.199 9  -9254250.53948  20574009.100    20574014.0244
  21153695.564   -16342503.787 9 -12719600.28347  21153695.441    21153700.9354
  21687084.208     4524571.675 8   3542578.03947  21687083.724    21687090.4484
  23443578.930    14577977.980 8  11358328.66645  23443578.718    23443586.1844
  22846652.103   -13406156.190 8 -10429716.94046  22846651.653    22846659.4264
  24480393.400    -2196455.568 7  -1685158.12945  24480392.537    24480404.7424
  20950879.918   -15895083.455 9 -12363337.72147  20950879.178    20950885.1944
 01  5 15 18 41 30.0000000  0  7 30 06 05 24 17 15 10
  20579910.141   -11858560.750 9  -9230085.80748  20579910.394    20579915.3394
  21144383.464   -16391439.327 9 -12757731.86347  21144383.328    21144388.8114
  21703223.339     4609383.160 8   3608664.83147  21703222.861    21703229.5924
  23459064.030    14659352.668 8  11421737.41245  23459063.858    23459071.4174
  22833346.519   -13476077.258 8 -10484200.82746  22833346.063    22833353.8754
  24463207.043    -2286769.612 7  -1755532.54645  24463206.245    24463218.3054
  20954022.582   -15878568.836 9 -12350469.20247  20954021.823    20954027.8334
 01  5 15 18 42  0.0000000  0  7 30 06 05 24 17 15 10
  20585920.424   -11826976.680 9  -9205474.87548  20585920.684    20585925.6354
  21135105.394   -16440196.066 9 -12795724.11747  21135105.261    21135110.7084
  21719427.362     4694535.393 8   3675017.14147  21719426.874    21719433.6304
  23474551.763    14740741.197 8  11485156.94445  23474551.656    23474559.3044
  22820084.023   -13545771.779 8 -10538508.17446  22820083.545    22820091.3954
  24446050.200    -2376928.691 7  -1825786.20445  24446049.602    24446061.4154
  20957283.107   -15861434.803 9 -12337118.02147  20957282.365    20957288.3794
 01  5 15 18 42 30.0000000  0  7 30 06 05 24 17 15 10
  20592039.522   -11794820.701 9  -9180418.30648  20592039.777    20592044.7544
  21125861.657   -16488772.314 9 -12833575.73847  21125861.530    21125866.9344
  21735695.767     4780026.058 8   3741633.16647  21735695.271    21735702.0414
  23490042.109    14822142.944 8  11548586.77645  23490041.892    23490049.6404
  22806864.698   -13615239.274 8 -10592638.62846  22806864.227    22806872.0764
  24428923.150    -2466932.013 7  -1895918.49645  24428922.509    24428934.2724
  20960661.408   -15843681.862 9 -12323284.58347  20960660.656    20960666.6904
 01  5 15 18 43  0.0000000  0  7 30 06 05 24 17 15 10
  20598267.064   -11762094.806 9  -9154917.64548  20598267.326    20598272.3204
  21116652.329   -16537167.806 9 -12871286.50747  21116652.196    21116657.5654
  21752027.945     4865851.708 8   3808510.20947  21752027.485    21752034.2124
  23505534.502    14903555.694 8  11612025.17945  23505534.307    23505542.0424
  22793688.473   -13684480.646 8 -10646592.88946  22793687.988    22793695.7704
  24411825.555    -2556780.114 7  -1965929.86045  24411824.996    24411836.5664
  20964157.097   -15825312.031 9 -12308970.44847  20964156.347    20964162.3584
 01  5 15 18 43 30.0000000  0  7 30 06 05 24 17 15 10
  20604603.062   -11728799.073 9  -9128972.95348  20604603.320    20604608.3284
  21107477.803   -16585380.313 9 -12908854.68947  21107477.667    21107483.0164
  21768423.606     4952011.026 8   3875647.25947  21768423.144    21768429.8434
  23521028.935    14984978.927 8  11675471.75445  23521028.711    23521036.4394
  22780555.526   -13753494.587 8 -10700369.91946  22780555.070    22780562.7584
  24394757.833    -2646471.361 7  -2035818.99245  24394757.451    24394768.8104
  20967770.252   -15806324.795 9 -12294175.21747  20967769.495    20967775.5254
 01  5 15 18 44  0.0000000  0  7 30 06 05 24 17 15 10
  20611047.264   -11694934.717 9  -9102585.18148  20611047.509    20611052.5604
  21098338.360   -16633408.469 9 -12946279.22247  21098338.214    21098343.5864
  21784882.313     5038501.513 8   3943042.35647  21784881.830    21784888.5514
  23536525.129    15066411.514 8  11738925.62945  23536524.893    23536532.6474
  22767465.929   -13822280.942 8 -10753969.60846  22767465.452    22767473.1174
  24377720.130    -2736004.828 7  -2105585.16645  24377719.656    24377731.0024
  20971500.668   -15786721.275 9 -12278899.76947  20971499.903    20971505.9644
 01  5 15 18 44 30.0000000  0  7 30 06 05 24 17 15 10
  20617599.436   -11660503.106 9  -9075755.39048  20617599.683    20617604.7374
  21089234.170   -16681251.388 9 -12983559.41747  21089234.017    21089239.3944
  21801403.524     5125320.510 8   4010693.44047  21801403.022    21801409.7464
  23552022.851    15147851.935 8  11802385.59245  23552022.603    23552030.3284
  22754419.575   -13890839.692 8 -10807391.95246  22754419.093    22754426.7314
  24360712.548    -2825380.237 7  -2175228.19045  24360712.140    24360723.3394
  20975348.133   -15766502.820 9 -12263145.14547  20975347.369    20975353.4414
 01  5 15 18 45  0.0000000  0  7 30 06 05 24 17 15 10
  20624259.432   -11625504.692 9  -9048483.93448  20624259.692    20624264.7354
  21080165.544   -16728907.331 9 -13020693.91347  21080165.395    21080170.7674
  21817986.883     5212466.002 8   4078598.92547  21817986.372    21817993.1054
  23567521.981    15229299.827 8  11865851.37645  23567521.704    23567529.4574
  22741416.670   -13959170.282 8 -10860636.50446  22741416.195    22741423.7974
  24343735.151    -2914596.371 7  -2244747.08645  24343734.763    24343746.0044
  20979312.481   -15745670.038 9 -12246911.82847  20979311.705    20979317.8114
 01  5 15 18 45 30.0000000  0  7 30 06 05 24 17 15 10
  20631027.031   -11589940.836 9  -9020771.87848  20631027.287    20631032.3664
  21071132.712   -16776375.096 9 -13057681.77947  21071132.578    21071137.9784
  21834631.836     5299935.366 8   4146756.78847  21834631.309    21834638.0504
  23583022.344    15310754.319 8  11929322.30145  23583022.104    23583029.7974
  22728457.192   -14027272.695 8 -10913703.26046  22728456.697    22728464.2924
  24326788.088    -3003653.058 7  -2314141.73445  24326787.696    24326798.8994
  20983393.482   -15724224.197 9 -12230200.80347  20983392.690    20983398.8314
 01  5 15 18 46  0.0000000  0  7 30 06 05 24 17 15 10
  20637901.950   -11553812.997 9  -8992620.35148  20637902.208    20637907.2754
  21062135.943   -16823653.381 9 -13094521.99547  21062135.817    21062141.2344
  21851337.905     5387725.988 8   4215164.97247  21851337.394    21851344.1324
  23598523.634    15392213.531 8  11992796.91245  23598523.412    23598531.0804
  22715541.112   -14095146.809 8 -10966592.11746  22715540.648    22715548.2324
  24309871.426    -3092549.783 7  -2383411.74945  24309870.878    24309882.3504
  20987590.969   -15702166.274 9 -12213012.82947  20987590.164    20987596.3474
 01  5 15 18 46 30.0000000  0  7 30 06 05 24 17 15 10
  20644884.086   -11517121.822 9  -8964029.86548  20644884.354    20644889.4054
  21053175.623   -16870740.104 9 -13131212.94747  21053175.490    21053180.9374
  21868104.742     5475835.819 8   4283821.89347  21868104.226    21868111.0024
  23614025.714    15473676.970 8  12056274.82345  23614025.490    23614033.2064
  22702668.689   -14162791.950 8 -11019302.56646  22702668.220    22702675.7744
  24292985.308    -3181285.601 7  -2452556.40045  24292984.797    24292996.1844
  20991904.803   -15679496.841 9 -12195348.35547  20991904.007    20991910.1854
 01  5 15 18 47  0.0000000  0  7 30 06 05 24 17 15 10
  20651973.118   -11479868.879 9  -8935001.63448  20651973.366    20651978.4224
  21044251.914   -16917634.567 9 -13167754.08147  21044251.788    21044257.2324
  21884931.778     5564261.925 8   4352725.26247  21884931.257    21884938.0464
  23629528.386    15555143.302 8  12119754.98145  23629528.128    23629535.9294
  22689839.772   -14230208.380 8 -11071834.78446  22689839.291    22689846.8534
  24276129.983    -3269860.322 7  -2521575.51745  24276129.396    24276140.6264
  20996334.788   -15656217.225 9 -12177208.41047  20996333.990    20996340.1964
 01  5 15 18 47 30.0000000  0  7 30 06 05 24 17 15 10
  20659168.785   -11442055.482 9  -8905536.68448  20659169.045    20659174.1024
  21035365.073   -16964335.166 9 -13204144.14947  21035364.940    21035370.4084
  21901818.503     5653001.872 8   4421873.18347  21901817.977    21901824.7704
  23645031.407    15636611.439 8  12183236.53545  23645031.215    23645038.9244
  22677054.377   -14297395.878 8 -11124188.61646  22677053.882    22677061.4474
  24259305.495    -3358273.012 7  -2590468.35945  24259304.953    24259316.1164
  21000880.673   -15632328.532 9 -12158593.85447  21000879.883    21000886.0934
 01  5 15 18 48  0.0000000  0  7 30 06 05 24 17 15 10
  20666470.958   -11403682.479 9  -8875635.67748  20666471.230    20666476.2884
  21026515.429   -17010840.497 9 -13240382.06747  21026515.296    21026520.7814
  21918764.501     5742053.319 8   4491263.82547  21918763.985    21918770.7984
  23660534.467    15718080.231 8  12246718.59645  23660534.303    23660542.0514
  22664312.601   -14364354.112 8 -11176363.80946  22664312.103    22664319.6734
  24242512.010    -3446522.872 7  -2659234.33445  24242511.259    24242522.4994
  21005542.257   -15607831.771 9 -12139505.48747  21005541.476    21005547.6844
 01  5 15 18 48 30.0000000  0  7 30 06 05 24 17 15 10
  20673879.339   -11364751.208 9  -8845299.66448  20673879.611    20673884.7404
  21017703.176   -17057149.323 9 -13276466.86847  21017703.037    21017708.5144
  21935769.274     5831413.644 8   4560895.15047  21935768.763    21935775.5894
  23676037.498    15799548.504 8  12310200.25145  23676037.270    23676045.0954
  22651614.492   -14431082.920 8 -11228360.23246  22651614.004    22651621.5754
  24225749.559    -3534609.442 7  -2727873.06145  24225748.793    24225760.1324
  21010319.399   -15582727.968 9 -12119944.10147  21010318.629    21010324.8354
 01  5 15 18 49  0.0000000  0  7 30 06 05 24 17 15 10
  20681393.791   -11325262.608 9  -8814529.36048  20681394.069    20681399.2484
  21008928.660   -17103259.672 9 -13312397.00347  21008928.521    21008933.9984
  21952832.456     5921080.973 8   4630765.70447  21952831.940    21952838.7904
  23691540.384    15881016.334 8  12373681.57645  23691540.188    23691547.9024
  22638960.127   -14497581.702 8 -11280177.40946  22638959.655    22638967.2104
  24209018.419    -3622531.722 7  -2796383.76645  24209017.666    24209028.8914
  21015211.888   -15557017.991 9 -12099910.36947  21015211.122    21015217.2834
 01  5 15 18 49 30.0000000  0  7 30 06 05 24 17 15 10
  20689013.969   -11285218.544 9  -8783326.23448  20689014.243    20689019.4374
  21000192.108   -17149170.723 9 -13348171.85047  21000191.969    21000197.4104
  21969953.487     6011052.246 8   4700873.09347  21969952.978    21969959.8324
  23707042.784    15962481.728 8  12437160.97545  23707042.566    23707050.2904
  22626349.525   -14563850.684 8 -11331815.52946  22626349.074    22626356.6084
  24192318.525    -3710289.674 7  -2864766.43745  24192317.897    24192328.9024
  21020219.373   -15530703.637 9 -12079405.70047  21020218.605    21020224.7484
 01  5 15 18 50  0.0000000  0  7 30 06 05 24 17 15 10
  20696739.616   -11244620.252 9  -8751691.24248  20696739.885    20696745.0744
  20991493.778   -17194880.861 9 -13383790.13847  20991493.641    20991499.0384
  21987131.925     6101325.088 8   4771215.47447  21987131.415    21987138.2754
  23722544.624    16043943.958 8  12500637.92545  23722544.434    23722552.0964
  22613782.674   -14629889.754 8 -11383274.49246  22613782.205    22613789.6794
  24175649.973    -3797882.583 7  -2933020.51645  24175649.307    24175660.4764
  21025341.734   -15503785.561 9 -12058430.59647  21025340.969    21025347.1104
 01  5 15 18 50 30.0000000  0  8 30 06 23 05 24 17 15 10
  20704569.047   -11203476.609 9  -8719631.29948  20704569.315    20704574.4944
  20982832.486   -17240396.348 9 -13419256.74747  20982832.347    20982837.7324
  24529189.857    -1764620.981 7  -1051153.16645  24529188.685    24529203.2634
  22004365.820     6191889.429 8   4841784.98846  22004365.324    22004372.1564
  23738044.188    16125394.388 8  12564105.67745  23738044.064    23738051.7454
  22601258.184   -14695706.354 8 -11434560.10346  22601257.715    22601265.1514
  24159011.520    -3885317.373 7  -3001151.36545  24159010.845    24159022.1224
  21030577.309   -15476272.661 9 -12036991.99247  21030576.555    21030582.6874
 01  5 15 18 51  0.0000000  0  8 30 06 23 05 24 17 15 10
  20712503.363   -11161781.571 9  -8687141.70348  20712503.632    20712508.8214
  20974209.906   -17285708.411 9 -13454564.84847  20974209.777    20974215.1164
  24508649.957    -1872557.899 7  -1135259.47845  24508649.446    24508663.3614
  22021656.082     6282750.136 8   4912585.44746  22021655.595    22021662.4154
  23753542.664    16206839.086 8  12627568.96945  23753542.564    23753550.2504
  22588777.492   -14761292.854 8 -11485666.41946  22588777.045    22588784.4244
  24142404.678    -3972586.082 7  -3069152.81145  24142403.992    24142415.1544
  21035927.141   -15448159.116 9 -12015085.35647  21035926.381    21035932.5474
 01  5 15 18 51 30.0000000  0  8 30 06 23 05 24 17 15 10
  20720543.048   -11119532.794 9  -8654220.62248  20720543.326    20720548.5264
  20965627.020   -17330811.791 9 -13489710.33747  20965626.879    20965632.2044
  24488120.532    -1980439.614 7  -1219322.77945  24488119.868    24488134.0474
  22039002.998     6373908.513 8   4983617.84946  22039002.506    22039009.3174
  23769040.578    16288280.921 8  12691030.00745  23769040.396    23769048.2604
  22576341.293   -14826645.318 8 -11536590.37246  22576340.825    22576348.2184
  24125830.296    -4059684.501 7  -3137021.56245  24125829.756    24125840.7204
  21041391.803   -15419442.270 9 -11992708.61547  21041391.048    21041397.2354
 01  5 15 18 52  0.0000000  0  8 30 06 23 05 24 17 15 10
  20728687.577   -11076733.253 9  -8620870.37348  20728687.848    20728693.0614
  20957083.794   -17375706.731 9 -13524693.40947  20957083.663    20957088.9834
  24467601.683    -2088265.563 7  -1303342.61245  24467601.153    24467615.1544
  22056405.762     6465360.367 8   5054878.93846  22056405.288    22056412.1034
  23784537.486    16369717.557 8  12754487.01445  23784537.257    23784545.3304
  22563949.319   -14891765.368 8 -11587333.21846  22563948.834    22563956.2554
  24109288.030    -4146613.607 7  -3204758.36245  24109287.498    24109298.4284
  21046970.615   -15390125.340 9 -11969864.27547  21046969.846    21046976.0494
 01  5 15 18 52 30.0000000  0  8 30 06 23 05 24 17 15 10
  20736936.580   -11033384.656 9  -8587092.28948  20736936.847    20736942.0674
  20948580.432   -17420391.966 9 -13559513.07447  20948580.320    20948585.6254
  24447093.890    -2196033.325 7  -1387317.10945  24447093.470    24447107.3534
  22073863.920     6557102.999 8   5126366.60546  22073863.432    22073870.2484
  23800033.061    16451147.551 8  12817938.84545  23800032.830    23800041.0854
  22551601.519   -14956653.019 8 -11637894.97346  22551601.042    22551608.5124
  24092778.052    -4233372.942 7  -3272362.88945  24092777.528    24092788.5994
  21052663.427   -15360209.463 9 -11946553.22747  21052662.665    21052668.8774
 01  5 15 18 53  0.0000000  0  8 30 06 23 05 24 17 15 10
  20745289.560   -10989489.650 9  -8552888.43248  20745289.815    20745295.0594
  20940117.036   -17464867.347 9 -13594169.21647  20940116.939    20940122.2284
  24426597.419    -2303741.694 7  -1471245.32445  24426596.910    24426610.7914
  22091376.606     6649132.514 8   5198077.80946  22091376.118    22091382.9634
  23815527.027    16532568.725 8  12881383.80045  23815526.803    23815535.2614
  22539297.713   -15021309.402 8 -11688276.52446  22539297.270    22539304.7764
  24076300.243    -4319963.323 7  -3339835.74245  24076299.705    24076310.7724
  21058469.652   -15329697.560 9 -11922777.74547  21058468.875    21058475.1244
 01  5 15 18 53 30.0000000  0  8 30 06 23 05 24 17 15 10
  20753746.231   -10945049.648 9  -8518259.90148  20753746.490    20753751.7494
  20931693.883   -17509131.217 9 -13628660.54447  20931693.780    20931699.0874
  24406112.733    -2411388.162 7  -1555125.30545  24406112.230    24406125.9414
  22108943.385     6741446.366 8   5270010.57446  22108942.897    22108949.8574
  23831019.187    16613980.373 8  12944821.33745  23831018.918    23831027.5174
  22527037.923   -15085734.398 8 -11738477.76946  22527037.496    22527045.0734
  24059854.678    -4406384.035 7  -3407176.38645  24059854.100    24059865.3994
  21064389.086   -15298590.931 9 -11898538.83747  21064388.317    21064394.5744
 01  5 15 18 54  0.0000000  0  8 30 06 23 05 24 17 15 10
  20762306.305   -10900066.401 9  -8483208.06248  20762306.564    20762311.8114
  20923311.218   -17553182.416 9 -13662986.14947  20923311.103    20923316.4174
  24385640.191    -2518970.513 7  -1638955.32945  24385639.804    24385653.2874
  22126563.761     6834041.841 8   5342162.78646  22126563.299    22126570.3394
  23846509.252    16695381.166 7  13008250.39845  23846509.025    23846517.8074
  22514822.252   -15149927.940 8 -11788498.67446  22514821.813    22514829.4224
  24043441.609    -4492634.784 7  -3474384.60145  24043441.162    24043452.1074
  21070421.362   -15266891.023 9 -11873837.63447  21070420.591    21070426.8834
 01  5 15 18 54 30.0000000  0  8 30 06 23 05 24 17 15 10
  20770969.404   -10854541.942 9  -8447734.50448  20770969.657    20770974.8824
  20914969.184   -17597020.041 9 -13697145.33847  20914969.088    20914974.4034
  24365180.250    -2626486.712 7  -1722733.81045  24365179.838    24365193.3744
  22144237.182     6926915.959 8   5414532.11546  22144236.724    22144243.8164
  23861996.995    16776769.483 8  13071669.74945  23861996.824    23862005.6504
  22502650.496   -15213890.584 8 -11838339.64446  22502650.060    22502657.6664
  24027060.925    -4578715.715 7  -3541460.49045  24027060.462    24027071.3884
  21076566.220   -15234599.759 9 -11848675.63647  21076565.447    21076571.7454
 01  5 15 18 55  0.0000000  0  8 30 06 23 05 24 17 15 10
  20779735.236   -10808477.413 9  -8411840.10747  20779735.488    20779740.7174
  20906668.192   -17640642.177 9 -13731136.60647  20906668.095    20906673.3904
  24344733.406    -2733933.921 7  -1806458.53245  24344733.022    24344746.5494
  22161963.232     7020066.565 8   5487116.89646  22161962.772    22161969.9034
  23877482.336    16858145.313 7  13135079.35645  23877482.163    23877491.0984
  22490522.788   -15277621.830 8 -11888000.30446  22490522.346    22490529.9514
  24010712.743    -4664625.697 7  -3608403.17245  24010712.210    24010723.1774
  21082823.407   -15201718.174 9 -11823053.64447  21082822.636    21082828.8984
 01  5 15 18 55 30.0000000  0  8 30 06 23 05 24 17 15 10
  20788603.453   -10761874.722 9  -8375526.36847  20788603.719    20788608.9644
  20898408.427   -17684047.624 9 -13764959.02947  20898408.303    20898413.6224
  24324300.129    -2841309.895 7  -1890127.75445  24324299.728    24324313.2204
  22179741.356     7113490.740 8   5559914.83846  22179740.894    22179748.0174
  23892965.059    16939507.473 7  13198478.33045  23892964.954    23892973.9194
  22478439.084   -15341121.757 8 -11937480.72446  22478438.651    22478446.2684
  23994397.203    -4750364.446 7  -3675212.43645  23994396.615    23994407.4734
  21089192.622   -15168247.873 9 -11796972.91947  21089191.836    21089198.0924
 01  5 15 18 56  0.0000000  0  8 30 06 23 05 24 17 15 10
  20797573.842   -10714735.239 9  -8338794.34847  20797574.109    20797579.3584
  20890190.190   -17727234.801 9 -13798611.37147  20890190.062    20890195.3754
  24303880.907    -2948612.059 7  -1973739.46245  24303880.554    24303893.9614
  22197571.119     7207186.030 8   5632924.04746  22197570.651    22197577.7874
  23908444.993    17020854.848 7  13261865.77045  23908444.888    23908453.9414
  22466399.475   -15404390.290 8 -11986780.83646  22466399.066    22466406.6384
  23978114.223    -4835931.586 7  -3741887.96745  23978113.607    23978124.3754
  21095673.544   -15134190.408 9 -11770434.65747  21095672.760    21095679.0224
 01  5 15 18 56 30.0000000  0  8 30 06 23 05 24 17 15 10
  20806646.012   -10667060.803 9  -8301645.48047  20806646.268    20806651.5444
  20882013.767   -17770202.370 9 -13832092.59047  20882013.643    20882018.9594
  24283476.166    -3055838.138 7  -2057291.89445  24283475.810    24283489.1284
  22215451.955     7301149.786 8   5706142.45446  22215451.463    22215458.6274
  23923921.968    17102186.413 7  13325240.88945  23923921.833    23923930.8374
  22454403.887   -15467427.418 8 -12035900.62746  22454403.450    22454411.0604
  23961863.991    -4921326.666 7  -3808429.43845  23961863.447    23961874.0234
  21102265.927   -15099547.297 9 -11743440.05547  21102265.166    21102271.4044
 01  5 15 18 57  0.0000000  0  8 30 06 23 05 24 17 15 10
  20815819.751   -10618852.634 9  -8264080.72147  20815820.018    20815825.3344
  20873879.390   -17812948.744 9 -13865401.45047  20873879.264    20873884.5914
  24263086.364    -3162985.515 7  -2140782.99645  24263085.936    24263099.3694
  22233383.398     7395379.578 8   5779568.15646  22233382.909    22233390.1014
  23939395.882    17183501.679 7  13388603.31645  23939395.701    23939404.7154
  22442452.362   -15530232.880 8 -12084839.91046  22442451.934    22442459.5394
  23945646.712    -5006548.866 7  -3874836.20145  23945646.154    23945656.5504
  21108969.481   -15064319.962 9 -11715990.21447  21108968.725    21108974.9474
 01  5 15 18 57 30.0000000  0  8 30 06 23 05 24 17 15 10
  20825094.635   -10570112.760 9  -8226101.64647  20825094.907    20825100.2714
  20865787.378   -17855472.506 9 -13898536.84947  20865787.276    20865792.6094
  24242712.062    -3270051.763 7  -2224210.89745  24242711.681    24242724.9154
  22251364.946     7489872.691 8   5853199.04646  22251364.461    22251371.6454
  23954866.424    17264799.370 7  13451952.03145  23954866.211    23954875.1764
  22430544.912   -15592806.660 8 -12133598.66046  22430544.468    22430552.0894
  23929462.423    -5091597.810 7  -3941107.96245  23929461.729    23929472.1134
  21115783.938   -15028510.010 9 -11688086.39047  21115783.177    21115789.4124
 01  5 15 18 58  0.0000000  0  8 30 06 23 05 24 17 15 10
  20834470.452   -10520842.761 9  -8187709.48447  20834470.716    20834476.1124
  20857737.973   -17897772.358 9 -13931497.76847  20857737.869    20857743.2214
  24222353.612    -3377034.604 7  -2307573.80545  24222353.205    24222366.3194
  22269396.075     7584626.368 8   5927032.97346  22269395.598    22269402.8314
  23970333.560    17346078.848 7  13515286.57645  23970333.253    23970342.2284
  22418681.532   -15655148.977 8 -12182177.04446  22418681.110    22418688.7124
  23913311.156    -5176473.224 8  -4007244.50745  23913310.460    23913320.8014
  21122708.891   -14992119.342 9 -11659730.05747  21122708.133    21122714.3724
 01  5 15 18 58 30.0000000  0  8 30 06 23 05 24 17 15 10
  20843946.795   -10471044.401 9  -8148905.61247  20843947.056    20843952.4654
  20849731.527   -17939846.580 9 -13964282.87547  20849731.401    20849736.7734
  24202011.499    -3483931.487 7  -2390869.74845  24202011.067    24202024.1674
  22287476.290     7679638.140 8   6001068.01346  22287475.822    22287483.1174
  23985797.029    17427339.233 7  13578606.24145  23985796.788    23985805.7064
  22406862.257   -15717259.500 8 -12230574.81446  22406861.822    22406869.3634
  23897192.967    -5261174.475 7  -4073245.35545  23897192.308    23897202.5624
  21129744.059   -14955149.443 9 -11630922.37347  21129743.303    21129749.5524
 01  5 15 18 59  0.0000000  0  8 30 06 23 05 24 17 15 10
  20853523.479   -10420718.804 9  -8109690.90747  20853523.736    20853529.1674
  20841768.382   -17981693.119 9 -13996890.56847  20841768.264    20841773.6594
  24181686.350    -3590739.472 8  -2474096.41145  24181685.888    24181698.9874
  22305605.225     7774905.896 8   6075302.51846  22305604.761    22305612.1314
  24001256.762    17508580.164 7  13641910.73645  24001256.456    24001265.4634
  22395087.177   -15779137.856 8 -12278791.67146  22395086.734    22395094.2154
  23881108.152    -5345700.692 8  -4139109.81745  23881107.534    23881117.5964
  21136889.290   -14917601.356 9 -11601664.15647  21136888.527    21136894.7744
 01  5 15 18 59 30.0000000  0  8 30 06 23 05 24 17 15 10
  20863200.028   -10369868.197 9  -8070067.10347  20863200.307    20863205.7674
  20833848.772   -18023311.008 9 -14029320.08947  20833848.657    20833854.0504
  24161378.503    -3697456.417 8  -2557252.14745  24161378.046    24161391.0944
  22323782.210     7870426.481 8   6149734.03246  22323781.737    22323789.2004
  24016712.504    17589799.801 7  13705198.64845  24016712.206    24016721.1304
  22383356.243   -15840784.450 8 -12326827.94246  22383355.805    22383363.2344
  23865056.566    -5430051.821 7  -4204837.84445  23865055.936    23865065.9764
  21144144.144   -14879477.186 9 -11571957.04547  21144143.374    21144149.6034
 01  5 15 19  0  0.0000000  0  8 30 06 23 05 24 17 15 10
  20872976.266   -10318493.911 9  -8030035.24747  20872976.539    20872982.0054
  20825972.949   -18064698.688 9 -14061570.23847  20825972.829    20825978.2274
  24141088.519    -3804079.777 8  -2640334.95645  24141088.003    24141100.9514
  22342006.874     7966197.431 8   6224360.62646  22342006.421    22342013.9344
  24032164.199    17670998.299 7  13768470.08945  24032163.939    24032172.6984
  22371669.447   -15902199.029 8 -12374683.42346  22371669.005    22371676.3784
  23849038.446    -5514227.084 7  -4270428.82745  23849037.805    23849047.8724
  21151508.267   -14840778.590 9 -11541802.33447  21151507.506    21151513.7054
 01  5 15 19  0 30.0000000  0  8 30 06 23 05 24 17 15 10
  20882851.770   -10266597.953 9  -7989596.88447  20882852.042    20882857.5114
  20818141.236   -18105854.518 9 -14093639.70947  20818141.121    20818146.5104
  24120816.809    -3910606.870 8  -2723342.75145  24120816.417    24120829.1834
  22360278.727     8062216.425 8   6299180.51046  22360278.261    22360285.8224
  24047611.567    17752174.220 7  13831723.93545  24047611.405    24047619.9184
  22360026.834   -15963381.362 8 -12422357.92546  22360026.416    22360033.7754
  23833053.903    -5598225.770 8  -4335882.22545  23833053.291    23833063.3304
  21158981.471   -14801506.866 9 -11511201.02147  21158980.702    21158986.8894
 01  5 15 19  1  0.0000000  0  8 30 06 23 05 24 17 15 10
  20892826.189   -10214182.159 9  -7948753.46047  20892826.467    20892831.9514
  20810353.890   -18146777.120 9 -14125527.44747  20810353.782    20810359.1674
  24100563.834    -4017035.528 8  -2806273.86145  24100563.548    24100576.1564
  22378597.302     8158480.686 8   6374191.49746  22378596.869    22378604.4014
  24063054.603    17833327.265 8  13894959.97445  24063054.343    24063062.9144
  22348428.341   -16024331.641 8 -12469851.61146  22348427.926    22348435.3094
  23817103.014    -5682047.747 7  -4401197.91345  23817102.384    23817112.4164
  21166563.372   -14761663.893 9 -11480154.58647  21166562.603    21166568.7754
 01  5 15 19  1 30.0000000  0  8 30 06 23 05 24 17 15 10
  20902899.211   -10161248.287 9  -7907506.33447  20902899.484    20902904.9624
  20802611.209   -18187465.033 9 -14157232.31247  20802611.092    20802616.5254
  24080330.027    -4123363.192 8  -2889126.26545  24080329.775    24080342.3754
  22396962.026     8254987.570 8   6449391.55346  22396961.566    22396969.1454
  24078493.086    17914456.197 8  13958177.19845  24078492.856    24078501.3054
  22336873.953   -16085049.971 8 -12517164.55646  22336873.545    22336880.9714
  23801185.808    -5765692.719 7  -4466375.69345  23801185.103    23801195.1684
  21174253.653   -14721251.554 9 -11448664.48547  21174252.880    21174259.0414
 01  5 15 19  2  0.0000000  0  8 30 06 23 05 24 17 15 10
  20913070.512   -10107798.119 9  -7865856.90247  20913070.782    20913076.2354
  20794913.454   -18227916.843 9 -14188753.20647  20794913.361    20794918.8204
  24060115.970    -4229587.484 8  -2971898.12945  24060115.729    24060128.2554
  22415372.473     8351734.567 8   6524778.71346  22415371.981    22415379.6324
  24093926.817    17995560.310 7  14021375.09745  24093926.622    24093935.0484
  22325363.754   -16145536.296 8 -12564296.72746  22325363.343    22325370.8254
  23785302.421    -5849160.120 7  -4531415.10545  23785301.629    23785311.7384
  21182051.890   -14680271.569 9 -11416732.06547  21182051.131    21182057.3084
 01  5 15 19  2 30.0000000  0  8 30 06 23 05 24 17 15 10
  20923339.717   -10053833.377 9  -7823806.49947  20923339.993    20923345.4474
  20787261.048   -18268130.512 9 -14220088.53247  20787260.949    20787266.4084
  24039922.109    -4335705.520 8  -3054587.20645  24039921.829    24039934.3384
  22433828.158     8448719.378 8   6600351.16546  22433827.674    22433835.2854
  24109355.784    18076639.329 7  14084553.43345  24109355.500    24109364.0704
  22313897.724   -16205790.273 8 -12611247.84246  22313897.321    22313904.8434
  23769452.825    -5932449.242 7  -4596315.59345  23769452.141    23769462.2814
  21189957.905   -14638725.388 9 -11384358.44947  21189957.148    21189963.3424
 01  5 15 19  3  0.0000000  0  8 30 06 23 05 24 17 15 10
  20933706.443    -9999356.086 9  -7781356.71247  20933706.726    20933712.1904
  20779654.239   -18308104.679 9 -14251237.23147  20779654.135    20779659.6164
  24019748.897    -4441715.120 7  -3137191.79845  24019748.605    24019761.0994
  22452328.486     8545938.922 8   6676106.54046  22452328.016    22452335.6084
  24124779.729    18157691.852 8  14147711.12445  24124779.433    24124788.0154
  22302475.940   -16265812.027 8 -12658018.01246  22302475.547    22302483.1124
  23753637.320    -6015559.564 7  -4661076.76945  23753636.699    23753646.8384
  21197971.265   -14596614.955 9 -11351545.15647  21197970.500    21197976.7284
 01  5 15 19  3 30.0000000  0  8 30 06 23 05 24 17 15 10
  20944170.218    -9944368.726 9  -7738509.46947  20944170.502    20944175.9574
  20772093.177   -18347838.334 9 -14282198.52047  20772093.079    20772098.5804
  23999596.680    -4547614.454 8  -3219710.46245  23999596.306    23999608.7744
  22470872.932     8643390.091 8   6752042.40246  22470872.478    22470880.0684
  24140198.488    18238717.073 8  14210847.55745  24140198.178    24140206.7494
  22291098.219   -16325602.169 8 -12704607.69746  22291097.824    22291105.3974
  23737855.831    -6098491.417 7  -4725698.87445  23737855.285    23737865.2734
  21206091.579   -14553942.468 9 -11318293.90847  21206090.799    21206097.0524
 01  5 15 19  4  0.0000000  0  8 30 06 23 05 24 17 15 10
  20954730.875    -9888872.430 9  -7695265.65547  20954731.161    20954736.5994
  20764578.249   -18387329.532 9 -14312970.87947  20764578.132    20764583.6544
  23979466.060    -4653400.382 8  -3302140.76645  23979465.672    23979478.1604
  22489461.040     8741070.725 8   6828157.05446  22489460.590    22489468.1954
  24155611.901    18319714.671 7  14273962.45445  24155611.668    24155620.1454
  22279764.719   -16385160.104 8 -12751016.44546  22279764.320    22279771.8514
  23722108.475    -6181243.968 7  -4790181.27345  23722107.906    23722117.8534
  21214318.579   -14510709.375 9 -11284605.81647  21214317.793    21214324.0614
 01  5 15 19  4 30.0000000  0  8 30 06 23 05 24 17 15 10
  20965387.998    -9832869.133 9  -7651626.77447  20965388.274    20965393.6894
  20757109.764   -18426576.580 9 -14343552.99547  20757109.652    20757115.1984
  23959357.524    -4759070.351 7  -3384480.72645  23959357.132    23959369.4694
  22508092.305     8838978.271 8   6904448.52646  22508091.842    22508099.5494
  24171019.861    18400683.755 8  14337055.12545  24171019.721    24171028.1314
  22268475.420   -16444485.796 8 -12797244.21946  22268475.006    22268482.5304
  23706395.328    -6263816.681 8  -4854523.52645  23706394.765    23706404.6674
  21222651.942   -14466917.422 9 -11250482.25147  21222651.154    21222657.4524
 01  5 15 19  5  0.0000000  0  8 30 06 23 05 24 17 15 10
  20976141.271    -9776360.760 9  -7607594.32847  20976141.539    20976146.9474
  20749688.013   -18465578.044 9 -14373943.74347  20749687.900    20749693.4674
  23939271.521    -4864622.037 8  -3466728.52545  23939271.148    23939283.3924
  22526766.247     8937109.985 8   6980914.67346  22526765.785    22526773.4884
  24186422.289    18481623.683 8  14400125.08845  24186422.119    24186430.4934
  22257230.303   -16503579.406 8 -12843291.14946  22257229.881    22257237.3714
  23690716.390    -6346209.257 7  -4918725.42545  23690715.859    23690725.7154
  21231091.286   -14422568.428 9 -11215924.62747  21231090.492    21231096.8434
 01  5 15 19  5 30.0000000  0  8 30 06 23 05 24 17 15 10
  20986990.254    -9719349.329 9  -7563169.89047  20986990.519    20986995.9184
  20742313.325   -18504332.381 9 -14404141.93247  20742313.215    20742318.7844
  23919208.476    -4970053.106 8  -3548882.34245  23919208.068    23919220.2054
  22545482.373     9035463.307 8   7057553.50146  22545481.888    22545489.6644
  24201819.049    18562533.762 8  14463171.79745  24201818.939    24201827.4804
  22246029.349   -16562440.850 8 -12889157.17546  22246028.915    22246036.3914
  23675071.873    -6428421.190 7  -4982786.57145  23675071.310    23675081.2374
  21239636.228   -14377664.455 9 -11180934.55647  21239635.456    21239641.8644
 01  5 15 19  6  0.0000000  0  8 30 06 23 05 24 17 15 10
  20997934.559    -9661836.949 9  -7518355.10547  20997934.812    20997940.2124
  20734985.994   -18542837.958 9 -14434146.27747  20734985.888    20734991.4054
  23899168.879    -5075360.950 8  -3630940.14645  23899168.500    23899180.5354
  22564240.218     9134035.684 8   7134363.01746  22564239.761    22564247.5144
  24217209.980    18643413.158 8  14526194.58045  24217209.854    24217218.5014
  22234872.533   -16621070.217 8 -12934842.36246  22234872.098    22234879.5124
  23659461.837    -6510451.859 7  -5046706.46945  23659461.306    23659471.2264
  21248286.395   -14332207.442 9 -11145513.54747  21248285.618    21248292.1024
 01  5 15 19  6 30.0000000  0  8 30 06 23 05 24 17 15 10
  21008973.811    -9603825.526 9  -7473151.44947  21008974.070    21008979.4714
  20727706.272   -18581093.360 9 -14463955.67847  20727706.157    20727711.6434
  23879153.254    -5180543.089 8  -3712900.01045  23879152.827    23879164.7694
  22583039.195     9232824.461 8   7211341.14946  22583038.727    22583046.5054
  24232594.899    18724260.988 8  14589192.78145  24232594.703    24232603.5554
  22223759.851   -16679467.599 8 -12980346.77346  22223759.441    22223766.8394
  23643886.328    -6592301.101 7  -5110485.00345  23643885.779    23643895.6214
  21257041.463   -14286199.315 9 -11109663.08947  21257040.707    21257047.1714
 01  5 15 19  7  0.0000000  0  8 30 06 23 05 24 17 15 10
  21020107.591    -9545317.193 9  -7427560.59547  21020107.852    21020113.2784
  20720474.405   -18619097.169 9 -14493569.03647  20720474.294    20720479.7574
  23859161.939    -5285597.373 8  -3794760.24645  23859161.487    23859173.2694
  22601878.818     9331826.750 8   7288485.66646  22601878.345    22601886.1774
  24247973.699    18805076.411 8  14652165.71845  24247973.497    24247982.3384
  22212691.245   -16737633.207 8 -13025670.58846  22212690.834    22212698.1934
  23628345.377    -6673968.662 8  -5174121.95445  23628344.828    23628354.7744
  21265900.975   -14239642.333 9 -11073384.95947  21265900.203    21265906.6704
 01  5 15 19  7 30.0000000  0  8 30 06 23 05 24 17 15 10
  21031335.563    -9486313.919 9  -7381584.07347  21031335.809    21031341.2654
  20713290.796   -18656847.611 9 -14522984.95947  20713290.677    20713296.1434
  23839195.468    -5390520.981 8  -3876518.66945  23839195.019    23839206.6794
  22620758.590     9431040.045 8   7365794.59146  22620758.075    22620765.9654
  24263346.367    18885859.433 8  14715113.41645  24263346.134    24263354.8934
  22201666.883   -16795566.733 8 -13070813.55546  22201666.436    22201673.7604
  23612839.152    -6755453.965 8  -5237616.90045  23612838.552    23612848.5854
  21274864.676   -14192537.899 9 -11036680.24547  21274863.888    21274870.3154
 01  5 15 19  8  0.0000000  0  8 30 06 23 05 24 17 15 10
  21042657.261    -9426818.109 9  -7335223.76547  21042657.521    21042663.0034
  20706155.568   -18694343.501 9 -14552202.54247  20706155.447    20706160.9074
  23819254.248    -5495311.952 8  -3958173.76045  23819253.843    23819265.4134
  22639677.944     9530461.332 8   7443265.58846  22639677.447    22639685.3014
  24278712.552    18966608.413 8  14778034.58745  24278712.327    24278721.1094
  22190686.551   -16853268.696 8 -13115776.09147  22190686.138    22190693.3814
  23597367.682    -6836757.005 7  -5300969.81445  23597367.043    23597376.9594
  21283932.101   -14144888.564 9 -10999550.94147  21283931.321    21283937.7054
 01  5 15 19  8 30.0000000  0  8 30 06 23 05 24 17 15 10
  21054072.336    -9366831.643 9  -7288481.12147  21054072.599    21054078.1024
  20699069.103   -18731583.172 9 -14581220.46547  20699068.973    20699074.4724
  23799338.759    -5599967.830 8  -4039723.56745  23799338.342    23799349.7444
  22658636.370     9630088.021 8   7520896.63346  22658635.903    22658643.7274
  24294072.100    19047322.933 8  14840928.90145  24294071.913    24294080.8504
  22179750.326   -16910739.142 8 -13160558.22047  22179749.899    22179757.0854
  23581930.962    -6917877.389 8  -5364180.40145  23581930.360    23581940.1014
  21293102.853   -14096696.276 9 -10961998.54647  21293102.072    21293108.4224
 01  5 15 19  9  0.0000000  0  8 30 06 23 05 24 17 15 10
  21065580.453    -9306356.375 9  -7241357.59347  21065580.722    21065586.2204
  20692031.741   -18768564.749 9 -14610037.28047  20692031.615    20692037.1414
  23779449.449    -5704486.083 8  -4121166.14945  23779449.010    23779460.3944
  22677633.487     9729917.888 8   7598686.00846  22677633.021    22677640.8824
  24309425.077    19128002.900 8  14903796.30645  24309424.905    24309433.9054
  22168858.203   -16967977.863 8 -13205159.78147  22168857.759    22168864.9324
  23566529.141    -6998814.397 8  -5427248.09845  23566528.522    23566538.1764
  21302376.603   -14047962.720 9 -10924024.38247  21302375.822    21302382.2074
 01  5 15 19  9 30.0000000  0  8 30 06 23 05 24 17 15 10
  21077181.287    -9245393.991 9  -7193854.49947  21077181.541    21077187.0314
  20685043.804   -18805286.366 9 -14638651.53147  20685043.692    20685049.2324
  23759586.863    -5808863.583 8  -4202499.06045  23759586.431    23759597.6634
  22696668.794     9829948.509 8   7676631.80346  22696668.313    22696676.2074
  24324771.346    19208647.702 7  14966636.29045  24324771.211    24324780.0844
  22158010.180   -17024984.556 8 -13249580.54647  22158009.729    22158016.9124
  23551162.345    -7079567.073 7  -5490172.16345  23551161.671    23551171.3054
  21311752.994   -13998689.600 9 -10885629.78047  21311752.231    21311758.6374
 01  5 15 19 10  0.0000000  0  8 30 06 23 05 24 17 15 10
  21088874.256    -9183947.419 9  -7145974.11147  21088874.506    21088879.9924
  20678105.525   -18841747.172 9 -14667062.55447  20678105.416    20678110.9784
  23739751.452    -5913098.514 8  -4283720.88445  23739750.983    23739762.1284
  22715741.651     9930176.713 8   7754731.55446  22715741.170    22715749.0944
  24340110.669    19289255.858 8  15029447.72845  24340110.473    24340119.3904
  22147206.122   -17081759.852 8 -13293821.00247  22147205.659    22147212.8724
  23535830.595    -7160135.640 8  -5552952.75945  23535829.984    23535839.5024
  21321231.589   -13948879.617 9 -10846816.84247  21321230.809    21321237.2394
 01  5 15 19 10 30.0000000  0  8 30 06 23 05 24 17 15 10
  21100659.079    -9122018.103 9  -7097717.56147  21100659.337    21100664.8254
  20671217.298   -18877945.137 9 -14695268.76447  20671217.194    20671222.7454
  23719943.664    -6017188.172 8  -4364829.52045  23719943.165    23719954.3074
  22734851.695    10030600.201 8   7832983.48046  22734851.210    22734859.2094
  24355442.965    19369827.557 7  15092230.75245  24355442.738    24355451.5854
  22136446.158   -17138303.442 8 -13337880.90947  22136445.717    22136452.9524
  23520534.057    -7240519.576 8  -5615589.48845  23520533.463    23520542.9334
  21330812.097   -13898534.125 9 -10807586.62647  21330811.316    21330817.7674
 01  5 15 19 11  0.0000000  0  9 30 06 23 05 24 17 15 10 18
  21112535.245    -9059608.621 9  -7049086.85947  21112535.496    21112540.9804
  20664379.309   -18913879.082 9 -14723269.24647  20664379.198    20664384.7504
  23700163.967    -6121130.456 8  -4445823.32145  23700163.469    23700174.5824
  22753998.324    10131215.783 8   7911385.07746  22753997.885    22754005.8884
  24370768.034    19450361.378 7  15154984.26245  24370767.839    24370776.8004
  22125730.200   -17194615.837 8 -13381760.67047  22125729.766    22125737.0554
  23505272.560    -7320718.923 8  -5678082.37245  23505272.039    23505281.3314
  21340493.947   -13847655.688 9 -10767941.13047  21340493.174    21340499.6594
  24775352.553    -3183053.482 8  -2462061.48645  24775352.191    24775364.8864
 01  5 15 19 11 30.0000000  0  9 30 06 23 05 24 17 15 10 18
  21124501.291    -8996726.781 9  -7000088.08247  21124501.552    21124507.0564
  20657590.829   -18949552.775 9 -14751066.93347  20657590.718    20657596.2344
  23680411.718    -6224928.402 8  -4526704.64445  23680411.183    23680422.2714
  22773179.933    10232015.216 8   7989929.94646  22773179.486    22773187.5264
  24386084.967    19530852.098 7  15217704.18645  24386084.675    24386093.8414
  22115057.249   -17250702.483 8 -13425464.52247  22115056.795    22115064.0934
  23490045.261    -7400738.828 8  -5740435.44645  23490044.670    23490054.0264
  21350275.737   -13796252.167 9 -10727886.47447  21350274.962    21350281.4784
  24753858.502    -3296004.121 8  -2550074.58945  24753858.071    24753870.6814
 01  5 15 19 12  0.0000000  0  9 30 06 23 05 24 17 15 10 18
  21136558.387    -8933366.536 9  -6950716.52747  21136558.655    21136564.2004
  20650853.713   -18984956.557 9 -14778654.29947  20650853.621    20650859.1214
  23660688.994    -6328571.281 8  -4607465.15045  23660688.476    23660699.5174
  22792397.657    10333004.246 8   8068622.53946  22792397.142    22792405.2384
  24401395.018    19611306.201 7  15280395.57545  24401394.666    24401403.9734
  22104428.780   -17306555.264 8 -13468986.13647  22104428.322    22104435.6004
  23474853.689    -7480570.730 8  -5802642.01645  23474853.088    23474862.4264
  21360158.665   -13744317.408 9 -10687417.86747  21360157.890    21360164.4144
  24732370.790    -3408921.738 7  -2638061.97445  24732370.297    24732382.8564
 01  5 15 19 12 30.0000000  0  9 30 06 23 05 24 17 15 10 18
  21148705.906    -8869531.010 9  -6900974.62047  21148706.185    21148711.7794
  20644168.012   -19020090.186 9 -14806031.15847  20644167.920    20644173.4124
  23640995.994    -6432057.827 8  -4688103.82745  23640995.530    23641006.3904
  22811650.694    10434178.952 8   8147459.82446  22811650.183    22811658.2534
  24416697.815    19691722.523 7  15343057.53245  24416697.431    24416706.9604
  22093844.590   -17362175.561 8 -13512326.59947  22093844.150    22093851.3484
  23459697.752    -7560215.385 8  -5864702.69145  23459697.090    23459706.4924
  21370142.023   -13691854.776 9 -10646537.93147  21370141.259    21370147.7654
  24710889.515    -3521805.240 8  -2726022.76345  24710889.158    24710901.3444
 01  5 15 19 13  0.0000000  0  9 30 06 23 05 24 17 15 10 18
  21160943.371    -8805222.949 9  -6850864.50147  21160943.644    21160949.2884
  20637533.997   -19054952.267 9 -14833196.41747  20637533.912    20637539.3804
  23621333.183    -6535385.941 8  -4768619.05945  23621332.781    23621343.6104
  22830938.523    10535536.470 8   8226439.55546  22830938.020    22830946.0424
  24431993.328    19772100.326 7  15405689.47645  24431992.983    24432002.5454
  22083304.597   -17417563.666 8 -13555486.13047  22083304.167    22083311.2914
  23444577.361    -7639672.948 8  -5926617.56545  23444576.747    23444586.1354
  21380225.380   -13638866.538 9 -10605248.42847  21380224.618    21380231.1364
  24689415.095    -3634652.569 8  -2813955.39145  24689414.864    24689426.9034
 01  5 15 19 13 30.0000000  0  9 30 06 23 05 24 17 15 10 18
  21173270.202    -8740445.159 9  -6800388.36847  21173270.490    21173276.1294
  20630951.840   -19089541.810 9 -14860149.31447  20630951.739    20630957.2264
  23601700.847    -6638553.953 8  -4849009.53445  23601700.343    23601711.1914
  22850260.465    10637073.441 8   8305559.11946  22850259.983    22850267.9904
  24447281.144    19852437.970 7  15468290.09745  24447280.740    24447290.3174
  22072808.577   -17472720.474 8 -13598465.43247  22072808.153    22072815.2654
  23429492.548    -7718943.710 8  -5988386.88345  23429492.030    23429501.3524
  21390408.210   -13585355.618 9 -10563551.64747  21390407.449    21390413.9904
  24667947.879    -3747462.020 8  -2901858.50645  24667947.527    24667959.5174
 01  5 15 19 14  0.0000000  0  9 30 06 23 05 24 17 15 10 18
  21185686.047    -8675199.691 9  -6749547.80347  21185686.325    21185691.9644
  20624421.852   -19123857.016 9 -14886888.43747  20624421.760    20624427.2784
  23582099.477    -6741559.180 8  -4929273.16245  23582098.963    23582109.7994
  22869616.086    10738787.294 8   8384816.50946  22869615.575    22869623.7304
  24462561.112    19932734.815 7  15530858.97145  24462560.812    24462570.4354
  22062356.599   -17527645.838 8 -13641264.38647  22062356.169    22062363.3124
  23414443.382    -7798027.167 8  -6050010.24545  23414442.819    23414452.1174
  21400690.088   -13531324.218 9 -10521449.29347  21400689.311    21400695.9054
  24646488.335    -3860231.192 8  -2989730.24845  24646487.962    24646500.0534
 01  5 15 19 14 30.0000000  0  9 30 06 23 05 24 17 15 10 18
  21198190.398    -8609489.263 9  -6698344.93947  21198190.678    21198196.3094
  20617944.281   -19157896.848 9 -14913412.98747  20617944.184    20617949.7614
  23562529.411    -6844399.781 8  -5009408.51245  23562528.921    23562539.6674
  22889004.769    10840674.711 8   8464209.13546  22889004.242    22889012.4054
  24477833.298    20012990.352 7  15593395.64345  24477833.109    24477842.6664
  22051948.592   -17582340.229 8 -13683883.37047  22051948.164    22051955.3094
  23399429.811    -7876923.337 8  -6111487.67345  23399429.272    23399438.6624
  21411070.568   -13476774.490 9 -10478943.04947  21411069.785    21411076.4114
  24625036.834    -3972958.090 8  -3077569.05845  24625036.593    24625048.4334
 01  5 15 19 15  0.0000000  0  9 30 06 23 05 24 17 15 10 18
  21210782.769    -8543316.293 9  -6646781.65147  21210783.050    21210788.7004
  20611519.439   -19191659.606 9 -14939721.63347  20611519.342    20611524.9174
  23542991.151    -6947073.281 8  -5089413.64445  23542990.587    23543001.3924
  22908426.019    10942733.232 8   8543735.09646  22908425.487    22908433.7144
  24493097.418    20093203.821 7  15655899.54445  24493097.251    24493106.9324
  22041584.439   -17636803.957 8 -13726322.60647  22041584.009    22041591.1764
  23384452.006    -7955631.901 8  -6172818.91145  23384451.431    23384460.8104
  21421549.275   -13421708.746 9 -10436034.71547  21421548.491    21421555.1444
  24603593.798    -4085640.283 8  -3165373.04245  24603593.527    24603605.2954
 01  5 15 19 15 30.0000000  0  9 30 06 23 05 24 17 15 10 18
  21223462.702    -8476682.971 9  -6594859.64347  21223462.992    21223468.6524
  20605147.632   -19225143.626 9 -14965813.07747  20605147.543    20605153.1474
  23523485.149    -7049577.135 8  -5169286.58245  23523484.581    23523495.3394
  22927879.294    11044960.196 8   8623392.31446  22927878.790    22927887.0554
  24508353.483    20173374.920 7  15718370.42545  24508353.410    24508363.1144
  22031264.214   -17691037.052 8 -13768582.12747  22031263.784    22031270.9494
  23369509.886    -8034152.673 8  -6234003.83745  23369509.316    23369518.6954
  21432125.697   -13366129.398 9 -10392726.17047  21432124.929    21432131.5784
  24582159.759    -4198275.326 7  -3253140.27045  24582159.535    24582171.2424
 01  5 15 19 16  0.0000000  0  9 30 06 23 05 24 17 15 10 18
  21236229.779    -8409591.753 9  -6542580.83347  21236230.074    21236235.7664
  20598829.048   -19258347.805 9 -14991686.46647  20598828.957    20598834.5934
  23504011.832    -7151909.293 8  -5249025.73445  23504011.272    23504021.9514
  22947364.037    11147352.606 8   8703178.43546  22947363.501    22947371.8204
  24523601.313    20253502.704 7  15780807.55345  24523601.294    24523611.0234
  22020987.771   -17745039.845 8 -13810662.19547  22020987.368    22020994.5254
  23354603.527    -8112485.696 8  -6295042.44645  23354602.934    23354612.2604
  21442799.412   -13310038.729 9 -10349019.19747  21442798.649    21442805.2764
  24560735.080    -4310861.453 8  -3340869.43345  24560734.868    24560746.4414
 01  5 15 19 16 30.0000000  0  9 30 06 23 05 24 17 15 10 18
  21249083.524    -8342045.027 9  -6489947.09047  21249083.825    21249089.5494
  20592564.136   -19291270.155 9 -15017340.24947  20592564.055    20592569.6964
  23484571.707    -7254067.064 8  -5328628.99845  23484571.180    23484581.7554
  22966879.770    11249907.837 8   8783091.43446  22966879.280    22966887.5754
  24538840.767    20333586.655 7  15843210.52245  24538840.814    24538850.6024
  22010755.186   -17798812.315 8 -13852562.79447  22010754.771    22010761.9494
  23339733.008    -8190630.422 8  -6355934.34045  23339732.430    23339741.7304
  21453569.926   -13253439.390 9 -10304915.86247  21453569.193    21453575.8094
  24539320.277    -4423395.835 8  -3428558.26245  24539319.953    24539331.6024
 01  5 15 19 17  0.0000000  0  9 30 06 23 05 24 17 15 10 18
  21262023.513    -8274044.966 9  -6436960.09447  21262023.817    21262029.6024
  20586353.149   -19323909.192 9 -15042773.26647  20586353.064    20586358.7024
  23465165.203    -7356048.287 8  -5408094.69145  23465164.725    23465175.1544
  22986426.031    11352623.514 8   8863129.47346  22986425.558    22986433.8464
  24554071.827    20413625.876 7  15905578.63745  24554071.849    24554081.5234
  22000566.353   -17852354.767 8 -13894284.15447  22000565.935    22000573.1834
  23324898.407    -8268586.442 8  -6416679.21045  23324897.829    23324907.1284
  21464436.920   -13196333.150 9 -10260417.54047  21464436.180    21464442.8104
  24517915.706    -4535876.231 8  -3516205.04245  24517915.391    24517927.1184
 01  5 15 19 17 30.0000000  0  9 30 06 23 05 24 17 15 10 18
  21275049.211    -8205594.474 9  -6383622.11647  21275049.520    21275055.3884
  20580196.303   -19356263.839 9 -15067984.68347  20580196.207    20580201.8504
  23445792.705    -7457850.757 8  -5487421.08945  23445792.216    23445802.5364
  23006002.290    11455496.591 8   8943290.13546  23006001.846    23006010.0554
  24569294.428    20493620.453 7  15967911.97445  24569294.401    24569304.2364
  21990421.249   -17905667.453 8 -13935826.47647  21990420.849    21990428.1284
  23310099.763    -8346353.703 8  -6477276.98045  23310099.204    23310108.4374
  21475399.860   -13138722.628 9 -10215526.26647  21475399.130    21475405.7694
  24496521.832    -4648300.700 8  -3603808.25045  24496521.632    24496533.0454
 01  5 15 19 18  0.0000000  0  9 30 06 23 05 24 17 15 10 18
  21288160.225    -8136695.741 9  -6329934.85647  21288160.523    21288166.4744
  20574093.869   -19388332.348 9 -15092973.13247  20574093.791    20574099.4304
  23426454.652    -7559472.184 8  -5566606.42645  23426454.144    23426464.4944
  23025607.912    11558524.263 8   9023571.26746  23025607.453    23025615.7364
  24584508.316    20573569.301 7  16030209.66445  24584508.359    24584518.0964
  21980319.807   -17958750.721 8 -13977190.03347  21980319.412    21980326.7264
  23295336.998    -8423931.933 8  -6537727.46345  23295336.504    23295345.5954
  21486458.327   -13080610.379 9 -10170244.03747  21486457.585    21486464.2304
  24475139.033    -4760666.889 8  -3691366.03845  24475138.725    24475150.1944
 01  5 15 19 18 30.0000000  0  9 30 06 23 05 24 17 15 10 18
  21301356.263    -8067350.412 9  -6275899.60847  21301356.568    21301362.5424
  20568046.282   -19420112.549 9 -15117736.92947  20568046.208    20568051.8374
  23407151.578    -7660909.695 8  -5645648.44345  23407151.127    23407161.4214
  23045242.567    11661704.495 8   9103971.26146  23045242.101    23045250.4494
  24599713.511    20653472.530 7  16092471.82445  24599713.582    24599723.2034
  21970262.107   -18011604.043 8 -14018374.41047  21970261.724    21970269.0574
  23280610.343    -8501320.627 8  -6598030.26445  23280609.849    23280618.9834
  21497611.953   -13021998.067 9 -10124572.15647  21497611.193    21497617.8684
  24453767.894    -4872971.738 8  -3778876.03845  24453767.609    24453778.9654
 01  5 15 19 19  0.0000000  0 10 30 06 26 23 05 24 17 15 10 18
  21314636.683    -7997561.662 9  -6221518.83947  21314636.974    21314642.9714
  20562053.762   -19451603.509 9 -15142275.34247  20562053.687    20562059.2964
  24001295.352    -1118005.15244                  24001298.627    24001308.7904
  23387883.872    -7762161.424 8  -5724545.69745  23387883.385    23387893.7044
  23064905.567    11765033.868 8   9184487.47746  23064905.088    23064913.4924
  24614909.847    20733328.968 7  16154697.51545  24614909.871    24614919.5134
  21960248.083   -18064228.229 8 -14059380.24247  21960247.677    21960255.0634
  23265919.709    -8578520.020 8  -6658185.54245  23265919.240    23265928.4004
  21508860.148   -12962888.567 9 -10078512.85747  21508859.396    21508866.1034
  24432408.785    -4985213.533 8  -3866336.90345  24432408.466    24432419.9084
 01  5 15 19 19 30.0000000  0 10 30 06 26 23 05 24 17 15 10 18
  21328001.147    -7927331.323 9  -6166793.97147  21328001.452    21328007.4514
  20556116.707   -19482803.026 9 -15166586.65447  20556116.647    20556122.2374
  23985338.467    -1550135.369 7  -1183345.14844  23985337.047    23985350.0454
  23368652.102    -7863224.359 8  -5803295.84745  23368651.629    23368661.9274
  23084596.654    11868510.246 8   9265118.24646  23084596.186    23084604.5494
  24630097.289    20813138.786 7  16216886.87745  24630097.388    24630107.0154
  21950277.730   -18116622.708 8 -14100207.08147  21950277.319    21950284.7164
  23251265.278    -8655529.358 8  -6718192.71745  23251264.805    23251273.9654
  21520202.574   -12903283.729 8 -10032067.57847  21520201.834    21520208.5804
  24411062.251    -5097389.347 8  -3953746.37145  24411061.844    24411073.3164
 01  5 15 19 20  0.0000000  0 10 30 06 26 23 05 24 17 15 10 18
  21341449.106    -7856662.399 9  -6111727.35447  21341449.402    21341455.4124
  20550235.301   -19513710.025 9 -15190670.03247  20550235.248    20550240.8024
  23969399.391    -1633893.499 7  -1248610.94545  23969400.289    23969410.8854
  23349456.628    -7964096.741 8  -5881897.51245  23349456.208    23349466.3324
  23104315.085    11972130.657 8   9345861.23245  23104314.655    23104323.0444
  24645275.706    20892901.205 7  16279039.28945  24645275.681    24645285.1494
  21940350.922   -18168788.306 8 -14140855.58047  21940350.521    21940357.8984
  23236646.936    -8732348.853 8  -6778051.98045  23236646.474    23236655.6344
  21531638.766   -12843186.271 8  -9985238.44047  21531638.037    21531644.8124
  24389728.620    -5209497.368 8  -4041103.01045  24389728.233    24389739.6494
 01  5 15 19 20 30.0000000  0 10 30 06 26 23 05 24 17 15 10 18
  21354980.182    -7785556.516 9  -6056320.24847  21354980.474    21354986.5114
  20544409.970   -19544322.396 9 -15214523.82747  20544409.911    20544415.5054
  23953479.699    -1717552.697 7  -1313799.67045  23953479.161    23953491.7134
  23330297.944    -8064775.463 8  -5960348.27845  23330297.482    23330307.6334
  23124060.485    12075892.892 8   9426714.72745  23124060.046    23124068.5484
  24660445.037    20972616.378 7  16341154.91345  24660444.979    24660454.3904
  21930467.766   -18220724.477 8 -14181325.29447  21930467.373    21930474.7254
  23222064.876    -8808977.655 8  -6837762.63945  23222064.330    23222073.5204
  21543168.308   -12782598.138 8  -9938026.95847  21543167.575    21543174.3594
  24368408.444    -5321534.541 8  -4128404.42745  24368408.063    24368419.4274
 01  5 15 19 21  0.0000000  0 10 30 06 26 23 05 24 17 15 10 18
  21368593.910    -7714016.304 9  -6000574.70447  21368594.200    21368600.2504
  20538640.963   -19574638.766 9 -15238146.97347  20538640.905    20538646.5024
  23937579.265    -1801109.887 7  -1378908.92545  23937579.609    23937591.1874
  23311176.553    -8165258.346 8  -6038646.43945  23311176.039    23311186.1824
  23143832.371    12179794.127 8   9507676.53845  23143831.928    23143840.4554
  24675605.308    21052283.611 7  16403233.17645  24675605.134    24675614.6854
  21920628.221   -18272431.770 8 -14221616.66147  21920627.825    21920635.0984
  23207519.104    -8885415.695 8  -6897324.65145  23207518.530    23207527.7304
  21554790.736   -12721522.003 8  -9890435.21747  21554790.019    21554796.8054
  24347102.161    -5433498.620 8  -4215648.91045  24347101.812    24347113.1554
 01  5 15 19 21 30.0000000  0 10 30 06 26 23 05 24 17 15 10 18
  21382289.766    -7642044.259 9  -5944492.66947  21382290.079    21382296.1614
  20532928.619   -19604657.436 9 -15261538.14747  20532928.559    20532934.1544
  23921698.816    -1884561.598 7  -1443935.98845  23921699.103    23921710.5794
  23292092.913    -8265543.021 8  -6116790.16345  23292092.430    23292102.4834
  23163630.179    12283831.667 8   9588744.56145  23163629.792    23163638.2934
  24690756.296    21131902.216 7  16465273.55745  24690756.134    24690765.7064
  21910832.192   -18323910.266 8 -14261729.74147  21910831.807    21910839.0214
  23193009.762    -8961662.444 8  -6956737.62145  23193009.214    23193018.3274
  21566505.585   -12659959.973 8  -9842464.85247  21566504.879    21566511.6394
  24325810.252    -5545387.235 8  -4302834.56645  24325809.953    24325821.1754
 01  5 15 19 22  0.0000000  0 10 30 06 26 23 05 24 17 15 10 18
  21396067.231    -7569643.512 9  -5888076.58147  21396067.540    21396073.6694
  20527273.161   -19634377.234 9 -15284696.43548  20527273.114    20527278.6914
  23905838.933    -1967905.120 7  -1508878.76545  23905839.092    23905850.7784
  23273047.313    -8365627.674 8  -6194778.02745  23273046.866    23273056.8134
  23183453.336    12388002.500 8   9669916.43245  23183452.899    23183461.5124
  24705897.889    21211471.035 7  16527275.11145  24705897.834    24705907.1184
  21901079.584   -18375160.549 8 -14301664.99247  21901079.199    21901086.3774
  23178536.715    -9037718.369 8  -7016001.88745  23178536.124    23178545.2494
  21578312.386   -12597915.091 8  -9794118.24447  21578311.656    21578318.4234
  24304533.034    -5657198.741 8  -4389960.15845  24304532.703    24304543.9004
 01  5 15 19 22 30.0000000  0 10 30 06 26 23 05 24 17 15 10 18
  21409925.862    -7496815.993 9  -5831327.94147  21409926.186    21409932.3154
  20521675.011   -19663796.060 9 -15307620.19948  20521674.930    20521680.5084
  23890000.325    -2051136.602 7  -1573734.25445  23890000.487    23890012.1354
  23254040.266    -8465509.556 8  -6272607.89645  23254039.843    23254049.7154
  23203301.440    12492304.517 8   9751190.53845  23203301.059    23203309.7484
  24721030.048    21290990.260 7  16589238.03945  24721029.797    24721039.3064
  21891370.411   -18426182.432 8 -14341422.27147  21891370.030    21891377.1834
  23164100.131    -9113582.759 8  -7075116.89445  23164099.518    23164108.6754
  21590210.710   -12535389.235 8  -9745396.84247  21590209.979    21590216.7354
  24283271.031    -5768930.224 8  -4477023.38645  24283270.722    24283281.8084
 01  5 15 19 23  0.0000000  0 10 30 06 26 23 05 24 17 15 10 18
  21423865.280    -7423564.186 9  -5774248.69047  21423865.606    21423871.7274
  20516134.390   -19692912.362 9 -15330308.23148  20516134.316    20516139.8974
  23874183.728    -2134252.563 7  -1638499.72645  23874184.027    23874195.4144
  23235072.287    -8565186.238 8  -6350277.87745  23235071.865    23235081.7884
  23223173.985    12596734.739 8   9832564.53445  23223173.571    23223182.4044
  24736152.669    21370459.778 7  16651162.25645  24736152.518    24736161.9544
  21881704.707   -18476976.072 8 -14381001.69447  21881704.311    21881711.4724
  23149700.002    -9189255.434 8  -7134082.51845  23149699.417    23149708.5294
  21602200.108   -12472384.718 8  -9696302.46247  21602199.358    21602206.1694
  24262024.698    -5880579.247 8  -4564022.34345  24262024.521    24262035.3924
 01  5 15 19 23 30.0000000  0 10 30 06 26 23 05 24 17 15 10 18
  21437884.984    -7349890.658 9  -5716840.83147  21437885.311    21437891.4154
  20510651.545   -19721724.830 9 -15352759.50648  20510651.491    20510657.0794
  23858389.773    -2217249.857 7  -1703172.73345  23858390.131    23858401.3944
  23216143.778    -8664655.435 8  -6427786.18746  23216143.349    23216153.3174
  23243070.378    12701290.422 8   9914036.28545  23243069.978    23243078.8714
  24751265.709    21449878.685 7  16713047.00345  24751265.455    24751274.9444
  21872082.330   -18527541.833 8 -14420403.55647  21872081.923    21872089.0714
  23135336.387    -9264736.318 8  -7192898.69145  23135335.851    23135344.9924
  21614280.001   -12408904.441 8  -9646837.35647  21614279.266    21614286.1294
  24240794.452    -5992143.682 8  -4650955.40945  24240794.318    24240805.0654
 01  5 15 19 24  0.0000000  0 10 30 06 26 23 05 24 17 15 10 18
  21451984.438    -7275797.874 9  -5659106.27247  21451984.760    21451990.8724
  20505226.848   -19750231.721 9 -15374972.67248  20505226.807    20505232.3944
  23842618.958    -2300125.150 7  -1767750.66245  23842619.438    23842630.4584
  23197255.159    -8763914.804 8  -6505131.00146  23197254.715    23197264.7454
  23262990.156    12805968.988 8   9995603.78845  23262989.747    23262998.7894
  24766368.929    21529246.630 7  16774892.04445  24766368.650    24766378.4544
  21862503.290   -18577879.786 8 -14459627.90847  21862502.894    21862510.0244
  23121009.360    -9340025.041 8  -7251565.13345  23121008.818    23121017.9514
  21626449.987   -12344950.598 8  -9597003.23247  21626449.271    21626456.1824
  24219580.857    -6103620.848 8  -4737820.45945  24219580.704    24219591.4994
 01  5 15 19 24 30.0000000  0 10 30 06 26 23 05 24 17 15 10 18
  21466163.193    -7201288.484 9  -5601047.08547  21466163.514    21466169.6294
  20499860.635   -19778431.317 9 -15396946.38548  20499860.582    20499866.1794
  23826872.045    -2382874.774 7  -1832230.69445  23826872.330    23826883.4954
  23178406.901    -8862962.052 8  -6582310.52246  23178406.493    23178416.5364
  23282932.895    12910767.916 8  10077265.08745  23282932.501    23282941.5574
  24781462.412    21608563.517 7  16836697.31745  24781462.250    24781472.1784
  21852967.616   -18627990.012 8 -14498674.80747  21852967.236    21852974.3304
  23106719.027    -9415121.188 8  -7310081.52045  23106718.501    23106727.6394
  21638709.647   -12280525.649 8  -9546802.02747  21638708.933    21638715.8964
  24198384.292    -6215008.395 8  -4824615.68145  24198384.108    24198394.9124
 01  5 15 19 25  0.0000000  0 10 30 06 26 23 05 24 17 15 10 18
  21480420.712    -7126365.109 9  -5542665.31647  21480421.044    21480427.1734
  20494553.105   -19806322.573 9 -15418679.83648  20494553.056    20494558.6474
  23811149.559    -2465495.913 7  -1896610.58045  23811149.854    23811161.0964
  23159599.416    -8961795.055 8  -6659323.10946  23159599.023    23159609.1174
  23302897.932    13015683.991 8  10159017.65845  23302897.489    23302906.6064
  24796546.164    21687828.799 7  16898462.36145  24796546.207    24796555.9164
  21843475.141   -18677873.098 8 -14537544.70747  21843474.747    21843481.8624
  23092465.322    -9490025.077 8  -7368448.08845  23092464.819    23092473.7444
  21651058.434   -12215632.445 8  -9496235.93847  21651057.744    21651064.7224
  24177205.179    -6326304.397 8  -4911339.57445  24177204.930    24177215.7414
 01  5 15 19 25 30.0000000  0 10 30 06 26 23 05 24 17 15 10 18
  21494756.505    -7051030.312 9  -5483962.96047  21494756.829    21494762.9754
  20489304.607   -19833903.685 9 -15440171.61748  20489304.570    20489310.1474
  23795452.223    -2547984.936 7  -1960887.52945  23795452.422    23795463.8534
  23140833.270    -9060411.295 8  -6736166.78446  23140832.895    23140842.9124
  23322884.771    13120714.599 7  10240859.46845  23322884.254    23322893.4904
  24811619.985    21767041.791 7  16960186.68045  24811620.023    24811629.9884
  21834025.879   -18727529.124 8 -14576237.68447  21834025.489    21834032.6214
  23078248.157    -9564736.558 8  -7426664.73346  23078247.642    23078256.4874
  21663495.940   -12150273.093 8  -9445306.62047  21663495.264    21663502.2664
  24156043.953    -6437506.238 8  -4997990.09445  24156043.719    24156054.4934
 01  5 15 19 26  0.0000000  0 10 30 06 26 23 05 24 17 15 10 18
  21509170.124    -6975286.605 9  -5424941.96947  21509170.451    21509176.6144
  20484115.464   -19861172.876 9 -15461420.33447  20484115.412    20484120.9814
  23779780.656    -2630338.419 7  -2025058.86845  23779780.661    23779792.4964
  23122108.755    -9158808.577 8  -6812839.84946  23122108.368    23122118.3724
  23342892.864    13225857.421 7  10322788.71245  23342892.432    23342901.7344
  24826683.816    21846202.275 7  17021870.05445  24826683.635    24826693.6684
  21824619.799   -18776958.242 8 -14614753.84947  21824619.400    21824626.5534
  23064067.732    -9639255.144 8  -7484731.07146  23064067.179    23064076.0134
  21676021.685   -12084450.080 8  -9394016.01047  21676021.003    21676028.0344
  24134901.154    -6548611.497 8  -5084565.35745  24134900.926    24134911.6314
 01  5 15 19 26 30.0000000  0 10 30 06 26 23 05 24 17 15 10 18
  21523661.044    -6899136.708 9  -5365604.46947  21523661.359    21523667.5554
  20478985.900   -19888128.815 9 -15482424.96747  20478985.843    20478991.4214
  23764135.462    -2712553.109 7  -2089122.04545  23764135.302    23764147.3314
  23103426.364    -9256984.638 8  -6889340.53946  23103425.922    23103435.9204
  23362921.738    13331109.397 8  10404803.01245  23362921.345    23362930.8104
  24841737.639    21925309.962 7  17083512.31545  24841737.423    24841747.4554
  21815256.877   -18826160.714 8 -14653093.40147  21815256.482    21815263.6374
  23049923.996    -9713580.627 8  -7542646.93546  23049923.441    23049932.2734
  21688635.166   -12018166.100 8  -9342366.20347  21688634.471    21688641.4894
  24113777.095    -6659618.168 8  -5171063.81245  24113776.820    24113787.4654
 01  5 15 19 27  0.0000000  0  9 30 06 26 23 05 17 15 10 18
  21538228.708    -6822583.401 9  -5305952.62847  21538229.034    21538235.2644
  20473916.190   -19914770.209 9 -15503184.50047  20473916.153    20473921.7334
  23748517.197    -2794626.113 7  -2153074.83945  23748517.044    23748529.0634
  23084786.457    -9354937.511 8  -6965667.32246  23084786.025    23084795.9754
  23382970.823    13436467.620 8  10486900.09445  23382970.546    23382980.1044
  21805936.935   -18875137.122 8 -14691256.81347  21805936.544    21805943.6874
  23035816.954    -9787713.081 8  -7600412.40446  23035816.466    23035825.2254
  21701335.762   -11951424.190 8  -9290359.56647  21701335.088    21701342.0984
  24092672.249    -6770524.125 8  -5257483.77045  24092671.930    24092682.5134
 01  5 15 19 27 30.0000000  0  9 30 06 26 23 05 17 15 10 18
  21552872.697    -6745628.912 9  -5245988.17747  21552873.026    21552879.2864
  20468906.719   -19941095.037 9 -15523697.35847  20468906.671    20468912.2594
  23732926.749    -2876553.446 7  -2216914.12445  23732926.748    23732938.5954
  23066189.557    -9452664.425 8  -7041818.03146  23066189.120    23066199.0204
  23403039.802    13541930.053 7  10569078.38145  23403039.562    23403049.1624
  21796660.088   -18923887.291 8 -14729243.92947  21796659.716    21796666.8614
  23021746.782    -9861651.953 8  -7658027.02145  23021746.297    23021754.9704
  21714123.129   -11884226.344 8  -9237997.65447  21714122.456    21714129.4504
  24071587.096    -6881326.327 8  -5343822.89545  24071586.818    24071597.3734
 01  5 15 19 28  0.0000000  0  9 30 06 26 23 05 17 15 10 18
  21567592.611    -6668275.663 9  -5185712.99847  21567592.946    21567599.2294
  20463957.879   -19967101.530 9 -15543962.15947  20463957.837    20463963.4234
  23717364.752    -2958331.496 7  -2280637.09645  23717364.710    23717376.7344
  23047636.082    -9550162.924 8  -7117790.75646  23047635.714    23047645.5784
  23423128.123    13647494.105 7  10651335.83745  23423127.816    23423137.6064
  21787426.292   -18972411.227 8 -14767054.76147  21787425.919    21787433.0434
  23007713.483    -9935397.080 8  -7715490.67546  23007712.972    23007721.6054
  21726996.868   -11816574.933 8  -9185282.31547  21726996.173    21727003.1694
  24050522.143    -6992022.391 8  -5430079.30845  24050521.790    24050532.4004
 01  5 15 19 28 30.0000000  0  9 30 06 26 23 05 17 15 10 18
  21582387.912    -6590526.194 9  -5125129.08447  21582388.234    21582394.5614
  20459069.932   -19992787.924 9 -15563977.53947  20459069.891    20459075.4824
  23701831.841    -3039956.846 7  -2344241.07845  23701831.873    23701843.7744
  23029126.586    -9647430.523 8  -7193583.56146  23029126.208    23029136.0064
  23443235.323    13753157.265 8  10733670.53145  23443235.016    23443244.8534
  21778235.545   -19020708.933 8 -14804689.30947  21778235.181    21778242.2844
  22993717.104   -10008948.111 8  -7772803.08646  22993716.601    22993725.1814
  21739956.394   -11748472.414 8  -9132215.46847  21739955.682    21739962.7054
  24029477.867    -7102609.629 8  -5516250.91645  24029477.630    24029488.0934
 01  5 15 19 29  0.0000000  0  9 30 06 26 23 05 17 15 10 18
  21597258.035    -6512383.310 9  -5064238.61047  21597258.369    21597264.7484
  20454243.138   -20018152.852 9 -15583742.42148  20454243.102    20454248.6994
  23686328.520    -3121426.323 7  -2407723.58945  23686328.686    23686340.3634
  23010661.369    -9744465.249 8  -7269194.91246  23010661.011    23010670.7824
  23463360.845    13858916.624 8  10816080.16345  23463360.483    23463370.4644
  21769087.749   -19068780.964 8 -14842148.00747  21769087.374    21769094.4624
  22979757.654   -10082305.182 8  -7829964.36146  22979757.185    22979765.7864
  21753001.228   -11679921.513 8  -9078799.23447  21753000.511    21753007.5674
  24008454.639    -7213086.135 8  -5602336.25645  24008454.393    24008464.8914
 01  5 15 19 29 30.0000000  0  9 30 06 26 23 05 17 15 10 18
  21612202.582    -6433849.634 9  -5003043.62447  21612202.903    21612209.3294
  20449477.848   -20043194.756 9 -15603255.60048  20449477.811    20449483.4104
  23670855.604    -3202736.330 7  -2471081.83645  23670855.868    23670867.4354
  22992240.897    -9841264.798 8  -7344623.01346  22992240.494    22992250.3194
  23483504.171    13964769.617 8  10898562.76345  23483503.858    23483513.9144
  21759982.891   -19116627.396 8 -14879430.91947  21759982.508    21759989.5724
  22965835.188   -10155467.918 8  -7886974.20046  22965834.694    22965843.3644
  21766130.976   -11610924.532 8  -9025035.40547  21766130.241    21766137.3144
  23987452.977    -7323449.491 7  -5688333.43045  23987452.692    23987463.2014
 01  5 15 19 30  0.0000000  0  9 30 06 26 23 05 17 15 10 18
  21627220.902    -6354928.188 9  -4941546.48047  21627221.236    21627227.6594
  20444774.228   -20067912.441 9 -15622516.13548  20444774.197    20444779.8014
  23655413.571    -3283884.044 7  -2534313.64145  23655413.798    23655425.3454
  22973865.532    -9937827.301 8  -7419866.40646  22973865.154    22973874.9404
  23503664.778    14070712.987 8  10981115.79245  23503664.481    23503674.4894
  21750920.831   -19164248.976 8 -14916538.61647  21750920.421    21750927.4804
  22951949.684   -10228436.492 8  -7943832.76946  22951949.206    22951957.8904
  21779345.007   -11541484.485 8  -8970926.32447  21779344.273    21779351.3724
  23966473.320    -7433697.344 8  -5774240.60245  23966473.006    23966483.5364
 01  5 15 19 30 30.0000000  0  9 30 06 26 23 05 17 15 10 18
  21642312.510    -6275621.637 9  -4879749.25247  21642312.848    21642319.2724
  20440132.623   -20092304.269 9 -15641522.76048  20440132.591    20440138.1984
  23640003.122    -3364865.938 7  -2597416.23545  23640003.327    23640014.8744
  22955535.798   -10034150.114 8  -7494923.02546  22955535.434    22955545.2214
  23523842.103    14176744.218 8  11063737.26945  23523841.793    23523851.8124
  21741901.468   -19211645.841 8 -14953471.21347  21741901.075    21741908.1204
  22938101.182   -10301210.730 8  -8000539.89546  22938100.703    22938109.4524
  21792642.875   -11471604.005 8  -8916474.05347  21792642.187    21792649.2194
  23945516.037    -7543827.578 8  -5860056.12845  23945515.815    23945526.2124
 01  5 15 19 31  0.0000000  0  9 30 06 26 23 05 17 15 10 18
  21657476.970    -6195932.431 9  -4817653.85547  21657477.300    21657483.7484
  20435553.405   -20116368.374 9 -15660274.01848  20435553.371    20435558.9964
  23624624.891    -3445678.164 7  -2660386.61045  23624625.112    23624636.6754
  22937252.129   -10130230.843 8  -7569791.02046  22937251.821    22937261.5534
  23544035.761    14282861.154 8  11146425.53345  23544035.403    23544045.4384
  21732924.866   -19258817.894 8 -14990228.63647  21732924.470    21732931.5544
  22924289.707   -10373790.250 8  -8057095.30146  22924289.185    22924298.0174
  21806024.086   -11401285.537 8  -8861680.49047  21806023.394    21806030.3994
  23924581.588    -7653837.614 7  -5945777.98145  23924581.377    23924591.6574
 01  5 15 19 31 30.0000000  0  9 30 06 26 23 05 17 15 10 18
  21672713.730    -6115863.093 9  -4755262.25147  21672714.082    21672720.5074
  20431036.821   -20140103.210 9 -15678768.69848  20431036.787    20431042.4334
  23609279.598    -3526317.805 7  -2723222.51045  23609279.806    23609291.2504
  22919014.970   -10226067.562 8  -7644468.87746  22919014.627    22919024.2714
  23564245.102    14389060.899 8  11229178.31845  23564244.762    23564254.8614
  21723990.948   -19305765.609 8 -15026811.25047  21723990.575    21723997.6924
  22910515.243   -10446175.069 8  -8113498.97446  22910514.741    22910523.6004
  21819488.113   -11330531.781 8  -8806547.73747  21819487.423    21819494.3994
  23903670.485    -7763725.126 8  -6031404.37345  23903670.324    23903680.5964
 01  5 15 19 32  0.0000000  0  9 30 06 26 23 05 17 15 10 18
  21688022.305    -6035416.527 9  -4692576.70547  21688022.654    21688029.0374
  20426583.193   -20163507.260 9 -15697005.62848  20426583.171    20426588.8144
  23593967.744    -3606781.101 7  -2785921.00145  23593967.906    23593979.4294
  22900824.712   -10321657.667 8  -7718954.56046  22900824.339    22900833.9534
  23584469.704    14495340.942 7  11311993.65945  23584469.362    23584479.6204
  21715099.707   -19352489.043 8 -15063219.09947  21715099.360    21715106.5084
  22896777.916   -10518364.907 8  -8169750.73446  22896777.421    22896786.2644
  21833034.524   -11259344.928 8  -8751077.50847  21833033.825    21833040.8524
  23882783.196    -7873487.611 8  -6116933.35245  23882783.034    23882793.2854
 01  5 15 19 32 30.0000000  0  9 30 06 26 23 05 17 15 10 18
  21703402.154    -5954595.524 9  -4629599.38947  21703402.477    21703408.8514
  20422192.725   -20186579.301 9 -15714983.84648  20422192.700    20422198.3394
  23578690.120    -3687064.925 7  -2848479.64245  23578690.133    23578701.7614
  22882681.703   -10416999.362 8  -7793246.68846  22882681.399    22882690.8804
  23604709.036    14601698.394 7  11394869.31845  23604708.740    23604718.9814
  21706251.083   -19398988.733 8 -15099452.60147  21706250.725    21706257.9264
  22883077.656   -10590359.841 8  -8225850.61546  22883077.176    22883085.9504
  21846662.800   -11187728.066 8  -8695272.21247  21846662.080    21846669.1594
  23861920.093    -7983123.017 8  -6202363.30445  23861919.907    23861930.1344
 01  5 15 19 33  0.0000000  0  9 30 06 26 23 05 17 15 10 18
  21718852.607    -5873402.980 9  -4566332.56147  21718852.931    21718859.3044
  20417865.736   -20209317.791 9 -15732702.15948  20417865.726    20417871.3474
  23563447.238    -3767165.999 7  -2910895.88745  23563447.414    23563458.7744
  22864586.431   -10512090.509 8  -7867343.58346  22864586.067    22864595.5224
  23624962.607    14708130.647 7  11477803.25945  23624962.318    23624972.5934
  21697444.974   -19445265.049 8 -15135512.04547  21697444.602    21697451.8004
  22869414.597   -10662159.705 8  -8281798.48146  22869414.084    22869422.8514
  21860372.387   -11115683.992 8  -8639134.02047  21860371.650    21860378.7794
  23841081.657    -8092629.107 8  -6287692.51145  23841081.413    23841091.4984
 01  5 15 19 33 30.0000000  0  9 30 06 26 23 05 17 15 10 18
  21734373.207    -5791841.866 9  -4502778.53247  21734373.536    21734379.9574
  20413602.475   -20231721.545 9 -15750159.63748  20413602.457    20413608.0474
  23548239.739    -3847081.226 7  -2973167.31245  23548239.933    23548251.1564
  22846539.151   -10606929.104 8  -7941243.68746  22846538.780    22846548.2114
  23645229.911    14814634.771 7  11560793.19745  23645229.627    23645239.9224
  21688681.281   -19491318.476 8 -15171397.80747  21688680.929    21688688.0994
  22855788.598   -10733764.640 8  -8337594.47446  22855788.087    22855796.7884
  21874162.742   -11043215.532 8  -8582665.14247  21874162.013    21874169.1374
  23820268.174    -8202003.768 8  -6372919.30245  23820267.922    23820277.9494
 01  5 15 19 34  0.0000000  0  9 30 06 26 23 05 17 15 10 18
  21749963.474    -5709914.624 9  -4438939.20847  21749963.813    21749970.2864
  20409403.191   -20253788.934 9 -15767355.01148  20409403.164    20409408.7714
  23533068.222    -3926807.074 7  -3035291.15945  23533068.336    23533079.5994
  22828540.444   -10701512.626 8  -8014945.03646  22828540.071    22828549.4344
  23665510.403    14921208.156 8  11643837.10845  23665510.078    23665520.4464
  21679960.025   -19537149.113 8 -15207109.96447  21679959.646    21679966.7894
  22842199.737   -10805174.510 8  -8393238.45446  22842199.195    22842207.8854
  21888033.396   -10970325.069 8  -8525867.41847  21888032.680    21888039.8004
  23799480.205    -8311244.434 8  -6458041.68745  23799479.943    23799489.8634
 01  5 15 19 34 30.0000000  0  9 30 06 26 23 05 17 15 10 18
  21765622.860    -5627624.213 9  -4374816.90547  21765623.203    21765629.7064
  20405268.230   -20275518.381 9 -15784287.05748  20405268.187    20405273.8064
  23517933.374    -4006340.231 7  -3097264.87145  23517933.504    23517944.8384
  22810590.646   -10795839.136 8  -8088446.11546  22810590.267    22810599.5804
  23685803.580    15027848.231 8  11726932.97745  23685803.219    23685813.6644
  21671281.070   -19582757.312 8 -15242648.79247  21671280.685    21671287.8174
  22828647.980   -10876389.341 8  -8448730.45446  22828647.427    22828656.0944
  21901983.855   -10897015.306 8  -8468742.97747  21901983.143    21901990.1974
  23778718.205    -8420348.780 8  -6543057.84945  23778717.986    23778727.7164
 01  5 15 19 35  0.0000000  0  9 30 06 26 23 05 17 15 10 18
  21781350.950    -5544972.911 9  -4310413.38447  21781351.294    21781357.8334
  20401197.989   -20296907.756 9 -15800954.11148  20401197.945    20401203.5754
  23502836.007    -4085676.658 7  -3159085.28245  23502836.025    23502847.4124
  22792690.246   -10889906.056 8  -8161744.91846  22792689.860    22792699.1294
  23706109.034    15134552.540 8  11810078.89545  23706108.632    23706119.1554
  21662644.448   -19628142.883 8 -15278014.14947  21662644.064    21662651.1994
  22815133.402   -10947408.592 8  -8504070.05446  22815132.843    22815141.4454
  21916013.673   -10823288.640 8  -8411293.67147  21916012.930    21916019.9704
  23757982.649    -8529314.467 8  -6627965.97545  23757982.352    23757991.9934
 01  5 15 19 35 30.0000000  0  9 30 06 26 23 05 17 15 10 18
  21797147.138    -5461963.774 9  -4245731.03147  21797147.489    21797154.0484
  20397192.679   -20317955.740 9 -15817355.14648  20397192.627    20397198.2734
  23487776.639    -4164813.397 7  -3220750.10645  23487776.791    23487787.9284
  22774839.611   -10983711.396 8  -8234839.89646  22774839.267    22774848.4814
  23726426.171    15241318.318 8  11893272.70645  23726425.776    23726436.3214
  21654050.079   -19673306.394 8 -15313206.47147  21654049.703    21654056.8174
  22801656.066   -11018232.097 8  -8559257.13046  22801655.503    22801664.0984
  21930122.240   -10749147.886 8  -8353521.70747  21930121.503    21930128.5224
  23737273.910    -8638139.009 8  -6712764.12445  23737273.647    23737283.1384
 01  5 15 19 36  0.0000000  0  9 30 06 26 23 05 17 15 10 18
  21813010.949    -5378599.221 9  -4180771.73747  21813011.306    21813017.9194
  20393252.706   -20338660.469 9 -15833488.71548  20393252.665    20393258.3244
  23472755.979    -4243746.589 7  -3282256.30445  23472756.229    23472767.1794
  22757039.236   -11077252.549 8  -8307729.00546  22757038.910    22757048.1424
  23746754.529    15348143.180 8  11976512.54445  23746754.124    23746764.7464
  21645498.000   -19718247.657 8 -15348225.62147  21645497.634    21645504.7404
  22788216.019   -11088859.561 8  -8614291.43846  22788215.467    22788224.0284
  21944309.122   -10674595.407 8  -8295428.91446  21944308.411    21944315.4124
  23716592.594    -8746819.514 8  -6797450.04745  23716592.315    23716601.6144
 01  5 15 19 36 30.0000000  0  9 30 06 26 23 05 17 15 10 18
  21828941.874    -5294882.062 9  -4115537.67547  21828942.228    21828948.8784
  20389378.305   -20359020.545 9 -15849353.71648  20389378.267    20389383.9384
  23457774.680    -4322473.078 7  -3343601.44445  23457774.970    23457785.9754
  22739289.548   -11170527.585 8  -8380410.74946  22739289.197    22739298.4214
  23767093.630    15455024.375 8  12059796.28345  23767093.223    23767103.8684
  21636988.079   -19762967.269 8 -15383072.04847  21636987.725    21636994.8424
  22774813.238   -11159291.236 8  -8669173.17846  22774812.715    22774821.2224
  21958573.813   -10599634.266 8  -8237017.68946  21958573.096    21958580.0994
  23695939.133    -8855353.719 8  -6882021.97945  23695938.873    23695948.0794
 01  5 15 19 37  0.0000000  0  9 30 06 26 23 05 17 15 10 18
  21844939.359    -5210815.037 9  -4050030.99647  21844939.713    21844946.4114
  20385569.874   -20379034.193 9 -15864948.77648  20385569.834    20385575.4974
  23442833.398    -4400989.223 7  -3404782.68245  23442833.834    23442844.7214
  22721590.940   -11263534.162 8  -8452883.31446  22721590.571    22721599.7264
  23787442.940    15561959.466 8  12143122.00745  23787442.536    23787453.2484
  21628520.439   -19807465.102 8 -15417745.66347  21628520.077    21628527.2134
  22761447.741   -11229526.624 8  -8723901.98446  22761447.219    22761455.7794
  21972915.800   -10524266.905 8  -8178289.92946  21972915.088    21972922.0914
  23675313.908    -8963739.464 8  -6966478.22645  23675313.692    23675322.7554
 01  5 15 19 37 30.0000000  0  9 30 06 26 23 05 17 15 10 18
  21861002.944    -5126400.723 9  -3984253.70047  21861003.302    21861010.0284
  20381827.625   -20398700.062 9 -15880272.83648  20381827.594    20381833.2224
  23427932.853    -4479291.666 7  -3465797.41345  23427933.210    23427944.0804
  22703943.830   -11356270.128 8  -8525145.00646  22703943.427    22703952.5554
  23807802.044    15668945.851 8  12226487.70545  23807801.591    23807812.3404
  21620094.919   -19851741.595 8 -15452246.80747  21620094.570    21620101.6754
  22748119.568   -11299565.638 8  -8778477.75346  22748119.055    22748127.7064
  21987334.562   -10448495.855 8  -8119247.60546  21987333.865    21987340.8804
  23654717.381    -9071974.469 8  -7050817.02245  23654717.121    23654726.0764
 01  5 15 19 38  0.0000000  0  9 30 06 26 23 05 17 15 10 18
  21877132.132    -5041641.774 9  -3918207.86747  21877132.486    21877139.1924
  20378151.855   -20418016.490 9 -15895324.61148  20378151.829    20378157.4234
  23413073.617    -4557376.833 7  -3526642.83445  23413073.896    23413084.8704
  22686348.665   -11448733.093 8  -8597193.98346  22686348.278    22686357.3464
  23828170.437    15775981.195 8  12309891.54345  23828169.980    23828180.7434
  21611711.508   -19895796.795 8 -15486575.52247  21611711.154    21611718.2464
  22734828.870   -11369408.181 8  -8832900.43446  22734828.436    22734837.0914
  22001829.707   -10372323.572 8  -8059892.64146  22001829.011    22001836.0814
  23634150.018    -9180056.164 8  -7135036.35945  23634149.759    23634158.6494
 01  5 15 19 38 30.0000000  0  9 30 06 26 23 05 17 15 10 18
  21893326.210    -4956541.876 8  -3851896.35447  21893326.545    21893333.2604
  20374542.788   -20436982.483 9 -15910103.31848  20374542.747    20374548.3294
  23398256.192    -4635241.829 7  -3587316.69245  23398256.465    23398267.4684
  22668805.766   -11540921.339 8  -8669028.88046  22668805.333    22668814.4164
  23848547.532    15883062.380 8  12393331.08945  23848547.104    23848557.9624
  21603370.044   -19939631.593 8 -15520732.49147  21603369.668    21603376.7564
  22721575.542   -11439054.659 8  -8887170.33946  22721575.081    22721583.7544
  22016400.573   -10295753.320 8  -8000227.56946  22016399.883    22016407.0034
  23613612.223    -9287982.755 8  -7219134.83845  23613611.977    23613620.6764
 01  5 15 19 39  0.0000000  0  9 30 06 26 23 05 17 15 10 18
  21909584.622    -4871103.588 8  -3785321.16447  21909584.950    21909591.6754
  20371000.648   -20455596.571 9 -15924607.81148  20371000.600    20371006.1674
  23383481.462    -4712883.196 7  -3647816.29445  23383481.713    23383492.5894
  22651315.544   -11632832.777 8  -8740648.09046  22651315.111    22651324.1844
  23868932.861    15990186.708 8  12476804.26345  23868932.401    23868943.4014
  21595070.452   -19983246.164 8 -15554717.85647  21595070.094    21595077.1574
  22708359.598   -11508504.841 8  -8941287.28546  22708359.130    22708367.7934
  22031046.631   -10218787.833 8  -7940254.52146  22031045.944    22031053.1224
  23593104.338    -9395752.104 8  -7303110.80045  23593104.054    23593112.6484
 01  5 15 19 39 30.0000000  0  9 30 06 26 23 05 17 15 10 18
  21925906.897    -4785329.732 8  -3718484.49147  21925907.250    21925913.9634
  20367525.791   -20473857.287 9 -15938836.95448  20367525.745    20367531.3014
  23368749.914    -4790297.480 7  -3708138.95945  23368750.291    23368760.9674
  22633878.385   -11724465.347 8  -8812050.00246  22633877.952    22633886.9724
  23889325.900    16097351.570 8  12560309.00045  23889325.484    23889336.4864
  21586812.703   -20026640.821 8 -15588531.85547  21586812.351    21586819.4454
  22695181.090   -11577758.541 8  -8995251.12946  22695180.623    22695189.2294
  22045767.371   -10141430.011 8  -7879975.75646  22045766.673    22045773.9334
  23572626.879    -9503361.308 8  -7386961.96445  23572626.581    23572635.1464
 01  5 15 19 40  0.0000000  0  9 30 06 26 23 05 17 15 10 18
  21942292.505    -4699223.315 8  -3651388.68247  21942292.837    21942299.5764
  20364118.376   -20491763.441 9 -15952789.80748  20364118.334    20364123.8884
  23354062.186    -4867481.624 7  -3768282.29245  23354062.469    23354073.1614
  22616494.662   -11815817.180 8  -8883233.15846  22616494.227    22616503.2064
  23909726.141    16204554.143 8  12643843.11845  23909725.731    23909736.7964
  21578596.676   -20069816.141 8 -15622174.93847  21578596.329    21578603.4364
  22682039.943   -11646815.855 8  -9049061.94946  22682039.411    22682048.0104
  22060562.225   -10063682.707 8  -7819393.50146  22060561.541    22060568.8244
  23552180.223    -9610808.480 8  -7470686.88245  23552179.956    23552188.4704
 01  5 15 19 40 30.0000000  0  9 30 06 26 23 05 17 15 10 18
  21958740.861    -4612786.894 8  -3584035.72047  21958741.220    21958747.9644
  20360778.778   -20509313.109 9 -15966464.87948  20360778.736    20360784.3184
  23339418.935    -4944432.024 7  -3828243.48145  23339419.187    23339429.8854
  22599164.838   -11906885.868 8  -8954195.67346  22599164.394    22599173.3204
  23930133.098    16311791.920 8  12727404.67545  23930132.703    23930143.8994
  21570422.389   -20112772.232 8 -15655647.19947  21570422.038    21570429.1484
  22668936.200   -11715676.673 8  -9102719.64846  22668935.643    22668944.1454
  22075430.678    -9985548.671 8  -7758509.89346  22075429.997    22075437.3194
  23531764.913    -9718090.995 8  -7554283.49145  23531764.579    23531773.1114
 01  5 15 19 41  0.0000000  0  9 30 06 26 23 05 17 15 10 18
  21975251.520    -4526023.287 8  -3516427.81447  21975251.869    21975258.6884
  20357507.334   -20526504.614 9 -15979860.86448  20357507.301    20357512.8764
  23324820.820    -5021145.135 7  -3888019.78445  23324821.172    23324831.8674
  22581889.268   -11997669.022 8  -9024935.70346  22581888.854    22581897.7584
  23950546.363    16419062.823 8  12810992.02545  23950545.942    23950557.2164
  21562289.856   -20155509.063 8 -15688948.60347  21562289.498    21562296.6014
  22655869.820   -11784340.802 8  -9156224.09746  22655869.298    22655877.7224
  22090372.304    -9907029.944 8  -7697326.53346  22090371.614    22090378.9874
  23511381.323    -9825206.554 8  -7637750.01945  23511381.071    23511389.5324
 01  5 15 19 41 30.0000000  0  9 30 06 26 23 05 17 15 10 18
  21991823.832    -4438935.464 8  -3448567.27147  21991824.207    21991831.0864
  20354304.354   -20543336.583 9 -15992976.69148  20354304.328    20354309.8754
  23310268.587    -5097617.406 7  -3947608.43045  23310268.927    23310279.5754
  22564668.410   -12088164.837 8  -9095451.82346  22564667.995    22564676.9264
  23970965.386    16526363.889 8  12894602.87945  23970964.926    23970976.2274
  21554198.955   -20198027.104 8 -15722079.51947  21554198.589    21554205.6684
  22642840.818   -11852808.147 8  -9209575.20246  22642840.318    22642848.6884
  22105386.627    -9828129.307 8  -7635845.58146  22105385.940    22105393.3484
  23491029.966    -9932152.907 8  -7721084.68645  23491029.689    23491038.1644
 01  5 15 19 42  0.0000000  0  9 30 06 26 23 05 17 15 10 18
  22008457.389    -4351525.910 8  -3380456.02547  22008457.762    22008464.6694
  20351170.073   -20559807.420 9 -16005811.11248  20351170.048    20351175.5944
  23295762.730    -5173845.624 7  -4007006.89945  23295763.039    23295773.6034
  22547502.636   -12178371.031 8  -9165742.27346  22547502.239    22547511.1794
  23991389.647    16633692.754 8  12978235.38645  23991389.266    23991400.6624
  21546149.624   -20240326.518 8 -15755040.07647  21546149.261    21546156.3124
  22629849.310   -11921078.454 8  -9262772.76646  22629848.852    22629857.1794
  22120473.066    -9748849.645 8  -7574069.27946  22120472.386    22120479.8414
  23470711.288   -10038927.673 8  -7804285.65545  23470711.045    23470719.4784
 01  5 15 19 42 30.0000000  0 10 30 06 26 23 05 17 15 10 18 22
  22025150.113    -4263805.443 8  -3312102.51547  22025150.475    22025157.3884
  20348103.327   -20575923.360 9 -16018368.99448  20348103.291    20348108.8634
  23281302.501    -5249833.921 7  -4066218.41845  23281302.730    23281313.4374
  22530390.936   -12268293.310 8  -9235811.47946  22530390.575    22530399.4794
  24011817.249    16741039.068 8  13061881.47845  24011816.795    24011828.3374
  21538140.440   -20282415.277 8 -15787836.48847  21538140.066    21538147.0874
  22616893.778   -11989159.594 8  -9315822.94346  22616893.330    22616901.6484
  22135629.623    -9669201.468 8  -7512005.82646  22135628.953    22135636.4024
  23450424.237   -10145536.140 8  -7887357.04345  23450423.999    23450432.4174
  24298493.701    -1327157.060 7   -996368.42645  24298492.764    24298502.3014
 01  5 15 19 43  0.0000000  0 10 30 06 26 23 05 17 15 10 18 22
  22041903.364    -4175767.089 8  -3243501.29147  22041903.718    22041910.6474
  20345106.236   -20591673.032 9 -16030641.46948  20345106.216    20345111.7894
  23266890.387    -5325569.128 7  -4125232.72645  23266890.747    23266901.3034
  22513335.523   -12357919.727 8  -9305650.14646  22513335.143    22513344.0454
  24032249.568    16848410.244 8  13145546.94045  24032249.170    24032260.7704
  21530173.117   -20324283.736 8 -15820461.23247  21530172.742    21530179.7644
  22603976.202   -12057041.454 8  -9368717.82646  22603975.754    22603984.0924
  22150857.710    -9589177.627 8  -7449649.64446  22150857.010    22150864.4694
  23430171.157   -10251966.169 8  -7970289.39746  23430170.881    23430179.3164
  24284207.928    -1402229.086 7  -1054866.03645  24284207.124    24284216.5134
 01  5 15 19 43 30.0000000  0 10 30 06 26 23 05 17 15 10 18 22
  22058716.586    -4087413.519 8  -3174654.45547  22058716.908    22058723.9084
  20342179.151   -20607054.997 9 -16042627.42548  20342179.112    20342184.7214
  23252527.080    -5401047.759 7  -4184047.09545  23252527.441    23252537.8914
  22496336.887   -12447248.094 8  -9375256.56846  22496336.510    22496345.3694
  24052686.118    16955803.665 8  13229229.73645  24052685.662    24052697.3454
  21522247.634   -20365932.212 8 -15852914.56847  21522247.258    21522254.2964
  22591096.593   -12124723.966 8  -9421457.37746  22591096.130    22591104.5134
  22166156.819    -9508780.743 8  -7387002.77946  22166156.109    22166163.5194
  23409952.502   -10358215.389 8  -8053080.84746  23409952.258    23409960.6094
  24269995.512    -1476915.526 7  -1113063.17145  24269994.713    24270003.8494
 01  5 15 19 44  0.0000000  0 10 30 06 26 23 05 17 15 10 18 22
  22075588.973    -3998748.652 8  -3105565.04747  22075589.307    22075596.3584
  20339322.119   -20622068.774 9 -16054326.48148  20339322.080    20339327.7304
  23238213.106    -5476267.469 7  -4242659.71045  23238213.450    23238223.8624
  22479395.118   -12536277.396 8  -9444629.94646  22479394.729    22479403.6284
  24073126.231    17063215.736 7  13312927.05545  24073125.811    24073137.6164
  21514363.739   -20407362.097 8 -15885197.56847  21514363.356    21514370.4284
  22578254.715   -12192208.175 8  -9474042.40346  22578254.230    22578262.6294
  22181526.158    -9428014.717 8  -7324068.27446  22181525.439    22181532.8024
  23389768.520   -10464282.404 8  -8135730.33346  23389768.251    23389776.6024
  24255856.718    -1551214.746 7  -1170958.58145  24255855.910    24255865.1714
 01  5 15 19 44 30.0000000  0 10 30 06 26 23 05 17 15 10 18 22
  22092520.012    -3909775.762 8  -3036235.62147  22092520.356    22092527.4794
  20336535.328   -20636713.322 9 -16065737.82848  20336535.320    20336540.9774
  23223949.078    -5551225.151 7  -4301068.13945  23223949.245    23223959.6654
  22462510.564   -12625005.863 8  -9513768.91746  22462510.198    22462519.0664
  24093569.354    17170643.587 7  13396636.66245  24093568.959    24093580.8544
  21506521.362   -20448573.922 8 -15917310.65647  21506520.995    21506528.0724
  22565450.500   -12259494.462 8  -9526473.20346  22565450.004    22565458.4084
  22196965.261    -9346882.228 8  -7260848.21546  22196964.561    22196971.8624
  23369619.548   -10570165.326 8  -8218236.34946  23369619.289    23369627.6244
  24241792.081    -1625124.547 7  -1228550.56445  24241791.516    24241800.6334
 01  5 15 19 45  0.0000000  0 10 30 06 26 23 05 17 15 10 18 22
  22109508.916    -3820498.592 8  -2966669.09547  22109509.255    22109516.4804
  20333818.921   -20650988.071 9 -16076861.01948  20333818.910    20333824.5664
  23209735.357    -5625918.557 7  -4359270.67045  23209735.595    23209745.7514
  22445683.469   -12713432.496 8  -9582672.68246  22445683.097    22445691.9874
  24114014.768    17278083.626 7  13480355.76645  24114014.375    24114026.3574
  21498720.259   -20489569.038 8 -15949254.87547  21498719.906    21498726.9434
  22552683.734   -12326583.873 8  -9578750.60046  22552683.242    22552691.6274
  22212473.287    -9265387.418 8  -7197345.83246  22212472.595    22212479.8724
  23349505.865   -10675862.878 8  -8300597.94446  23349505.583    23349513.9524
  24227801.733    -1698644.031 7  -1285838.40845  24227801.113    24227810.1334
 01  5 15 19 45 30.0000000  0 10 30 06 26 23 05 17 15 10 18 22
  22126555.282    -3730919.559 8  -2896867.35247  22126555.594    22126562.8994
  20331173.298   -20664891.139 9 -16087694.58748  20331173.282    20331178.9264
  23195572.604    -5700343.752 7  -4417264.19745  23195572.809    23195582.9374
  22428914.242   -12801554.724 8  -9651339.26446  22428913.906    22428922.7464
  24134462.185    17385534.025 7  13564082.91345  24134461.769    24134473.9014
  21490960.435   -20530347.292 9 -15981030.11647  21490960.078    21490967.0784
  22539954.619   -12393475.625 8  -9630873.97446  22539954.135    22539962.5304
  22228049.792    -9183532.610 8  -7133562.93046  22228049.102    22228056.3924
  23329427.985   -10781372.134 8  -8382812.80446  23329427.733    23329436.0294
  24213886.137    -1771770.880 7  -1342820.29945  24213885.436    24213894.4614
 01  5 15 19 46  0.0000000  0 10 30 06 26 23 05 17 15 10 18 22
  22143658.419    -3641042.180 8  -2826833.13047  22143658.744    22143666.0934
  20328598.573   -20678421.468 9 -16098237.70948  20328598.544    20328604.1884
  23181461.560    -5774497.692 7  -4475046.36245  23181461.858    23181471.8824
  22412203.306   -12889370.993 8  -9719767.42446  22412202.955    22412211.7834
  24154910.975    17492991.626 7  13647815.68345  24154910.602    24154922.8944
  21483241.802   -20570909.242 9 -16012636.81047  21483241.441    21483248.4034
  22527263.114   -12460169.977 8  -9682843.53046  22527262.631    22527270.9824
  22243694.279    -9101320.594 8  -7069501.68946  22243693.582    22243700.8864
  23309386.243   -10886691.370 8  -8464879.59146  23309385.999    23309394.3084
  24200045.503    -1844503.261 7  -1399494.80645  24200044.898    24200053.7534
 01  5 15 19 46 30.0000000  0 10 30 06 26 23 05 17 15 10 18 22
  22160817.771    -3550869.613 8  -2756568.89546  22160818.095    22160825.4784
  20326094.994   -20691577.865 9 -16108489.45548  20326094.987    20326100.6124
  23167402.671    -5848377.328 7  -4532614.78145  23167402.891    23167412.8814
  22395550.952   -12976879.621 8  -9787955.87146  22395550.593    22395559.3594
  24175360.654    17600453.537 7  13731551.78945  24175360.275    24175372.6074
  21475564.153   -20611255.568 8 -16044075.48047  21475563.787    21475570.7154
  22514609.123   -12526667.048 8  -9734659.35246  22514608.581    22514616.9874
  22259406.080    -9018754.646 8  -7005164.64446  22259405.374    22259412.7484
  23289381.080   -10991818.441 8  -8546796.65346  23289380.828    23289389.2434
  24186280.472    -1916838.671 7  -1455859.98745  24186279.787    24186288.8734
 01  5 15 19 47  0.0000000  0 10 30 06 26 23 05 17 15 10 18 22
  22178032.889    -3460404.090 8  -2686076.38246  22178033.207    22178040.5854
  20323662.947   -20704358.619 9 -16118448.49348  20323662.931    20323668.5594
  23153396.636    -5921978.922 7  -4589966.55045  23153396.907    23153406.8204
  22378957.597   -13064078.167 8  -9855902.70246  22378957.220    22378965.9264
  24195810.719    17707917.615 7  13815289.58745  24195810.309    24195822.7824
  21467927.518   -20651386.203 8 -16075346.08447  21467927.153    21467934.0514
  22501992.645   -12592966.646 8  -9786321.30546  22501992.145    22502000.5574
  22275184.791    -8935837.207 8  -6940553.71246  22275184.091    22275191.5044
  23269413.043   -11096750.541 8  -8628561.78446  23269412.791    23269421.2134
  24172591.409    -1988774.582 7  -1511913.88245  24172590.674    24172599.8324
 01  5 15 19 47 30.0000000  0 10 30 06 26 23 05 17 15 10 18 22
  22195303.152    -3369648.706 8  -2615358.00146  22195303.471    22195310.8634
  20321302.568   -20716762.416 9 -16128113.80048  20321302.555    20321308.1874
  23139444.084    -5995299.288 7  -4647099.17145  23139444.376    23139454.3484
  22362423.548   -13150965.072 8  -9923606.69446  22362423.137    22362431.8184
  24216260.627    17815381.146 7  13899026.95645  24216260.221    24216272.8654
  21460331.825   -20691301.622 8 -16106448.98547  21460331.462    21460338.3624
  22489413.722   -12659069.072 8  -9837829.61246  22489413.193    22489421.6054
  22291029.850    -8852571.157 8  -6875671.13646  22291029.131    22291036.6004
  23249482.398   -11201485.938 8  -8710173.63846  23249482.129    23249490.6044
  24158978.740    -2060309.540 7  -1567655.34445  24158978.027    24158987.0814
 01  5 15 19 48  0.0000000  0 10 30 06 26 23 05 17 15 10 18 22
  22212628.059    -3278606.221 8  -2544415.91546  22212628.397    22212635.7744
  20319014.277   -20728787.583 9 -16137484.07148  20319014.259    20319019.9214
  23125545.808    -6068334.732 7  -4704009.79045  23125546.108    23125556.1004
  22345949.253   -13237537.843 8  -9991065.90946  22345948.851    22345957.4684
  24236710.045    17922841.879 7  13982762.12845  24236709.584    24236722.4584
  21452777.089   -20731001.777 8 -16137384.14547  21452776.742    21452783.6244
  22476872.363   -12724974.114 8  -9889184.12546  22476871.836    22476880.2264
  22306940.778    -8768958.966 8  -6810518.84446  22306940.057    22306947.5294
  23229589.727   -11306021.888 8  -8791630.08146  23229589.500    23229597.9634
  24145442.816    -2131441.232 7  -1623082.56545  24145442.258    24145451.2444
 01  5 15 19 48 30.0000000  0 10 30 06 26 23 05 17 15 10 18 22
  22230006.918    -3187280.117 8  -2473252.82246  22230007.286    22230014.6274
  20316798.174   -20740433.312 9 -16146558.67248  20316798.163    20316803.8224
  23111702.282    -6141082.487 7  -4760696.23645  23111702.582    23111712.4954
  22329534.976   -13323795.014 8 -10058279.19346  22329534.605    22329543.1614
  24257158.373    18030296.841 7  14066492.80845  24257157.998    24257170.9244
  21445263.176   -20770487.623 8 -16168152.31047  21445262.824    21445269.6864
  22464368.531   -12790682.078 8  -9940385.06146  22464368.031    22464376.3524
  22322916.945    -8685003.864 8  -6745099.34246  22322916.226    22322923.6894
  23209735.318   -11410356.663 8  -8872929.77146  23209735.095    23209743.5474
  24131983.962    -2202167.669 7  -1678194.01245  24131983.305    24131992.3524
 01  5 15 19 49  0.0000000  0 10 30 06 26 23 05 17 15 10 18 22
  22247439.201    -3095673.343 8  -2401871.02746  22247439.558    22247446.8854
  20314654.550   -20751698.179 9 -16155336.50248  20314654.537    20314660.1984
  23097914.145    -6213539.265 7  -4817155.94445  23097914.447    23097924.3294
  22313181.114   -13409734.740 8 -10125245.12546  22313180.746    22313189.2974
  24277605.091    18137743.436 7  14150216.95545  24277604.814    24277617.7454
  21437789.977   -20809759.378 9 -16198753.65447  21437789.637    21437796.4954
  22451902.243   -12856192.742 8  -9991432.26046  22451901.692    22451909.9954
  22338957.873    -8600708.651 8  -6679414.81346  22338957.122    22338964.6564
  23189919.695   -11514487.780 8  -8954070.75946  23189919.473    23189927.9824
  24118602.778    -2272486.421 7  -1732987.80045  24118602.169    24118611.1044
 01  5 15 19 49 30.0000000  0 10 30 06 26 23 05 17 15 10 18 22
  22264924.373    -3003788.692 8  -2330272.70546  22264924.723    22264932.0704
  20312583.687   -20762580.639 9 -16163816.35248  20312583.651    20312589.3354
  23084182.070    -6285701.494 8  -4873386.13945  23084182.363    23084192.1584
  22296888.048   -13495355.010 8 -10191962.12846  22296887.676    22296896.2114
  24298049.805    18245179.308 7  14233932.73945  24298049.500    24298062.5474
  21430357.473   -20848817.302 9 -16229188.37547  21430357.123    21430363.9934
  22439473.545   -12921505.969 8 -10042325.61246  22439472.996    22439481.2414
  22355063.014    -8516075.925 8  -6613467.29246  22355062.252    22355069.7974
  23170143.213   -11618413.123 8  -9035051.41146  23170143.024    23170151.6024
  24105299.552    -2342395.531 7  -1787462.37145  24105298.918    24105307.6624
 01  5 15 19 50  0.0000000  0 10 30 06 26 23 05 17 15 10 18 22
  22282461.807    -2911629.225 8  -2258460.24246  22282462.142    22282469.5364
  20310585.798   -20773079.574 9 -16171997.34848  20310585.774    20310591.4564
  23070506.660    -6357565.981 8  -4929384.32945  23070506.971    23070516.6324
  22280656.121   -13580653.970 8 -10258428.76246  22280655.733    22280664.2474
  24318491.987    18352601.756 7  14317638.07345  24318491.647    24318504.7964
  21422965.613   -20887661.808 9 -16259456.79547  21422965.260    21422972.1104
  22427082.326   -12986622.082 8 -10093065.37346  22427081.795    22427089.9624
  22371231.732    -8431109.014 8  -6547259.37846  22371230.969    22371238.5344
  23150406.280   -11722130.468 8  -9115869.98446  23150406.128    23150414.6944
  24092074.530    -2411893.485 7  -1841616.55945  24092073.924    24092082.5584
 01  5 15 19 50 30.0000000  0 10 30 06 26 23 05 17 15 10 18 22
  22300051.099    -2819197.245 8  -2186435.42646  22300051.456    22300058.8674
  20308661.335   -20783192.865 9 -16179877.84248  20308661.296    20308666.9544
  23056888.634    -6429128.938 8  -4985147.56145  23056888.858    23056898.6154
  22264485.794   -13665629.125 8 -10324643.07146  22264485.418    22264493.9424
  24338931.310    18460008.739 7  14401331.33345  24338930.947    24338944.1594
  21415614.394   -20926292.762 9 -16289558.81247  21415614.039    21415620.8444
  22414728.661   -13051540.510 8 -10143651.09546  22414728.137    22414736.2704
  22387463.685    -8345809.869 8  -6480792.56746  22387462.902    22387470.5104
  23130709.521   -11825636.941 8  -9196524.25146  23130709.353    23130717.9784
  24078928.321    -2480977.458 7  -1895448.17345  24078927.825    24078936.1964
 01  5 15 19 51  0.0000000  0 10 30 06 26 23 05 17 15 10 18 22
  22317691.564    -2726496.322 8  -2114201.05846  22317691.923    22317699.3444
  20306810.430   -20792919.487 9 -16187457.04048  20306810.408    20306816.0494
  23043328.526    -6500387.388 8  -5040673.51445  23043328.705    23043338.4274
  22248377.336   -13750279.025 8 -10390603.94846  22248376.970    22248385.4514
  24359367.066    18567397.199 7  14485010.15645  24359366.641    24359379.8624
  21408303.687   -20964710.863 9 -16319494.97347  21408303.320    21408310.1044
  22402412.636   -13116261.424 8 -10194082.91246  22402412.103    22402420.2554
  22403758.220    -8260181.688 8  -6414069.38446  22403757.432    22403765.0964
  23111053.245   -11928930.783 8  -9277012.81946  23111053.052    23111061.7394
  24065861.265    -2549645.460 7  -1948955.64245  24065860.732    24065868.9884
 01  5 15 19 51 30.0000000  0 10 30 06 26 23 05 17 15 10 18 22
  22335382.701    -2633529.370 8  -2041759.38346  22335383.056    22335390.5054
  20305033.348   -20802258.307 9 -16194734.04748  20305033.318    20305038.9674
  23029826.986    -6571337.916 8  -5095959.53045  23029827.242    23029836.8624
  22232331.213   -13834601.726 8 -10456309.85846  22232330.848    22232339.2674
  24379798.722    18674764.659 7  14568672.60245  24379798.316    24379811.6174
  21401033.405   -21002916.343 9 -16349265.45347  21401033.053    21401039.8124
  22390134.113   -13180784.949 8 -10244360.91446  22390133.583    22390141.8024
  22420114.844    -8174227.138 8  -6347091.86846  22420114.067    22420121.7514
  23091437.871   -12032009.750 8  -9357333.95746  23091437.631    23091446.2894
  24052873.696    -2617895.291 8  -2002137.26245  24052873.152    24052881.3704
 01  5 15 19 52  0.0000000  0 10 30 06 26 23 05 17 15 10 18 22
  22353124.028    -2540298.786 8  -1969112.28746  22353124.374    22353131.8304
  20303330.371   -20811207.490 9 -16201707.44348  20303330.337    20303336.0104
  23016384.741    -6641977.008 8  -5151002.86345  23016384.958    23016394.5524
  22216347.736   -13918594.957 8 -10521759.04146  22216347.353    22216355.7844
  24400226.037    18782109.235 7  14652317.20845  24400225.704    24400239.2284
  21393803.596   -21040909.102 9 -16378870.17547  21393803.248    21393809.9914
  22377893.257   -13245110.712 8 -10294484.80746  22377892.748    22377900.9824
  22436533.148    -8087948.685 8  -6279861.97646  22436532.401    22436540.0714
  23071863.923   -12134871.231 8  -9437485.62746  23071863.631    23071872.3264
  24039966.116    -2685724.773 7  -2054991.35045  24039965.578    24039973.8594
 01  5 15 19 52 30.0000000  0 10 30 06 26 23 05 17 15 10 18 22
  22370914.872    -2446807.819 8  -1896262.29446  22370915.227    22370922.6984
  20301701.704   -20819766.071 9 -16208376.47748  20301701.674    20301707.3804
  23003002.276    -6712301.681 8  -5205801.19945  23003002.623    23003012.1794
  22200427.223   -14002257.393 8 -10586950.46546  22200426.834    22200435.2824
  24420648.410    18889427.898 7  14735941.62145  24420648.166    24420661.7934
  21386614.120   -21078690.014 9 -16408309.82547  21386613.775    21386620.5434
  22365689.953   -13309239.043 8 -10344454.87346  22365689.455    22365697.7144
  22453012.481    -8001349.576 8  -6212382.21246  22453011.723    22453019.3754
  23052331.673   -12237513.419 8  -9517466.42946  23052331.393    23052340.0164
  24027138.720    -2753132.790 7  -2107517.02245  24027138.149    24027146.5594
 01  5 15 19 53  0.0000000  0 10 30 06 26 23 05 17 15 10 18 22
  22388754.686    -2353059.405 8  -1823211.69846  22388755.047    22388762.5194
  20300147.674   -20827932.595 9 -16214740.01148  20300147.640    20300153.3884
  22989680.382    -6782308.430 8  -5260351.81045  22989680.645    22989690.2614
  22184570.124   -14085586.723 8 -10651882.32746  22184569.762    22184578.1464
  24441065.478    18996718.306 7  14819544.00945  24441065.231    24441079.1274
  21379464.954   -21116259.106 9 -16437584.42247  21379464.605    21379471.3774
  22353524.261   -13373169.788 8 -10394270.97446  22353523.807    22353532.0774
  22469552.378    -7914432.149 8  -6144654.40746  22469551.673    22469559.2854
  23032841.629   -12339933.877 8  -9597274.44346  23032841.385    23032849.9344
  24014392.078    -2820116.560 8  -2159712.11045  24014391.393    24014400.0174
 01  5 15 19 53 30.0000000  0 10 30 06 26 23 05 17 15 10 18 22
  22406642.859    -2259056.896 8  -1749963.09646  22406643.213    22406650.7594
  20298668.428   -20835706.055 9 -16220797.26048  20298668.394    20298674.1524
  22976419.497    -6851994.336 8  -5314652.41245  22976419.715    22976429.3774
  22168776.644   -14168581.725 8 -10716553.67046  22168776.286    22168784.6424
  24461476.713    19103977.743 7  14903122.24945  24461476.372    24461490.4104
  21372355.976   -21153616.949 9 -16466694.40947  21372355.626    21372362.4024
  22341396.134   -13436903.397 8 -10443933.45546  22341395.693    22341403.9154
  22486152.185    -7827199.887 8  -6076681.27646  22486151.491    22486159.0534
  23013394.151   -12442130.590 8  -9676908.11646  23013393.929    23013402.4304
  24001726.504    -2886674.271 7  -2211575.19945  24001725.881    24001734.5164
 01  5 15 19 54  0.0000000  0 10 30 06 26 23 05 17 15 10 18 22
  22424578.854    -2164802.839 8  -1676518.50246  22424579.227    22424586.7844
  20297264.289   -20843084.890 9 -16226547.00948  20297264.286    20297270.0334
  22963220.367    -6921355.728 8  -5368700.14745  22963220.604    22963230.2274
  22153047.256   -14251240.064 8 -10780962.68446  22153046.895    22153055.1954
  24481881.564    19211204.041 7  14986674.64845  24481881.106    24481895.3994
  21365287.202   -21190763.745 9 -16495639.94647  21365286.830    21365293.5754
  22329305.626   -13500439.531 8 -10493442.06646  22329305.184    22329313.3114
  22502811.486    -7739655.023 8  -6008464.57146  22502810.768    22502818.3324
  22993989.703   -12544101.058 8  -9756365.50446  22993989.513    22993997.9674
  23989142.482    -2952803.571 8  -2263104.46645  23989141.783    23989150.5084
 01  5 15 19 54 30.0000000  0 10 30 06 26 23 05 17 15 10 18 22
  22442562.187    -2070300.191 8  -1602880.18346  22442562.547    22442570.1414
  20295935.489   -20850067.824 9 -16231988.26547  20295935.466    20295941.2094
  22950083.667    -6990389.303 8  -5422492.44145  22950083.898    22950093.4834
  22137382.257   -14333559.943 8 -10845107.96646  22137381.879    22137390.1694
  24502279.717    19318394.786 7  15070199.34645  24502279.214    24502293.7254
  21358258.570   -21227699.688 9 -16524421.18247  21358258.196    21358264.8954
  22317252.693   -13563778.091 8 -10542796.72446  22317252.227    22317260.2854
  22519529.759    -7651800.406 8  -5940006.49946  22519529.074    22519536.5574
  22974628.744   -12645843.090 8  -9835644.88446  22974628.566    22974637.0124
  23976640.168    -3018503.045 8  -2314298.80645  23976639.488    23976648.2784
 01  5 15 19 55  0.0000000  0 10 30 06 26 23 05 17 15 10 18 22
  22460592.159    -1975552.589 8  -1529051.00446  22460592.535    22460600.1504
  20294682.169   -20856654.244 9 -16237120.54747  20294682.154    20294687.8674
  22937009.822    -7059092.554 8  -5476027.32846  22937010.048    22937019.4784
  22121781.890   -14415540.218 8 -10908988.61746  22121781.510    22121789.7734
  24522670.440    19425546.680 7  15153693.75645  24522669.868    24522684.4294
  21351269.845   -21264425.765 9 -16553038.88447  21351269.464    21351276.1424
  22305237.106   -13626920.037 8 -10591998.17146  22305236.666    22305244.6604
  22536306.243    -7563639.695 8  -5871309.89746  22536305.570    22536313.0144
  22955311.562   -12747355.178 8  -9914745.09146  22955311.399    22955319.7244
  23964219.897    -3083771.382 8  -2365157.18945  23964219.117    23964228.1554
 01  5 15 19 55 30.0000000  0 10 30 06 26 23 05 17 15 10 18 22
  22478668.299    -1880562.123 8  -1455032.57546  22478668.681    22478676.3234
  20293504.733   -20862841.700 9 -16241941.94847  20293504.709    20293510.4204
  22923999.710    -7127461.168 8  -5529301.46446  22923999.895    22924009.2904
  22106246.683   -14497178.043 8 -10972602.42746  22106246.294    22106254.4934
  24543053.458    19532658.161 7  15237156.68745  24543052.977    24543067.4374
  21344321.123   -21300941.562 9 -16581492.73147  21344320.744    21344327.3984
  22293259.141   -13689864.427 8 -10641045.68146  22293258.708    22293266.6704
  22553140.691    -7475174.743 8  -5802376.22846  22553140.025    22553147.4334
  22936038.688   -12848634.375 8  -9993663.81946  22936038.541    22936046.8224
  23951882.389    -3148605.311 7  -2415677.08745  23951881.608    23951890.5574
 01  5 15 19 56  0.0000000  0 10 30 06 26 23 05 17 15 10 18 22
  22496790.013    -1785332.383 8  -1380827.70346  22496790.406    22496798.0544
  20292403.390   -20868629.477 9 -16246451.91648  20292403.361    20292409.0634
  22911053.724    -7195492.452 8  -5582312.73246  22911053.938    22911063.2444
  22090776.866   -14578472.136 8 -11035948.39946  22090776.474    22090784.6814
  24563428.342    19639726.479 7  15320585.98345  24563427.882    24563442.4934
  21337412.274   -21337247.742 9 -16609783.24047  21337411.897    21337418.5454
  22281318.699   -13752611.783 8 -10689939.66446  22281318.255    22281326.1404
  22570032.452    -7386408.407 8  -5733207.71846  22570031.772    22570039.1784
  22916810.537   -12949678.701 8 -10072399.53646  22916810.363    22916818.6194
  23939627.837    -3213003.087 8  -2465857.12445  23939627.101    23939636.1614
 01  5 15 19 56 30.0000000  0 10 30 06 26 23 05 17 15 10 18 22
  22514956.792    -1689866.096 8  -1306438.50946  22514957.169    22514964.8034
  20291378.330   -20874016.350 9 -16250649.48248  20291378.291    20291383.9994
  22898172.580    -7263183.109 8  -5635058.58446  22898172.775    22898182.0534
  22075372.776   -14659420.630 8 -11099025.07346  22075372.398    22075380.5954
  24583794.481    19746749.032 7  15403979.59845  24583794.012    24583808.8034
  21330543.236   -21373344.497 9 -16637910.56047  21330542.872    21330549.5354
  22269415.781   -13815161.732 8 -10738679.82746  22269415.345    22269423.1404
  22586980.999    -7297343.692 8  -5663806.70146  22586980.309    22586987.6864
  22897627.551   -13050485.887 8 -10150950.46746  22897627.323    22897635.5824
  23927456.672    -3276963.078 8  -2515696.01045  23927455.997    23927464.9994
 01  5 15 19 57  0.0000000  0 10 30 06 26 23 05 17 15 10 18 22
  22533168.071    -1594165.907 8  -1231867.05946  22533168.442    22533176.0764
  20290429.845   -20879000.728 9 -16254533.42748  20290429.808    20290435.5324
  22885356.930    -7330529.560 8  -5687536.22846  22885357.107    22885366.2764
  22060034.868   -14740021.573 8 -11161830.92746  22060034.526    22060042.7194
  24604151.564    19853723.731 7  15487335.92245  24604151.110    24604165.9224
  21323714.081   -21409231.843 9 -16665874.70747  21323713.730    21323720.3884
  22257550.485   -13877514.206 8 -10787266.09846  22257550.009    22257557.7434
  22603985.770    -7207983.334 8  -5594175.32146  22603985.076    22603992.4574
  22878490.075   -13151053.468 8 -10229314.69446  22878489.831    22878498.0454
  23915369.169    -3340483.467 8  -2565192.37145  23915368.385    23915377.5224
 01  5 15 19 57 30.0000000  0 10 30 06 26 23 05 17 15 10 18 22
  22551423.283    -1498234.857 8  -1157115.71346  22551423.644    22551431.3034
  20289558.181   -20883581.480 9 -16258102.85048  20289558.151    20289563.8614
  22872607.372    -7397528.675 8  -5739743.20646  22872607.573    22872616.6474
  22044763.389   -14820273.416 8 -11224364.76046  22044763.058    22044771.1834
  24624498.957    19960647.908 7  15570652.88645  24624498.554    24624513.5784
  21316924.677   -21444910.299 9 -16693676.07747  21316924.321    21316931.0174
  22245722.736   -13939669.317 8 -10835698.58846  22245722.257    22245729.9094
  22621046.245    -7118330.178 8  -5524315.77646  22621045.546    22621052.9354
  22859398.628   -13251379.331 8 -10307490.56046  22859398.398    22859406.5524
  23903365.606    -3403562.173 8  -2614344.54745  23903364.845    23903374.0034
 01  5 15 19 58  0.0000000  0 10 30 06 26 23 05 17 15 10 18 22
  22569721.852    -1402075.957 8  -1082186.82446  22569722.186    22569729.8544
  20288763.593   -20887757.113 9 -16261356.60148  20288763.551    20288769.2744
  22859924.529    -7464177.058 8  -5791676.89046  22859924.674    22859933.7424
  22029558.746   -14900174.095 8 -11286624.96446  22029558.414    22029566.4894
  24644836.433    20067519.616 7  15653928.94445  24644836.124    24644851.1574
  21310174.966   -21480380.032 9 -16721314.81047  21310174.623    21310181.3414
  22233932.581   -14001626.869 8 -10883977.13446  22233932.099    22233939.6904
  22638161.957    -7028386.518 8  -5454229.87246  22638161.287    22638168.7084
  22840353.585   -13351461.142 8 -10385476.26546  22840353.372    22840361.4644
  23891446.551    -3466196.817 8  -2663150.71245  23891445.856    23891454.9614
 01  5 15 19 58 30.0000000  0 10 30 06 26 23 05 17 15 10 18 22
  22588063.116    -1305692.554 8  -1007083.00546  22588063.439    22588071.1204
  20288046.218   -20891526.995 9 -16264294.17948  20288046.178    20288051.8894
  22847308.921    -7530472.005 8  -5843335.17146  22847309.107    22847318.1834
  22014421.140   -14979722.477 8 -11348610.63846  22014420.794    22014428.8324
  24665163.289    20174335.575 7  15737161.57245  24665162.892    24665177.9494
  21303464.863   -21515641.808 9 -16748791.49347  21303464.508    21303471.2284
  22222179.919   -14063387.314 8 -10932102.08746  22222179.405    22222186.9784
  22655332.326    -6938155.722 8  -5383920.23646  22655331.640    22655339.1154
  22821355.322   -13451297.419 8 -10463270.63546  22821355.125    22821363.1234
  23879612.256    -3528385.912 8  -2711609.69845  23879611.489    23879620.7434
 01  5 15 19 59  0.0000000  0  9 30 06 26 23 17 15 10 18 22
  22606446.623    -1209087.109 8   -931806.16046  22606446.952    22606454.6164
  20287406.386   -20894889.290 9 -16266914.16047  20287406.351    20287412.0864
  22834761.276    -7596409.702 8  -5894715.07246  22834761.464    22834770.5384
  21999351.034   -15058916.087 8 -11410319.87546  21999350.716    21999358.7254
  21296794.389   -21550695.420 9 -16776105.97247  21296794.026    21296800.7324
  22210464.822   -14124950.133 8 -10980073.04746  22210464.276    22210471.8844
  22672556.947    -6847639.952 8  -5313388.53046  22672556.205    22672563.7664
  22802404.324   -13550885.254 8 -10540871.42846  22802404.084    22802412.0504
  23867863.183    -3590127.498 7  -2759719.97845  23867862.433    23867871.5944
 01  5 15 19 59 30.0000000  0  9 30 06 26 23 17 15 10 18 22
  22624872.830    -1112257.330 8   -856354.51046  22624873.146    22624880.8394
  20286845.342   -20897837.775 9 -16269211.69447  20286845.309    20286851.0334
  22822283.190    -7661982.007 8  -5945810.25446  22822283.352    22822292.4974
  21984349.685   -15137748.350 8 -11471747.54446  21984349.352    21984357.3614
  21290164.425   -21585536.179 9 -16803254.59147  21290164.056    21290170.7574
  22198788.224   -14186310.509 8 -11027886.26846  22198787.679    22198795.3024
  22689836.196    -6756836.896 8  -5242632.96846  22689835.464    22689843.0384
  22783501.968   -13650217.549 8 -10618273.09746  22783501.720    22783509.6134
  23856200.522    -3651414.973 7  -2807476.39145  23856199.737    23856208.8914
 01  5 15 20  0  0.0000000  0  9 30 06 26 23 17 15 10 18 22
  22643339.649    -1015214.229 8   -780736.63946  22643339.981    22643347.6874
  20286361.790   -20900378.850 9 -16271191.76147  20286361.764    20286367.4734
  22809873.793    -7727193.263 8  -5996624.10946  22809874.023    22809883.1274
  21969416.002   -15216225.165 8 -11532898.24046  21969415.660    21969423.6654
  21283573.430   -21620172.013 9 -16830243.52947  21283573.059    21283579.7274
  22187148.705   -14247476.009 8 -11075547.62346  22187148.187    22187155.8294
  22707168.106    -6665757.241 8  -5171661.86546  22707167.346    22707174.9814
  22764647.146   -13749299.721 8 -10695479.86246  22764646.893    22764654.7664
  23844623.166    -3712253.712 8  -2854883.14745  23844622.372    23844631.5304
 01  5 15 20  0 30.0000000  0  9 30 06 26 23 17 15 10 18 22
  22661846.743     -917959.521 8   -704953.87746  22661847.090    22661854.8104
  20285956.214   -20902510.181 9 -16272852.55248  20285956.185    20285961.8924
  22797533.882    -7792039.208 8  -6047153.30446  22797534.096    22797543.1924
  21954550.433   -15294343.801 8 -11593769.83746  21954550.101    21954558.1064
  21277021.596   -21654602.136 9 -16857072.17647  21277021.215    21277027.8584
  22175546.466   -14308445.699 8 -11123056.41646  22175545.959    22175553.6274
  22724552.384    -6574402.419 8  -5100476.35646  22724551.640    22724559.2074
  22745840.568   -13848128.514 8 -10772489.19746  22745840.293    22745848.1554
  23833131.855    -3772640.487 8  -2901937.72245  23833131.067    23833140.1814
 01  5 15 20  1  0.0000000  0  9 30 06 26 23 17 15 10 18 22
  22680393.619     -820495.652 8   -629008.13646  22680393.970    22680401.7224
  20285628.920   -20904230.179 9 -16274192.82348  20285628.901    20285634.5894
  22785264.132    -7856516.355 8  -6097395.13046  22785264.380    22785273.4944
  21939753.467   -15372102.195 8 -11654360.72046  21939753.085    21939761.1334
  21270508.926   -21688826.416 9 -16883740.42247  21270508.544    21270515.1684
  22163981.664   -14369219.004 8 -11170412.17446  22163981.135    22163988.8014
  22741988.546    -6482774.792 8  -5029078.27146  22741987.839    22741995.4304
  22727082.644   -13946701.456 8 -10849299.16246  22727082.378    22727090.1984
  23821726.945    -3832573.194 7  -2948638.47145  23821726.282    23821735.4104
 01  5 15 20  1 30.0000000  0  9 30 06 26 23 17 15 10 18 22
  22698979.705     -722825.637 8   -552901.76946  22698980.043    22698987.8084
  20285380.155   -20905537.620 9 -16275211.61748  20285380.134    20285385.8174
  22773065.296    -7920621.167 8  -6147346.82746  22773065.515    22773074.5884
  21925025.417   -15449498.420 8 -11714669.39447  21925025.031    21925033.0694
  21264035.373   -21722845.019 9 -16910248.40047  21264034.985    21264041.6244
  22152454.313   -14429795.828 8 -11217614.83146  22152453.795    22152461.4154
  22759476.077    -6390877.332 8  -4957469.94446  22759475.373    22759482.9484
  22708373.861   -14045016.357 8 -10925908.07046  22708373.611    22708381.3624
  23810408.757    -3892050.458 8  -2994984.33045  23810408.098    23810417.2374
 01  5 15 20  2  0.0000000  0  9 30 06 26 23 17 15 10 18 22
  22717604.549     -624951.896 8   -476636.64946  22717604.869    22717612.6894
  20285210.202   -20906430.872 9 -16275907.66948  20285210.191    20285215.8644
  22760938.002    -7984350.196 8  -6197005.72346  22760938.190    22760947.1874
  21910366.673   -15526530.364 8 -11774694.20847  21910366.279    21910374.3324
  21257600.982   -21756657.876 9 -16936596.06247  21257600.609    21257607.2454
  22140964.380   -14490175.727 8 -11264664.03846  22140963.870    22140971.4474
  22777014.611    -6298712.095 8  -4885652.95446  22777013.901    22777021.5044
  22689714.786   -14143070.292 8 -11002313.62946  22689714.507    22689722.2244
  23799177.685    -3951069.956 8  -3040973.47945  23799177.053    23799186.0344
 01  5 15 20  2 30.0000000  0  9 30 06 26 23 17 15 10 18 22
  22736267.502     -526877.669 8   -400215.31346  22736267.859    22736275.7274
  20285119.297   -20906908.751 9 -16276280.04648  20285119.284    20285124.9424
  22748882.819    -8047700.162 8  -6246369.23046  22748883.006    22748892.0154
  21895777.563   -15603196.352 8 -11834433.86747  21895777.189    21895785.2434
  21251205.686   -21790265.139 9 -16962783.51547  21251205.307    21251211.9874
  22129511.907   -14550358.769 8 -11311559.85546  22129511.378    22129518.9514
  22794603.631    -6206281.680 8  -4813629.31746  22794602.915    22794610.5524
  22671105.725   -14240861.341 8 -11078514.34246  22671105.410    22671113.0604
  23788034.213    -4009629.401 8  -3086604.15245  23788033.567    23788042.4894
 01  5 15 20  3  0.0000000  0  9 30 06 26 23 17 15 10 18 22
  22754968.056     -428606.054 8   -323640.16146  22754968.413    22754976.3274
  20285107.589   -20906970.289 9 -16276328.00548  20285107.562    20285113.2254
  22736900.313    -8110668.225 8  -6295435.16846  22736900.511    22736909.4904
  21881258.343   -15679495.204 8 -11893887.44647  21881257.961    21881265.9844
  21244849.387   -21823667.620 9 -16988811.40247  21244849.017    21244855.6844
  22118096.851   -14610345.200 8 -11358302.46346  22118096.291    22118103.8884
  22812242.479    -6113589.304 8  -4741401.55446  22812241.763    22812249.3854
  22652547.005   -14338387.507 8 -11154508.65946  22652546.698    22652554.3394
  23776978.589    -4067727.242 8  -3131875.14145  23776977.920    23776986.8074
 01  5 15 20  3 30.0000000  0  9 30 06 26 23 17 15 10 18 22
  22773705.691     -330139.489 8   -246913.11246  22773706.021    22773713.9964
  20285175.370   -20906614.133 9 -16276050.49448  20285175.355    20285181.0384
  22724991.123    -8173251.084 8  -6344200.95346  22724991.366    22725000.3374
  21866809.316   -15755425.065 8 -11953053.49247  21866808.933    21866816.9264
  21238532.068   -21856865.219 9 -17014679.64647  21238531.681    21238538.3764
  22106719.255   -14670134.894 8 -11404891.76846  22106718.697    22106726.2744
  22829930.671    -6020637.544 8  -4668971.67846  22829929.948    22829937.6204
  22634039.145   -14435646.494 8 -11230294.77546  22634038.881    22634046.4334
  23766011.139    -4125361.845 8  -3176785.15545  23766010.563    23766019.3234
 01  5 15 20  4  0.0000000  0  9 30 06 26 23 17 15 10 18 22
  22792479.846     -231480.986 8   -170036.49846  22792480.184    22792488.2134
  20285322.888   -20905838.984 9 -16275446.49248  20285322.883    20285328.5634
  22713155.847    -8235445.402 8  -6392663.97546  22713156.119    22713165.0584
  21852430.846   -15830984.118 8 -12011930.60147  21852430.477    21852438.4894
  21232253.736   -21889858.049 9 -17040388.32547  21232253.347    21232260.0304
  22095379.088   -14729727.578 8 -11451327.57746  22095378.568    22095386.1074
  22847667.726    -5927428.847 8  -4596341.59746  22847667.039    22847674.7694
  22615582.547   -14532636.013 8 -11305870.94046  22615582.299    22615589.8424
  23755132.135    -4182531.621 8  -3221332.98445  23755131.425    23755140.3194
 01  5 15 20  4 30.0000000  0  9 30 06 26 23 17 15 10 18 22
  22811289.973     -132633.427 8    -93012.56846  22811290.312    22811298.4464
  20285550.370   -20904643.547 9 -16274514.99448  20285550.356    20285556.0554
  22701395.180    -8297247.868 8  -6440821.66646  22701395.451    22701404.4224
  21838123.317   -15906170.527 8 -12070517.34347  21838122.952    21838130.9564
  21226014.315   -21922646.337 9 -17065937.62347  21226013.936    21226020.6154
  22084076.395   -14789123.302 8 -11497609.90646  22084075.892    22084083.4214
  22865453.141    -5833965.823 8  -4523513.34746  22865452.436    22865460.2784
  22597177.636   -14629353.865 8 -11381235.39546  22597177.350    22597184.9174
  23744341.937    -4239234.512 8  -3265517.00245  23744341.344    23744350.0074
 01  5 15 20  5  0.0000000  0  9 30 06 26 23 17 15 10 18 22
  22830135.485      -33600.018 8    -15843.82746  22830135.796    22830143.9964
  20285858.014   -20903026.955 9 -16273255.32348  20285858.013    20285863.7164
  22689709.574    -8358655.815 8  -6488671.93745  22689709.861    22689718.8854
  21823886.941   -15980982.989 8 -12128812.69747  21823886.588    21823894.5284
  21219813.692   -21955230.769 9 -17091328.07447  21219813.329    21219819.9984
  22072811.061   -14848322.800 8 -11543739.33046  22072810.561    22072818.0624
  22883286.411    -5740251.522 8  -4450489.27946  22883285.711    22883293.6634
  22578824.740   -14725798.332 8 -11456386.82846  22578824.475    22578832.0644
  23733640.837    -4295468.800 8  -3309335.87345  23733640.223    23733648.9144
 01  5 15 20  5 30.0000000  0  9 30 06 26 23 17 15 10 18 22
  22849015.809       65616.383 8     61467.52246  22849016.145    22849024.4334
  20286245.994   -20900988.060 9 -16271666.58748  20286245.994    20286251.7184
  22678099.704    -8419665.727 8  -6536212.03946  22678099.958    22678109.0014
  21809722.040   -16055419.788 8 -12186815.31747  21809721.674    21809729.5974
  21213651.820   -21987611.346 9 -17116559.67847  21213651.455    21213658.1534
  22061583.207   -14907325.472 8 -11589715.37846  22061582.714    22061590.1974
  22901167.001    -5646288.260 8  -4377271.22846  22901166.322    22901174.4154
  22560524.331   -14821966.853 8 -11531323.23646  22560524.084    22560531.6664
  23723029.206    -4351232.528 8  -3352788.05145  23723028.649    23723037.3724
 01  5 15 20  6  0.0000000  0  9 30 06 26 23 17 15 10 18 22
  22867930.354      165012.769 8    138919.10646  22867930.710    22867939.0874
  20286714.582   -20898525.734 9 -16269747.89948  20286714.580    20286720.2884
  22666566.101    -8480274.825 7  -6583439.85745  22666566.403    22666575.3574
  21795628.932   -16129479.528 8 -12244524.12347  21795628.551    21795636.4394
  21207528.701   -22019788.437 9 -17141632.71847  21207528.354    21207535.0414
  22050392.813   -14966131.317 8 -11635538.06146  22050392.301    22050399.7584
  22919094.455    -5552079.185 8  -4303861.63446  22919093.791    22919101.9134
  22542276.787   -14917857.599 8 -11606043.20146  22542276.577    22542284.1484
  23712507.403    -4406524.690 8  -3395872.79745  23712506.823    23712515.5414
 01  5 15 20  6 30.0000000  0  9 30 06 26 23 17 15 10 18 22
  22886878.532      264585.729 8    216508.28246  22886878.913    22886887.3524
  20287263.893   -20895639.156 9 -16267498.63448  20287263.870    20287269.5924
  22655109.264    -8540480.105 8  -6630352.95445  22655109.594    22655118.6064
  21781607.801   -16203160.833 8 -12301938.05447  21781607.427    21781615.2964
  21201444.238   -22051762.473 9 -17166547.53847  21201443.876    21201450.5694
  22039239.787   -15024740.640 8 -11681207.61546  22039239.292    22039246.7054
  22937068.226    -5457627.082 8  -4230262.66846  22937067.558    22937075.6974
  22524082.526   -15013468.644 8 -11680545.21146  22524082.303    22524089.8634
  23702075.638    -4461343.902 8  -3438589.00745  23702075.045    23702083.8004
 01  5 15 20  7  0.0000000  0  9 30 06 26 23 17 15 10 18 22
  22905859.845      364332.813 8    294233.14646  22905860.203    22905868.7814
  20287894.191   -20892326.880 9 -16264917.66748  20287894.183    20287899.9084
  22643729.959    -8600278.319 8  -6676948.87946  22643730.262    22643739.2604
  21767658.985   -16276461.936 8 -12359055.70947  21767658.594    21767666.4904
  21195398.338   -22083533.707 9 -17191304.32747  21195397.981    21195404.6854
  22028124.157   -15083153.348 8 -11726723.96546  22028123.668    22028131.0984
  22955087.655    -5362934.563 8  -4156476.34546  22955086.964    22955095.1624
  22505941.886   -15108797.831 8 -11754827.59446  22505941.661    22505949.2084
  23691734.287    -4515687.751 8  -3480934.82845  23691733.654    23691742.4134
 01  5 15 20  7 30.0000000  0  9 30 06 26 23 17 15 10 18 22
  22924873.709      464250.833 8    372091.17746  22924874.039    22924882.6874
  20288605.599   -20888588.356 9 -16262004.51647  20288605.601    20288611.3614
  22632428.599    -8659666.717 8  -6723225.45545  22632428.866    22632437.8594
  21753782.762   -16349381.682 8 -12415876.20247  21753782.390    21753790.2554
  21189390.936   -22115102.628 9 -17215903.46847  21189390.620    21189397.3134
  22017045.876   -15141369.695 8 -11772087.28646  22017045.397    22017052.8524
  22973152.302    -5268004.509 8  -4082504.96646  22973151.578    22973159.8674
  22487855.283   -15203843.194 8 -11828888.81646  22487855.062    22487862.6364
  23681483.683    -4569554.873 8  -3522909.14245  23681483.060    23681491.6984
 01  5 15 20  8  0.0000000  0  9 30 06 26 23 17 15 10 18 22
  22943919.612      564336.895 8    450080.19846  22943919.964    22943928.5414
  20289398.446   -20884422.032 9 -16258758.05748  20289398.452    20289404.2154
  22621205.940    -8718641.906 8  -6769180.10445  22621206.285    22621215.0894
  21739979.430   -16421918.261 8 -12472398.15547  21739979.076    21739986.8914
  21183422.067   -22146469.139 9 -17240344.90047  21183421.732    21183428.4374
  22006005.016   -15199389.652 8 -11817297.61246  22006004.540    22006011.9854
  22991261.657    -5172839.492 8  -4008350.46246  22991260.911    22991269.3014
  22469823.174   -15298602.256 8 -11902726.96446  22469822.926    22469830.4824
  23671324.143    -4622943.623 8  -3564510.71445  23671323.514    23671332.0494
 01  5 15 20  8 30.0000000  0  9 30 06 26 23 17 15 10 18 22
  22962996.898      664587.861 8    528197.67046  22962997.268    22963005.8754
  20290272.809   -20879827.298 9 -16255177.74548  20290272.806    20290278.5754
  22610062.480    -8777201.027 8  -6814810.46945  22610062.769    22610071.6424
  21726249.259   -16494070.431 9 -12528620.56047  21726248.921    21726256.6924
  21177491.598   -22177633.962 8 -17264629.14247  21177491.288    21177497.9834
  21995001.500   -15257213.364 8 -11862354.96946  21995001.008    21995008.4414
  23009415.176    -5077442.254 8  -3934015.03246  23009414.444    23009422.8394
  22451845.843   -15393073.563 8 -11976340.86046  22451845.601    22451853.1234
  23661255.759    -4675853.230 8  -3605738.90345  23661255.044    23661263.6384
 01  5 15 20  9  0.0000000  0  9 30 06 26 23 17 15 10 18 22
  22982104.985      765000.757 8    606441.31946  22982105.319    22982113.8884
  20291228.943   -20874803.006 9 -16251262.73248  20291228.925    20291234.6924
  22598998.824    -8835341.209 8  -6860114.42946  22598999.098    22599007.9254
  21712592.552   -16565836.648 8 -12584542.19847  21712592.215    21712599.9724
  21171599.513   -22208597.175 9 -17288756.32347  21171599.177    21171605.8674
  21984035.344   -15314840.774 8 -11907259.38746  21984034.859    21984042.2684
  23027612.345    -4981815.590 8  -3859500.83246  23027611.606    23027620.0414
  22433923.673   -15487254.900 8 -12049728.78846  22433923.428    22433930.9144
  23651278.935    -4728281.595 8  -3646592.17145  23651278.221    23651286.8194
 01  5 15 20  9 30.0000000  0  9 30 06 26 23 17 15 10 18 22
  23001243.242      865572.328 8    684808.66346  23001243.580    23001252.1354
  20292266.872   -20869348.590 9 -16247012.54748  20292266.866    20292272.6414
  22588015.553    -8893058.779 7  -6905088.78245  22588015.852    22588024.7174
  21699009.467   -16637215.852 8 -12640162.28147  21699009.129    21699016.8774
  21165745.600   -22239359.527 9 -17312726.96447  21165745.250    21165751.9804
  21973106.490   -15372272.147 8 -11952011.02446  21973105.975    21973113.4024
  23045852.563    -4885962.526 8  -3784810.16346  23045851.859    23045860.2914
  22416057.099   -15581144.325 8 -12122889.29146  22416056.847    22416064.2544
  23641393.954    -4780227.104 8  -3687069.10845  23641393.305    23641401.7634
 01  5 15 20 10  0.0000000  0  9 30 06 26 23 17 15 10 18 22
  23020411.345      966300.754 8    763298.15646  23020411.670    23020420.2364
  20293387.005   -20863462.190 9 -16242425.76048  20293387.000    20293392.7694
  22577112.967    -8950351.733 8  -6949732.60946  22577113.240    22577122.1094
  21685500.555   -16708205.479 8 -12695478.79847  21685500.211    21685507.9514
  21159930.076   -22269920.313 9 -17336540.55447  21159929.755    21159936.4424
  21962215.040   -15429506.783 8 -11996609.39046  21962214.535    21962221.9614
  23064135.534    -4789884.970 8  -3709944.63646  23064134.882    23064143.3874
  22398246.547   -15674739.229 8 -12195820.27146  22398246.287    22398253.6274
  23631601.225    -4831687.598 8  -3727168.16045  23631600.584    23631609.1504
 01  5 15 20 10 30.0000000  0  9 30 06 26 23 17 15 10 18 22
  23039608.574     1067182.183 8    841906.90246  23039608.930    23039617.4254
  20294589.553   -20857143.055 9 -16237501.77347  20294589.538    20294595.2494
  22566291.857    -9007216.614 8  -6994042.81646  22566292.111    22566300.9314
  21672065.945   -16778804.602 8 -12750491.03447  21672065.621    21672073.3104
  21154152.798   -22300280.271 9 -17360197.65647  21154152.475    21154159.0984
  21951360.966   -15486545.089 8 -12041054.76646  21951360.450    21951367.9014
  23082460.709    -4693585.815 8  -3634906.41946  23082460.055    23082468.5624
  22380492.357   -15768037.795 8 -12268520.34446  22380492.118    22380499.4244
  23621900.988    -4882662.252 8  -3766888.61445  23621900.299    23621909.1054
 01  5 15 20 11  0.0000000  0  9 30 06 26 23 17 15 10 18 22
  23058834.065     1168211.911 8    920631.19146  23058834.400    23058842.8274
  20295874.230   -20850392.027 9 -16232241.25247  20295874.209    20295879.8994
  22555552.452    -9063652.247 8  -7038018.54446  22555552.656    22555561.4594
  21658705.588   -16849013.633 8 -12805199.30547  21658705.250    21658712.9254
  21148413.318   -22330441.527 9 -17383699.92447  21148412.988    21148419.5374
  21940543.834   -15543389.079 8 -12085348.73446  21940543.318    21940550.7604
  23100827.234    -4597069.481 8  -3559698.99346  23100826.561    23100835.0584
  22362794.528   -15861040.020 8 -12340989.51746  22362794.280    22362801.5274
  23612293.105    -4933151.628 7  -3806230.93145  23612292.440    23612301.2394
 01  5 15 20 11 30.0000000  0  9 30 06 26 23 17 15 10 18 22
  23078087.805     1269390.071 8    999471.15046  23078088.162    23078096.5564
  20297241.862   -20843205.336 9 -16226641.25448  20297241.842    20297247.4984
  22544895.775    -9119652.963 8  -7081655.37846  22544895.963    22544904.7624
  21645420.193   -16918828.567 8 -12859600.48847  21645419.848    21645427.5024
  21142712.117   -22360401.603 9 -17407045.42847  21142711.785    21142718.2984
  21929764.226   -15600036.086 8 -12129489.20546  21929763.681    21929771.0704
  23119235.051    -4500336.052 8  -3484322.36646  23119234.357    23119242.8734
  22345153.984   -15953741.182 8 -12413224.08746  22345153.772    22345160.9414
  23602778.461    -4983151.114 8  -3845191.53845  23602777.787    23602786.5774
 01  5 15 20 14  0.0000000  0  9 30 17 15 06 26 23 22 10 18
  23314076.026      223959.393 8    160510.59146  23314075.941    23314084.7544
  21254094.169                                    21254095.966    21254095.3324
  22015744.197     -200549.610 8   -143551.67146  22015743.827    22015751.1944
  20444645.064                                    20444645.446    20444606.1654
  22632189.391     -195363.493 8   -140274.72246  22632189.432    22632197.7664
  21719443.318                                    21719447.609    21719520.5574
  23695929.380     -117814.61453                  23695931.498    23695937.6784
  23351191.186      192049.690 8    140181.61945  23351191.067    23351199.5974
  22397140.175     -295437.230 8   -194983.38446  22397139.982    22397146.9874
 01  5 15 20 14 30.0000000  0  9 30 17 15 06 26 23 22 10 18
  23329930.705      307278.834 8    225434.65846  23329931.175    23329939.9864
  21245066.020                                    21245067.626    21245155.7394
  22001633.941     -274701.074 8   -201331.97046  22001633.236    22001640.5944
  20442957.877       -4058.65357                  20442957.855    20442963.8144
  22618485.183     -267379.469 8   -196390.97846  22618485.279    22618493.5424
  21703057.276      -27390.66456                  21703057.056    21703064.6824
  23683422.818     -245631.880 7   -169021.87845  23683423.107    23683431.4184
  23366279.700      271343.015 8    201968.53145  23366279.891    23366288.5524
  22376295.413     -404975.806 8   -280338.01646  22376295.483    22376302.4934
 01  5 15 20 15  0.0000000  0  9 30 17 15 06 26 23 22 10 18
  23213601.754     -304035.251 8   -250914.15846  23213602.108    23213610.9184
  21103866.447                                    21103868.076    21103855.7014
  21855351.639    -1043419.166 8   -800333.02946  21855351.065    21855358.3854
  20309146.005     -740427.57319   -551996.27747  20309146.071    20309151.8784
  22472658.484    -1033703.730 8   -793526.70346  22472658.622    22472666.8644
  21554539.368    -1100761.469 8   -635547.05047  21554539.263    21554546.6514
  23538803.809    -1005611.620 8   -761213.82645  23538804.635    23538812.3014
  23249198.092     -343926.298 8   -277462.18745  23249198.075    23249206.6854
  22223301.696    -1208963.147 8   -906821.55146  22223301.718    22223308.7494
 01  5 15 20 15 30.0000000  0  9 30 17 15 06 26 23 22 10 18
  23233059.065     -201786.535 8   -171239.80446  23233059.967    23233068.0444
  21098467.660                                    21098469.354    21098436.7764
  21844869.847    -1098501.068 8   -843253.93246  21844869.302    21844876.5864
  20311181.198     -729732.848 9   -543662.73347  20311181.222    20311187.0354
  22462681.992    -1086130.556 8   -834378.66446  22462682.159    22462690.2344
  21541861.537    -1167384.536 8   -687461.04947  21541861.280    21541868.6664
  23530043.054    -1051651.410 8   -797088.94445  23530042.611    23530051.1504
  23267916.378     -245562.677 8   -200815.30945  23267916.087    23267924.6754
  22206131.162    -1299194.728 8   -977131.98846  22206131.105    22206138.2084
 01  5 15 20 16  0.0000000  0  9 30 17 15 06 26 23 22 10 18
  23252539.173      -99418.446 8    -91472.64546  23252539.862    23252548.2414
  21093106.472                                    21093108.195    21093119.6044
  21834425.220    -1153387.816 8   -886022.77446  21834424.683    21834431.9374
  20313300.461     -718596.062 9   -534984.73847  20313300.465    20313306.2944
  22452792.875    -1138098.022 8   -874872.69346  22452793.075    22452801.1054
  21529260.550    -1233603.170 8   -739059.91847  21529260.223    21529267.6264
  23521377.327    -1097190.465 7   -832573.88245  23521376.830    23521385.3924
  23286671.040     -147007.285 8   -124018.98645  23286670.583    23286679.1964
  22189021.270    -1389108.045 8  -1047194.21846  22189021.150    22189028.2454
 01  5 15 20 16 30.0000000  0  9 30 17 15 06 26 23 22 10 18
  23272041.540        3066.877 8    -11614.12646  23272042.170    23272050.7044
  21087782.733                                    21087784.481    21087839.2914
  21824017.738    -1208079.322 8   -928639.47646  21824017.227    21824024.4344
  20315504.010     -707016.289 9   -525961.55447  20315503.999    20315509.8414
  22442991.676    -1189603.499 8   -915006.77346  22442991.870    22442999.9134
  21516736.788    -1299415.854 8   -790342.45747  21516736.443    21516743.8704
  23512807.167    -1142227.117 8   -867667.32645  23512806.643    23512815.3144
  23305461.649      -48262.961 8    -47075.43745  23305461.155    23305469.6304
  22171972.058    -1478702.109 8  -1117007.67346  22171971.953    22171979.0234
